[[{"header":{"parameterUnit":"m.s-1","parameterCategory":1,"la1":30.6,"la2":28.766,"lo1":-90.7593,"lo2":-88.6598,"dy":0.0162,"dx":0.0183,"nx":116,"ny":114,"refTime":"2023-06-03T12:00:00:Z","depth":0,"parameterNumber":2,"parameterNumberName":"U-component_of_WINDS"},"data":[0.0,0.0,0.0,0.0,0.0,0.0,0.0,0.0,0.0,0.0,0.0,0.0,0.0,0.0,0.0,0.0,0.0,0.0,0.0,0.0,0.0,0.0,0.0,0.0,0.0,0.0,0.0,0.0,0.0,0.0,0.0,0.0,0.0,0.0,0.0,0.0,0.0,0.0,0.0,0.0,0.0,0.0,0.0,0.0,0.0,0.0,0.0,0.0,0.0,0.0,0.0,0.0,0.0,0.0,0.0,0.0,0.0,0.0,0.0,0.0,0.0,0.0,0.0,0.0,0.0,0.0,0.0,0.0,0.0,0.0,0.0,0.0,0.0,0.0,0.0,0.0,0.0,0.0,0.0,0.0,0.0,0.0,0.0,0.0,0.0,0.0,0.0,0.0,0.0,0.0,0.0,0.0,0.0,0.0,0.0,0.0,0.0,0.0,0.0,0.0,0.0,0.0,0.0,0.0,0.0,0.0,0.0,0.0,0.0,0.0,0.0,0.0,0.0,0.0,0.0,0.0,0.0,0.0,0.0,0.0,0.0,0.0,0.0,0.0,0.0,0.0,0.0,0.0,0.0,0.0,0.0,0.0,0.0,0.0,0.0,0.0,0.0,0.0,0.0,0.0,0.0,0.0,0.0,0.0,0.0,0.0,0.0,0.0,0.0,0.0,0.0,0.0,0.0,0.0,0.0,0.0,0.0,0.0,0.0,0.0,0.0,0.0,0.0,0.0,0.0,0.0,0.0,0.0,0.0,0.0,0.0,0.0,0.0,0.0,0.0,0.0,0.0,0.0,0.0,0.0,0.0,0.0,0.0,0.0,0.0,0.0,0.0,0.0,0.0,0.0,0.0,0.0,0.0,0.0,0.0,0.0,0.0,0.0,0.0,0.0,0.0,0.0,0.0,0.0,0.0,0.0,0.0,0.0,0.0,0.0,0.0,0.0,0.0,0.0,0.0,0.0,0.0,0.0,0.0,0.0,0.0,0.0,0.0,0.0,0.0,0.0,0.0,0.0,0.0,0.0,0.0,0.0,0.0,0.0,0.0,0.0,0.0,0.0,0.0,0.0,0.0,0.0,0.0,0.0,0.0,0.0,0.0,0.0,0.0,0.0,0.0,0.0,0.0,0.0,0.0,0.0,0.0,0.0,0.0,0.0,0.0,0.0,0.0,0.0,0.0,0.0,0.0,0.0,0.0,0.0,0.0,0.0,0.0,0.0,0.0,0.0,0.0,0.0,0.0,0.0,0.0,0.0,0.0,0.0,0.0,0.0,0.0,0.0,0.0,0.0,0.0,0.0,0.0,0.0,0.0,0.0,0.0,0.0,0.0,0.0,0.0,0.0,0.0,0.0,0.0,0.0,0.0,0.0,0.0,0.0,0.0,0.0,0.0,0.0,0.0,0.0,0.0,0.0,0.0,0.0,0.0,0.0,0.0,0.0,0.0,0.0,0.0,0.0,0.0,0.0,0.0,0.0,0.0,0.0,0.0,0.0,0.0,0.0,0.0,0.0,0.0,0.0,0.0,0.0,0.0,0.0,0.0,0.0,0.0,0.0,0.0,0.0,0.0,0.0,0.0,0.0,0.0,0.0,0.0,0.0,0.0,0.0,0.0,0.0,0.0,0.0,0.0,0.0,0.0,0.0,0.0,0.0,0.0,0.0,0.0,0.0,0.0,0.0,0.0,0.0,0.0,0.0,0.0,0.0,0.0,0.0,0.0,0.0,0.0,0.0,0.0,0.0,0.0,0.0,0.0,0.0,0.0,0.0,0.0,0.0,0.0,0.0,0.0,0.0,0.0,0.0,0.0,0.0,0.0,0.0,0.0,0.0,0.0,0.0,0.0,0.0,0.0,0.0,0.0,0.0,0.0,0.0,0.0,0.0,0.0,0.0,0.0,0.0,0.0,0.0,0.0,0.0,0.0,0.0,0.0,0.0,0.0,0.0,0.0,0.0,0.0,0.0,0.0,0.0,0.0,0.0,0.0,0.0,0.0,0.0,0.0,0.0,0.0,0.0,0.0,0.0,0.0,0.0,0.0,0.0,0.0,0.0,0.0,0.0,0.0,0.0,0.0,0.0,0.0,0.0,0.0,0.0,0.0,0.0,0.0,0.0,0.0,0.0,0.0,0.0,0.0,0.0,0.0,0.0,0.0,0.0,0.0,0.0,0.0,0.0,0.0,0.0,0.0,0.0,0.0,0.0,0.0,0.0,0.0,0.0,0.0,0.0,0.0,0.0,0.0,0.0,0.0,0.0,0.0,0.0,0.0,0.0,0.0,0.0,0.0,0.0,0.0,0.0,0.0,0.0,0.0,0.0,0.0,0.0,0.0,0.0,0.0,0.0,0.0,0.0,0.0,0.0,0.0,0.0,0.0,0.0,0.0,0.0,0.0,0.0,0.0,0.0,0.0,0.0,0.0,0.0,0.0,0.0,0.0,0.0,0.0,0.0,0.0,0.0,0.0,0.0,0.0,0.0,0.0,0.0,0.0,0.0,0.0,0.0,0.0,0.0,0.0,0.0,0.0,0.0,0.0,0.0,0.0,0.0,0.0,0.0,0.0,0.0,0.0,0.0,0.0,0.0,0.0,0.0,0.0,0.0,0.0,0.0,0.0,0.0,0.0,0.0,0.0,0.0,0.0,0.0,0.0,0.0,0.0,0.0,0.0,0.0,0.0,0.0,0.0,0.0,0.0,0.0,0.0,0.0,0.0,0.0,0.0,0.0,0.0,0.0,0.0,0.0,0.0,0.0,0.0,0.0,0.0,0.0,0.0,0.0,0.0,0.0,0.0,0.0,0.0,0.0,0.0,0.0,0.0,0.0,0.0,0.0,0.0,0.0,0.0,0.0,0.0,0.0,0.0,0.0,0.0,0.0,0.0,0.0,0.0,0.0,0.0,0.0,0.0,0.0,0.0,0.0,0.0,0.0,0.0,0.0,0.0,0.0,0.0,0.0,0.0,0.0,0.0,0.0,0.0,0.0,0.0,0.0,0.0,0.0,0.0,0.0,0.0,0.0,0.0,0.0,0.0,0.0,0.0,0.0,0.0,0.0,0.0,0.0,0.0,0.0,0.0,0.0,0.0,0.0,0.0,0.0,0.0,0.0,0.0,0.0,0.0,0.0,0.0,0.0,0.0,0.0,0.0,0.0,0.0,0.0,0.0,0.0,0.0,0.0,0.0,0.0,0.0,0.0,0.0,0.0,0.0,0.0,0.0,0.0,0.0,0.0,0.0,0.0,0.0,0.0,0.0,0.0,0.0,0.0,0.0,0.0,0.0,0.0,0.0,0.0,0.0,0.0,0.0,0.0,0.0,0.0,0.0,0.0,0.0,0.0,0.0,0.0,0.0,0.0,0.0,0.0,0.0,0.0,0.0,0.0,0.0,0.0,0.0,0.0,0.0,0.0,0.0,0.0,0.0,0.0,0.0,0.0,0.0,0.0,0.0,0.0,0.0,0.0,0.0,0.0,0.0,0.0,0.0,0.0,0.0,0.0,0.0,0.0,0.0,0.0,0.0,0.0,0.0,0.0,0.0,0.0,0.0,0.0,0.0,0.0,0.0,0.0,0.0,0.0,0.0,0.0,0.0,0.0,0.0,0.0,0.0,0.0,0.0,0.0,0.0,0.0,0.0,0.0,0.0,0.0,0.0,0.0,0.0,0.0,0.0,0.0,0.0,0.0,0.0,0.0,0.0,0.0,0.0,0.0,0.0,0.0,0.0,0.0,0.0,0.0,0.0,0.0,0.0,0.0,0.0,0.0,0.0,0.0,0.0,0.0,0.0,0.0,0.0,0.0,0.0,0.0,0.0,0.0,0.0,0.0,0.0,0.0,0.0,0.0,0.0,0.0,0.0,0.0,0.0,0.0,0.0,0.0,0.0,0.0,0.0,0.0,0.0,0.0,0.0,0.0,0.0,0.0,0.0,0.0,0.0,0.0,0.0,0.0,0.0,0.0,0.0,0.0,0.0,0.0,0.0,0.0,0.0,0.0,0.0,0.0,0.0,0.0,0.0,0.0,0.0,0.0,0.0,0.0,0.0,0.0,0.0,0.0,0.0,0.0,0.0,0.0,0.0,0.0,0.0,0.0,0.0,0.0,0.0,0.0,0.0,0.0,0.0,0.0,0.0,0.0,0.0,0.0,0.0,0.0,0.0,0.0,0.0,0.0,0.0,0.0,0.0,0.0,0.0,0.0,0.0,0.0,0.0,0.0,0.0,0.0,0.0,0.0,0.0,0.0,0.0,0.0,0.0,0.0,0.0,0.0,0.0,0.0,0.0,0.0,0.0,0.0,0.0,0.0,0.0,0.0,0.0,0.0,0.0,0.0,0.0,0.0,0.0,0.0,0.0,0.0,0.0,0.0,0.0,0.0,0.0,0.0,0.0,0.0,0.0,0.0,0.0,0.0,0.0,0.0,0.0,0.0,0.0,0.0,0.0,0.0,0.0,0.0,0.0,0.0,0.0,0.0,0.0,0.0,0.0,0.0,0.0,0.0,0.0,0.0,0.0,0.0,0.0,0.0,0.0,0.0,0.0,0.0,0.0,0.0,0.0,0.0,0.0,0.0,0.0,0.0,0.0,0.0,0.0,0.0,0.0,0.0,0.0,0.0,0.0,0.0,0.0,0.0,0.0,0.0,0.0,0.0,0.0,0.0,0.0,0.0,0.0,0.0,0.0,0.0,0.0,0.0,0.0,0.0,0.0,0.0,0.0,0.0,0.0,0.0,0.0,0.0,0.0,0.0,0.0,0.0,0.0,0.0,0.0,0.0,0.0,0.0,0.0,0.0,0.0,0.0,0.0,0.0,0.0,0.0,0.0,0.0,0.0,0.0,0.0,0.0,0.0,0.0,0.0,0.0,0.0,0.0,0.0,0.0,0.0,0.0,0.0,0.0,0.0,0.0,0.0,0.0,0.0,0.0,0.0,0.0,0.0,0.0,0.0,0.0,0.0,0.0,0.0,0.0,0.0,0.0,0.0,0.0,0.0,0.0,0.0,0.0,0.0,0.0,0.0,0.0,0.0,0.0,0.0,0.0,0.0,0.0,0.0,0.0,0.0,0.0,0.0,0.0,0.0,0.0,0.0,0.0,0.0,0.0,0.0,0.0,0.0,0.0,0.0,0.0,0.0,0.0,0.0,0.0,0.0,0.0,0.0,0.0,0.0,0.0,0.0,0.0,0.0,0.0,0.0,0.0,0.0,0.0,0.0,0.0,0.0,0.0,0.0,0.0,0.0,0.0,0.0,0.0,0.0,0.0,0.0,0.0,0.0,0.0,0.0,0.0,0.0,0.0,0.0,0.0,0.0,0.0,0.0,0.0,0.0,0.0,0.0,0.0,0.0,0.0,0.0,0.0,0.0,0.0,0.0,0.0,0.0,0.0,0.0,0.0,0.0,0.0,0.0,0.0,0.0,0.0,0.0,0.0,0.0,0.0,0.0,0.0,0.0,0.0,0.0,0.0,0.0,0.0,0.0,0.0,0.0,0.0,0.0,0.0,0.0,0.0,0.0,0.0,0.0,0.0,0.0,0.0,0.0,0.0,0.0,0.0,0.0,0.0,0.0,0.0,0.0,0.0,0.0,0.0,0.0,0.0,0.0,0.0,0.0,0.0,0.0,0.0,0.0,0.0,0.0,0.0,0.0,0.0,0.0,0.0,0.0,0.0,0.0,0.0,0.0,0.0,0.0,0.0,0.0,0.0,0.0,0.0,0.0,0.0,0.0,0.0,0.0,0.0,0.0,0.0,0.0,0.0,0.0,0.0,0.0,0.0,0.0,0.0,0.0,0.0,0.0,0.0,0.0,0.0,0.0,0.0,0.0,0.0,0.0,0.0,0.0,0.0,0.0,0.0,0.0,0.0,0.0,0.0,0.0,0.0,0.0,0.0,0.0,0.0,0.0,0.0,0.0,0.0,0.0,0.0,0.0,0.0,0.0,0.0,0.0,0.0,0.0,0.0,0.0,0.0,0.0,0.0,0.0,0.0,0.0,0.0,0.0,0.0,0.0,0.0,0.0,0.0,0.0,0.0,0.0,0.0,0.0,0.0,0.0,0.0,0.0,0.0,0.0,0.0,0.0,0.0,0.0,0.0,0.0,0.0,0.0,0.0,0.0,0.0,2.462,2.5303,0.0,0.0,0.0,0.0,0.0,0.0,0.0,0.0,0.0,0.0,0.0,0.0,0.0,0.0,0.0,0.0,0.0,0.0,0.0,0.0,0.0,0.0,0.0,0.0,0.0,0.0,0.0,0.0,0.0,0.0,0.0,0.0,0.0,0.0,0.0,0.0,0.0,0.0,2.0981,2.1001,2.1461,2.318,2.3557,2.289,0.0,0.0,0.0,0.0,0.0,0.0,0.0,0.0,0.0,0.0,0.0,0.0,0.0,0.0,0.0,0.0,0.0,0.0,0.0,0.0,0.0,0.0,0.0,0.0,0.0,0.0,0.0,0.0,0.0,0.0,0.0,0.0,0.0,0.0,0.0,0.0,0.0,0.0,0.0,0.0,0.0,0.0,0.0,0.0,0.0,0.0,0.0,0.0,0.0,0.0,0.0,0.0,0.0,0.0,0.0,0.0,0.0,0.0,0.0,0.0,0.0,0.0,0.0,0.0,0.0,0.0,0.0,0.0,0.0,0.0,2.4918,2.5303,0.0,0.0,0.0,0.0,0.0,0.0,0.0,0.0,0.0,0.0,0.0,0.0,0.0,0.0,0.0,0.0,0.0,0.0,0.0,0.0,0.0,0.0,0.0,1.9481,1.9652,1.9811,2.0918,2.1723,0.0,0.0,0.0,0.0,0.0,0.0,0.0,2.0072,2.0343,2.1225,2.057,2.1036,2.2623,2.4388,2.4457,2.3159,2.3823,0.0,0.0,0.0,0.0,0.0,0.0,0.0,0.0,0.0,0.0,0.0,0.0,0.0,0.0,0.0,0.0,0.0,0.0,0.0,0.0,0.0,0.0,0.0,0.0,0.0,0.0,0.0,0.0,0.0,0.0,0.0,0.0,0.0,0.0,0.0,0.0,0.0,0.0,0.0,0.0,0.0,0.0,0.0,0.0,0.0,0.0,0.0,0.0,0.0,0.0,0.0,0.0,0.0,0.0,0.0,0.0,0.0,0.0,0.0,0.0,0.0,0.0,0.0,2.6783,2.7072,2.7033,2.5841,2.5937,2.7072,2.7072,2.6745,2.613,2.5553,0.0,0.0,0.0,0.0,0.0,0.0,0.0,0.0,0.0,0.0,0.0,0.0,0.0,0.0,0.0,0.0,0.0,0.0,0.0,0.0,0.0,1.9472,1.9902,2.0648,2.0343,2.0656,2.199,0.0,0.0,0.0,0.0,0.0,2.039,1.9797,1.9582,1.9791,2.0968,2.2425,2.4143,2.5951,2.64,2.5669,2.5001,2.5499,2.6777,0.0,0.0,0.0,0.0,0.0,0.0,0.0,0.0,0.0,0.0,0.0,0.0,0.0,0.0,0.0,0.0,0.0,0.0,0.0,0.0,0.0,0.0,0.0,0.0,0.0,0.0,0.0,0.0,0.0,0.0,0.0,0.0,0.0,0.0,0.0,0.0,0.0,0.0,0.0,0.0,0.0,2.1885,2.4815,0.0,0.0,0.0,0.0,0.0,0.0,0.0,0.0,0.0,0.0,0.0,0.0,0.0,2.5154,2.5149,2.5245,2.6783,2.9763,3.2724,3.4147,3.3936,2.8014,2.8533,3.4147,3.4147,0.0,2.9494,2.6514,0.0,0.0,0.0,0.0,0.0,0.0,0.0,0.0,0.0,0.0,0.0,0.0,0.0,0.0,0.0,0.0,0.0,0.0,0.0,0.0,0.0,2.0078,2.0476,2.0396,2.1474,2.2028,2.1679,2.1865,0.0,0.0,0.0,1.9668,1.9996,1.9177,1.914,1.9939,2.3378,2.5206,2.5521,2.7859,2.882,2.8534,2.8139,2.7491,2.6689,2.5821,0.0,0.0,0.0,0.0,0.0,0.0,0.0,0.0,0.0,0.0,0.0,0.0,0.0,0.0,0.0,0.0,0.0,0.0,0.0,0.0,0.0,0.0,0.0,0.0,0.0,0.0,0.0,0.0,0.0,0.0,0.0,0.0,0.0,0.0,0.0,0.0,0.0,0.0,0.0,2.158,2.3201,2.5081,2.493,2.4556,0.0,0.0,0.0,0.0,0.0,0.0,0.0,0.0,0.0,2.8176,3.0033,3.1032,3.1032,3.1032,3.1782,3.3282,3.4782,3.6488,3.82,3.5218,3.4449,3.5493,3.5493,3.4647,3.2994,2.9571,2.7033,2.5303,0.0,0.0,0.0,0.0,2.6949,2.562,0.0,0.0,0.0,0.0,0.0,0.0,0.0,0.0,0.0,0.0,0.0,0.0,1.9844,2.0709,2.1161,2.1013,2.2651,2.3217,2.2062,2.2105,2.1782,2.0952,2.0044,1.9664,1.9818,1.9593,2.0352,2.2094,2.5991,2.7769,2.7537,2.9953,3.1032,3.0978,3.1333,3.0075,2.7633,2.6847,2.617,2.5555,0.0,0.0,0.0,0.0,0.0,0.0,0.0,0.0,0.0,0.0,0.0,0.0,0.0,0.0,0.0,0.0,0.0,0.0,0.0,0.0,0.0,0.0,0.0,0.0,0.0,0.0,0.0,0.0,0.0,0.0,0.0,0.0,0.0,0.0,0.0,0.0,0.0,2.323,2.5263,2.625,2.5642,2.5111,0.0,0.0,0.0,0.0,0.0,0.0,3.1564,3.1153,3.0715,3.0253,3.3659,3.5921,3.6776,3.6776,3.6776,3.6776,3.6776,3.8084,4.0489,4.0489,3.8661,3.5565,3.6411,3.6776,3.6526,3.3122,2.9687,2.6591,2.6591,2.6591,2.6909,2.9466,2.989,2.9473,0.0,0.0,0.0,0.0,0.0,0.0,0.0,0.0,0.0,0.0,0.0,1.8679,2.0532,2.1081,2.1942,2.3558,2.3195,2.3157,2.3824,2.1533,2.0372,2.0889,2.0538,2.0285,2.0173,2.199,2.4263,2.6944,2.8154,2.9425,3.0788,3.2217,3.2728,3.2567,3.3882,3.3347,3.1279,2.8897,2.7834,2.7618,2.6081,0.0,0.0,0.0,0.0,0.0,0.0,0.0,0.0,0.0,0.0,0.0,0.0,0.0,0.0,0.0,0.0,0.0,0.0,0.0,0.0,0.0,0.0,0.0,0.0,0.0,0.0,0.0,0.0,0.0,0.0,0.0,0.0,0.0,0.0,0.0,0.0,0.0,0.0,2.9101,2.8356,0.0,0.0,0.0,0.0,2.7588,3.0867,3.257,3.2095,3.3276,3.2698,2.9926,3.3527,3.7034,4.0219,4.0239,4.0239,4.0239,4.0239,4.0335,4.0489,4.0489,3.8661,3.568,3.8873,4.0239,3.9988,3.6642,3.3224,3.0129,3.0129,3.0129,3.0148,3.0333,3.4347,3.9315,0.0,0.0,0.0,0.0,0.0,0.0,0.0,0.0,1.9001,1.9001,1.9324,2.0131,2.1598,2.2997,2.408,2.474,2.5154,2.5031,2.418,2.2634,2.1798,2.192,2.0955,2.0869,2.1927,2.4411,2.6519,2.8136,3.0337,3.1909,3.2816,3.4044,3.4832,3.5243,3.5754,3.5594,3.4735,3.2216,2.9908,2.7903,2.7287,2.6208,0.0,0.0,0.0,0.0,0.0,0.0,0.0,0.0,0.0,0.0,0.0,0.0,0.0,0.0,0.0,0.0,0.0,0.0,0.0,0.0,0.0,0.0,0.0,0.0,0.0,0.0,0.0,0.0,0.0,0.0,0.0,0.0,0.0,0.0,0.0,0.0,0.0,3.2732,3.3734,0.0,3.0633,2.8082,2.83,3.2474,3.4905,3.6569,3.7462,3.6434,3.59,3.6108,3.6765,3.8197,4.0469,4.0489,4.0489,4.0489,4.0489,4.0489,4.0489,4.0489,3.9854,3.8777,3.9969,4.0489,4.0412,3.92,3.8007,3.668,3.4526,3.3667,3.3667,3.3667,3.5213,3.728,0.0,0.0,0.0,0.0,0.0,0.0,0.0,0.0,1.8893,1.8603,1.9488,2.0688,2.2177,2.4072,2.5373,2.5738,2.6384,2.615,2.4731,2.3202,2.2371,2.2454,2.1475,2.2036,2.4424,2.6568,2.8449,3.0041,3.2254,3.37,3.4374,3.5047,3.5842,3.6701,3.6905,3.704,3.7053,3.5661,3.2813,2.9173,2.83,2.7412,2.6486,0.0,0.0,0.0,0.0,0.0,0.0,0.0,0.0,0.0,0.0,0.0,0.0,0.0,0.0,0.0,0.0,0.0,0.0,0.0,0.0,0.0,0.0,0.0,0.0,0.0,0.0,0.0,0.0,0.0,0.0,0.0,0.0,0.0,0.0,2.9572,3.3044,3.48,3.7009,3.7236,3.4356,3.2331,3.2378,3.5282,3.8118,3.9946,4.0469,3.8911,3.8569,3.9858,3.9208,3.9381,4.0489,4.0489,4.0489,4.0489,4.0489,4.0489,4.0489,4.0489,4.0489,4.0489,4.0489,4.0489,4.0489,4.0489,4.0489,4.0162,3.6815,3.5493,3.5641,3.6776,3.7199,3.73,0.0,0.0,0.0,0.0,0.0,0.0,0.0,1.9013,1.8704,1.7856,1.8753,2.0243,2.2267,2.4189,2.5726,2.6692,2.6703,2.6346,2.5601,2.3069,2.1837,2.2381,2.2237,2.3863,2.7557,2.8456,3.0222,3.2933,3.3819,3.4672,3.5474,3.5262,3.5718,3.6766,3.7386,3.7817,3.8139,3.8942,3.6464,3.1751,2.9212,2.8568,2.8882,0.0,0.0,0.0,0.0,0.0,0.0,0.0,0.0,0.0,0.0,0.0,0.0,0.0,0.0,0.0,0.0,0.0,0.0,0.0,0.0,0.0,0.0,0.0,0.0,0.0,0.0,0.0,0.0,0.0,0.0,0.0,0.0,0.0,2.6742,3.0982,3.4347,3.5286,3.7915,3.9258,3.8304,3.8681,3.8104,3.5911,4.0303,4.2399,4.0754,4.0546,4.0489,4.0489,4.0489,4.0546,4.0662,4.0662,4.0604,4.0489,4.0489,4.0489,4.0489,4.0489,4.0489,4.0489,4.0489,4.0489,4.0489,4.0489,4.0489,4.0181,3.693,3.5661,3.6065,3.9296,4.0489,4.0354,0.0,0.0,0.0,0.0,0.0,0.0,0.0,1.8992,1.8894,1.8662,2.0187,2.203,2.4011,2.5417,2.6849,2.8302,2.6799,2.5931,2.6343,2.3388,2.1857,2.245,2.4162,2.6173,2.8415,3.0067,3.1878,3.3838,3.473,3.5262,3.5526,3.6021,3.6747,3.7679,3.8473,3.9208,3.9781,3.9438,3.8834,3.7747,3.4007,3.1511,2.9899,0.0,0.0,0.0,0.0,0.0,0.0,0.0,0.0,0.0,0.0,0.0,0.0,0.0,0.0,0.0,0.0,0.0,0.0,0.0,0.0,0.0,0.0,0.0,0.0,0.0,0.0,0.0,0.0,0.0,0.0,0.0,2.814,2.9868,3.0629,3.3983,3.7162,3.9357,4.1736,4.3035,4.261,4.3258,4.297,4.1143,4.2313,4.341,4.4143,4.1835,4.0489,4.0489,4.0489,4.1681,4.4162,4.4201,4.2951,4.0489,4.0489,4.0489,4.0489,4.0489,4.0489,4.0489,4.0489,4.0489,4.0489,4.0489,4.0489,4.0412,3.9488,3.9123,3.9238,4.0162,4.0489,4.0521,0.0,0.0,0.0,0.0,0.0,0.0,0.0,1.8779,1.8772,1.813,2.0414,2.2467,2.335,2.5335,2.6875,2.7526,2.6573,2.5723,2.5188,2.3189,2.2507,2.3613,2.5393,2.7489,2.9957,3.1456,3.3196,3.5243,3.5753,3.6195,3.6555,3.7021,3.7723,3.8594,3.9423,4.0271,4.1037,4.0954,4.1162,4.1328,3.8512,3.6078,3.3928,3.1965,3.0883,3.0217,2.9156,2.9474,3.0037,2.7756,0.0,0.0,0.0,0.0,0.0,0.0,0.0,0.0,0.0,0.0,0.0,0.0,0.0,0.0,0.0,0.0,0.0,0.0,0.0,0.0,0.0,0.0,0.0,0.0,3.1383,3.3339,3.4895,3.6918,3.9004,4.1015,4.3245,4.4613,4.4626,4.522,4.5201,4.422,4.4143,4.4566,4.5547,4.372,4.2624,4.2624,4.2624,4.3585,4.5566,4.5586,4.4586,4.2624,4.2624,4.2624,4.2624,4.2624,4.2624,4.2624,4.2624,4.2624,4.264,4.2633,4.263,4.2495,0.0,0.0,0.0,0.0,4.1004,4.1754,0.0,0.0,0.0,0.0,0.0,0.0,0.0,1.85,1.8463,1.7007,1.9931,2.1926,2.129,2.4185,2.5955,2.539,2.59,2.5332,2.3141,2.3118,2.3876,2.539,2.6448,2.8546,3.1915,3.2666,3.4293,3.6843,3.6757,3.7153,3.799,3.8099,3.8556,3.9342,4.0257,4.1085,4.185,4.2725,4.3143,4.3162,4.2393,4.1024,3.909,3.5965,3.511,3.529,3.3029,3.2318,3.2164,3.0267,0.0,0.0,0.0,0.0,0.0,0.0,0.0,0.0,0.0,0.0,0.0,0.0,0.0,0.0,0.0,0.0,0.0,0.0,0.0,0.0,0.0,0.0,0.0,0.0,3.4446,3.6241,3.8854,3.9574,4.0197,4.1197,4.3271,4.4726,4.5049,4.5393,4.5586,4.5586,4.5586,4.5586,4.5586,4.5586,0.0,0.0,0.0,4.5586,4.5586,4.5586,4.5586,4.5586,4.5586,4.5586,4.5586,4.5586,4.5586,4.5586,4.5586,4.5586,4.5603,4.5591,4.5603,4.5256,4.1844,4.0489,4.0489,4.0489,4.1828,4.3617,0.0,0.0,0.0,0.0,0.0,0.0,0.0,1.8889,1.8627,1.7638,1.974,2.1039,2.027,2.2199,2.3755,2.4312,2.3919,2.3438,2.2951,2.5388,2.6718,2.6362,2.9135,3.1634,3.3673,3.3857,3.5205,3.7756,3.7026,3.7153,3.8009,3.8719,3.9138,3.9362,4.088,4.1629,4.1876,4.2739,4.3467,4.4061,4.3888,4.239,4.0119,3.8811,3.7151,3.5438,3.4968,3.529,3.5565,3.3087,3.3564,3.4662,3.1777,2.9698,0.0,0.0,0.0,0.0,0.0,0.0,0.0,0.0,0.0,0.0,0.0,0.0,0.0,0.0,0.0,0.0,0.0,0.0,0.0,3.5715,3.6768,3.8133,4.0425,4.1121,4.156,4.204,4.3568,4.4684,4.4917,4.5336,4.5586,4.5586,4.5586,4.5586,4.5586,4.5586,4.5586,4.5586,4.5586,4.5586,4.5586,4.5586,4.5586,4.5586,4.5586,0.0,4.5586,4.5586,4.5586,4.5586,4.5586,4.5586,4.5586,4.5601,4.5601,4.5255,4.1832,4.0489,4.0489,4.0489,4.2486,4.5001,0.0,0.0,0.0,0.0,0.0,0.0,0.0,1.7887,1.784,1.7269,1.8937,1.9957,1.9323,2.1311,2.2852,2.3208,2.2853,2.3007,2.3936,2.5948,2.7516,2.8456,3.095,3.3096,3.4807,3.5259,3.6498,3.8651,3.8204,3.8658,3.9922,4.0338,4.0777,4.1258,4.2492,4.3049,4.3107,4.3989,4.4583,4.4949,4.4949,4.4198,4.2951,4.2107,4.0773,3.9249,3.88,3.8676,3.8436,3.6727,3.643,3.651,3.4835,3.2781,3.0741,0.0,0.0,0.0,0.0,0.0,0.0,0.0,0.0,0.0,0.0,0.0,0.0,0.0,0.0,3.2547,3.3375,0.0,3.7261,3.8736,3.9401,4.0129,4.1238,4.1885,4.2374,4.2792,4.3751,4.4526,4.4879,4.5316,4.5951,4.6778,4.6067,4.5836,4.6413,4.5893,4.5586,4.5586,4.5586,4.5586,4.5586,4.5586,4.5586,4.5586,4.5586,4.5586,4.5586,4.5586,4.5586,4.5586,4.5586,4.5586,4.5586,4.5586,4.5586,4.5432,4.372,4.3047,4.3047,4.3047,4.4198,4.5661,0.0,0.0,0.0,0.0,0.0,0.0,0.0,1.67,1.6851,1.6479,1.7866,1.8684,1.8146,2.0324,2.1962,2.2357,2.2467,2.34,2.5451,2.6502,2.8261,3.1019,3.2741,3.4447,3.6194,3.6718,3.779,3.9538,3.9523,4.0303,4.1802,4.1973,4.2431,4.3137,4.3934,4.4299,4.4357,4.524,4.5586,4.5586,4.5586,4.5586,4.5509,4.4818,4.4047,4.3217,4.2354,4.1264,4.012,3.9682,3.8342,3.6945,3.7325,3.5699,3.3297,3.1565,3.0625,0.0,0.0,0.0,0.0,0.0,0.0,0.0,0.0,0.0,3.3874,3.3837,3.4425,3.5643,3.8003,3.9093,4.002,4.1221,4.1511,4.1665,4.1882,4.232,4.2877,4.3543,4.3955,4.4304,4.4611,4.522,4.6432,4.8452,4.7355,4.6836,4.7413,4.6701,4.6047,4.5605,4.5586,4.5586,4.5586,4.5586,4.5586,4.5586,4.5586,4.5586,4.5586,4.5586,4.5586,4.5586,4.5586,4.5586,4.5586,4.5586,4.5586,4.5586,4.5586,4.5586,4.5586,4.5586,4.5699,4.5893,0.0,0.0,0.0,0.0,0.0,0.0,0.0,0.0,1.6312,1.5556,1.6606,1.7108,1.629,1.7904,1.9918,2.2135,2.2954,2.4492,2.7157,2.8798,3.0905,3.3665,3.5378,3.7088,3.8844,3.8204,3.8674,4.0369,4.0369,4.0857,4.1822,4.2588,4.3011,4.3143,4.3932,4.4297,4.4372,4.5238,4.5586,4.5586,4.5586,4.5586,4.5586,4.549,4.4914,4.4068,4.3242,4.1263,3.9204,4.0065,3.9084,3.7814,3.9528,3.8331,3.5914,3.3983,3.1975,3.0021,2.844,2.8652,2.9893,3.2311,3.2791,3.3611,0.0,0.0,4.0337,4.1002,4.0673,4.0752,4.2213,4.2148,4.1965,4.2151,4.1844,4.1876,4.2828,4.2584,4.286,4.4322,4.432,4.4042,4.3694,4.4837,4.6932,5.0164,5.024,4.951,4.8086,4.8394,4.7682,4.5663,4.5586,4.5586,4.5586,4.5586,4.5586,4.5586,4.5586,4.5586,4.5586,4.5586,4.5586,4.5586,4.5586,4.5586,4.5586,4.5586,4.5586,4.5586,4.5586,4.5586,4.5586,4.5586,4.5605,4.57,0.0,0.0,0.0,0.0,0.0,0.0,0.0,0.0,0.0,1.5524,1.5887,1.6235,1.6458,1.8415,1.9985,2.0671,2.2242,2.421,2.658,2.9209,3.1949,3.4826,3.6555,3.8031,3.9268,3.8954,3.9323,4.0489,4.1004,4.17,4.2574,4.3415,4.4066,4.4566,4.4913,4.5047,4.5084,4.5432,4.5586,4.5586,4.5586,4.5586,4.5528,4.5045,4.4011,4.2712,4.1754,4.0039,0.0,3.8003,3.7481,3.7201,3.9001,3.7861,3.556,3.4186,3.3015,3.2195,3.2462,3.2668,3.3194,3.4832,3.6321,3.7794,3.9456,4.0998,4.2191,4.2661,4.3214,4.366,4.3804,4.4027,4.4164,4.4164,4.3724,4.3759,4.4869,4.5487,4.5644,4.5235,4.4745,4.4509,4.4706,4.7048,4.9144,5.0587,5.0702,5.0164,4.8913,4.8952,4.8394,4.7105,4.6605,4.6567,4.7046,4.6103,4.5855,4.6355,4.5836,4.5586,4.5586,4.5586,4.5586,4.5586,4.5586,4.5586,4.5586,4.5586,4.5586,4.5586,4.5586,4.5586,4.5586,4.5586,4.5719,4.5936,0.0,0.0,0.0,0.0,0.0,0.0,0.0,0.0,0.0,0.0,1.5238,1.5592,1.677,1.8849,2.008,1.9881,2.1363,2.3364,2.5856,2.8547,3.1555,3.4899,3.6723,3.8159,3.9285,3.9531,4.0046,4.085,4.1728,4.2601,4.3457,4.4278,4.5007,4.5586,4.5586,4.5586,4.5586,4.5586,4.5586,4.5586,4.5586,4.5451,4.5122,4.4039,4.2396,4.0569,3.9785,3.8091,3.6082,3.5325,3.4832,3.4845,3.6814,3.605,3.4377,3.4056,3.3765,3.3746,3.4851,3.5524,3.6138,3.7077,3.9718,4.2062,4.1931,4.3154,4.4354,4.4343,4.523,4.5705,4.4848,4.513,4.5511,4.5511,4.5372,4.551,4.6059,4.6993,4.7084,4.5588,4.5247,4.5285,4.5624,4.8279,5.0183,5.0644,5.0702,5.0414,4.9779,4.9567,4.9163,4.849,4.7894,4.774,4.8105,4.6681,4.6278,4.6894,4.6009,4.5586,4.5586,4.5586,4.5586,4.5586,4.5586,4.5586,4.5586,4.5586,4.5586,4.5586,4.5586,4.5605,4.5643,4.5643,4.582,4.6069,0.0,0.0,0.0,0.0,0.0,0.0,0.0,0.0,0.0,0.0,0.0,0.0,0.0,1.8361,1.9648,2.0421,2.0551,2.2066,2.5578,2.6811,2.9365,3.3769,3.5745,3.7533,3.9265,4.0065,4.0889,4.1767,4.263,4.3481,4.4282,4.5163,4.5566,4.5586,4.5586,4.5586,4.5586,4.5586,4.5586,4.5586,4.5586,4.5086,4.416,4.2491,4.02,3.7816,3.7785,3.5486,3.2468,3.2502,3.1258,3.0172,3.2911,3.3168,3.2728,3.4015,3.4106,3.3854,3.4158,3.5792,3.7805,3.9381,4.2196,4.4831,4.5787,4.7277,4.8237,4.7684,4.7594,4.7188,4.5752,4.5494,4.5511,4.5511,4.6371,4.6677,4.5656,4.5776,4.5708,4.5019,4.5879,4.6342,4.5837,4.724,4.8875,5.0567,5.0702,5.0683,5.0644,5.0644,5.024,4.9394,4.9336,4.8933,4.8105,4.7278,4.6874,4.6894,4.6009,4.5586,4.5586,4.5586,4.5586,4.5586,4.5586,4.5586,4.5586,4.5586,4.5586,4.5586,4.5586,4.568,4.5796,4.5796,4.5851,4.5939,0.0,0.0,0.0,0.0,0.0,0.0,0.0,0.0,0.0,0.0,0.0,0.0,0.0,0.0,0.0,0.0,2.0188,2.1557,2.4048,2.6071,2.8625,3.1889,3.4221,3.6309,3.8127,3.8991,3.9915,4.0927,4.2406,4.3236,4.353,4.4932,4.5586,4.5586,4.5586,4.5586,4.5586,4.5586,4.5586,4.5507,4.4405,4.3667,4.2871,3.9495,3.6849,3.4623,0.0,3.0694,2.9438,2.8166,2.7791,2.812,2.972,2.9941,2.9983,3.1856,3.3077,3.4287,3.656,3.8913,4.1214,4.3351,4.5485,4.7492,4.8912,4.9255,4.9026,4.8242,4.8115,4.7307,4.4839,4.4991,4.5407,4.5187,4.6248,4.7173,4.7325,4.6522,4.5931,4.5956,4.6307,4.6546,4.6588,4.7509,4.8567,4.9625,4.9798,5.0087,5.0664,5.0702,5.0567,5.026,4.9702,4.9529,4.9817,4.8413,4.799,4.8548,4.7682,4.6682,4.5605,4.6201,4.6144,4.5586,4.5586,4.5586,4.5586,4.5586,4.5586,4.5605,4.5699,4.5757,4.5815,4.595,4.6009,4.605,0.0,0.0,0.0,0.0,0.0,0.0,0.0,0.0,0.0,0.0,0.0,0.0,0.0,0.0,0.0,0.0,0.0,2.0733,2.225,2.4221,2.6356,2.867,3.121,3.3299,3.4819,3.5985,3.7048,3.8038,3.9541,4.0403,4.0641,4.2492,4.3297,4.3242,4.3934,4.4187,4.4076,4.4091,4.3692,4.2948,4.1581,4.0396,3.9088,3.577,3.3296,0.0,2.8401,2.714,2.6636,2.5392,2.5614,2.6543,2.7269,2.8479,2.9935,3.1502,3.3732,3.6308,3.9202,4.1748,4.4081,4.6232,4.8184,4.9829,5.0629,5.0391,4.9808,4.9058,4.8581,4.7348,4.4267,4.3679,4.383,4.4484,4.5108,4.6055,4.7622,4.6728,4.6212,4.7,4.684,4.6891,4.749,4.7912,4.849,4.9279,4.9683,5.0221,5.1087,5.1125,5.1125,5.1125,5.0587,5.0414,5.0702,4.9279,4.8682,4.8933,4.8375,4.7394,4.6086,4.6951,4.6874,4.6067,4.6067,4.6065,4.6046,4.5738,4.5624,4.5719,4.6103,4.6313,4.6425,4.6862,4.6859,4.6582,0.0,0.0,0.0,0.0,0.0,0.0,0.0,0.0,0.0,0.0,0.0,0.0,0.0,0.0,0.0,0.0,0.0,0.0,2.0338,2.1359,2.2704,2.4394,2.696,2.8839,2.9799,3.1425,3.2665,3.3557,3.4607,3.5404,3.6018,3.8105,3.8935,3.8773,4.0617,4.1281,4.0978,4.1052,4.0005,3.8253,3.7376,3.5639,3.3306,3.1564,2.9769,2.7994,2.626,2.5004,2.4208,2.4245,2.4854,2.5669,2.5949,2.8938,3.2474,3.3168,3.6188,3.9749,4.1946,4.4272,4.6487,4.8088,5.0245,5.1738,5.1069,5.0853,5.06,5.0031,4.8857,4.6966,0.0,0.0,4.1061,4.3436,4.3238,4.386,4.6818,4.6617,4.6699,0.0,0.0,0.0,0.0,0.0,4.8739,4.9605,5.0337,5.1068,5.1875,5.1952,5.1972,5.1972,5.1933,5.1529,5.076,4.9894,4.9029,4.8163,4.8221,4.7798,4.699,4.7798,4.774,4.6971,4.6971,4.6969,4.6891,4.6065,4.5796,4.5988,4.6827,4.7284,4.7554,4.84,4.8262,4.7558,0.0,0.0,0.0,0.0,0.0,0.0,0.0,0.0,0.0,0.0,0.0,0.0,0.0,0.0,0.0,0.0,0.0,0.0,1.8705,1.9525,2.0757,2.2446,2.4317,2.6372,2.8654,2.9715,3.1054,3.271,3.3572,3.4094,3.4257,3.5465,3.5983,3.5945,3.6441,3.6612,3.6537,3.6554,3.6272,3.5704,3.4226,3.3109,3.203,2.9135,2.7624,2.6809,2.517,2.4431,2.4301,2.4892,2.6698,2.8913,3.0209,3.233,3.4851,3.7337,3.9878,4.238,4.4761,4.6977,4.8972,5.0643,5.1083,5.1371,5.2339,5.1371,4.9921,4.8948,4.5645,4.2084,3.9239,3.9588,4.0826,4.2448,4.451,4.6669,4.8691,4.9297,0.0,5.0026,0.0,4.8965,4.9413,4.9355,4.9682,5.0721,5.0933,5.1299,5.201,5.2664,5.2951,5.2876,5.2241,5.1798,5.1606,5.0779,4.9933,4.9086,4.9721,4.924,4.7817,4.8682,4.8606,4.7798,4.7798,4.7797,4.7776,4.7544,4.7467,4.7554,4.7973,4.8181,4.8263,4.8688,4.873,4.8535,0.0,0.0,0.0,0.0,0.0,0.0,0.0,0.0,0.0,0.0,0.0,0.0,0.0,0.0,0.0,0.0,0.0,0.0,0.0,1.8511,1.936,2.064,2.1906,2.3289,2.4838,2.6042,2.7009,2.7751,2.8985,2.9564,2.9504,3.0899,3.1762,3.2129,3.2971,3.3276,3.3162,3.318,3.2638,0.0,0.0,2.9307,2.8334,2.647,2.5668,2.5413,2.4519,2.5095,2.6447,0.0,0.0,3.1408,3.4298,3.6236,3.8079,4.1206,0.0,4.5331,4.7537,4.9473,5.1045,5.1807,5.1408,5.0735,5.0563,4.9499,4.8104,4.6526,4.2928,3.9148,3.6193,3.7441,3.946,0.0,0.0,0.0,4.8636,4.9426,5.0232,0.0,5.1058,0.0,5.1414,5.1399,5.1643,5.2375,5.1936,5.2098,5.3196,5.3687,5.3914,5.378,5.2991,5.2222,5.1471,5.0952,5.0452,4.9971,5.0471,4.999,4.8702,4.9567,4.949,4.8663,4.8721,4.872,4.8643,4.8332,4.8197,4.8195,4.8347,4.8479,4.8613,4.8769,4.8848,4.8906,0.0,0.0,0.0,0.0,0.0,0.0,0.0,0.0,0.0,0.0,0.0,0.0,0.0,0.0,0.0,0.0,0.0,0.0,0.0,0.0,1.8465,1.9253,1.9954,2.0388,2.0495,2.2025,2.2557,2.1968,2.3656,2.4377,2.4246,2.604,2.7266,2.8027,2.9734,3.0349,3.0091,3.0129,2.9057,2.7302,2.6567,2.5447,2.419,0.0,2.419,2.419,2.419,2.606,2.8795,0.0,3.2061,3.3996,3.808,4.0368,4.2068,4.4995,4.696,4.8529,5.0168,5.1671,5.2651,5.226,5.1397,5.0135,4.8344,4.6636,4.469,4.2103,3.957,3.6964,3.41,3.544,3.7716,3.99,0.0,4.3864,4.7921,4.8563,4.9769,5.2916,5.2642,5.2569,5.3569,5.3624,5.3747,5.412,5.3245,5.3302,5.4667,5.4862,5.482,5.4568,5.3937,5.2801,5.1106,5.1068,5.0952,5.0721,5.0818,5.0414,4.9606,5.0356,5.0279,4.9567,4.9702,4.9682,4.9565,4.889,4.8622,4.8625,4.8645,4.8793,4.8992,4.9003,4.9101,4.9219,0.0,0.0,0.0,0.0,0.0,0.0,0.0,0.0,0.0,0.0,1.4399,1.4554,0.0,0.0,0.0,0.0,0.0,0.0,0.0,0.0,0.0,1.9253,1.943,1.981,2.0495,2.1489,2.2263,2.2793,2.3768,2.4227,2.4208,2.4579,2.4892,2.5214,2.5561,2.5759,2.585,2.5688,2.5409,2.5049,2.4742,2.4448,2.419,2.419,0.0,0.0,2.419,2.5003,2.6827,3.1996,3.5808,3.8823,4.1132,4.4135,4.7165,4.9159,5.0678,5.187,5.2499,5.3142,5.3511,5.3096,5.1397,5.0204,5.1775,4.5204,0.0,3.2522,3.2485,3.3146,3.2577,3.4651,3.7202,3.957,4.1827,4.4709,4.8783,4.9939,5.1206,0.0,5.3264,5.3253,5.3868,5.3732,5.3962,5.4843,5.4822,5.4846,5.5037,5.5707,5.5724,5.4855,5.4719,5.3819,5.2069,5.2646,5.2242,5.0875,5.1433,5.126,5.0471,5.0625,5.0606,5.0471,5.0491,5.0559,5.0632,5.0389,5.0279,5.0279,5.0414,5.0486,5.053,5.0633,5.0723,5.0801,0.0,0.0,0.0,0.0,0.0,0.0,0.0,1.3783,1.3969,1.4175,1.4375,1.4488,1.4488,1.557,0.0,0.0,0.0,0.0,0.0,0.0,0.0,0.0,1.9075,1.9182,1.9702,2.0788,2.1384,2.1534,0.0,2.3412,2.3584,2.3584,2.3915,2.4489,2.4497,2.454,2.4633,2.4655,2.4542,2.4357,2.4358,2.4284,2.419,0.0,0.0,0.0,0.0,0.0,0.0,3.0478,3.4797,3.9477,4.3285,4.617,4.8531,5.045,5.2088,5.3378,5.378,5.4325,5.4466,5.3212,5.0904,4.8697,4.7756,0.0,0.0,0.0,3.065,3.1531,3.21,3.4082,0.0,3.8303,4.0322,4.3039,4.7095,4.8379,4.9932,5.2846,5.3601,5.4107,5.4617,5.4822,5.5186,5.5721,5.5898,5.5921,5.5775,5.6116,5.5898,5.503,5.4934,5.4304,5.3088,5.3359,5.2843,5.1529,5.1857,5.1549,5.0702,5.0702,5.0702,5.0702,5.0769,5.08,5.0803,5.0797,5.076,5.0664,5.0279,5.0164,5.0181,4.9795,4.9985,5.047,0.0,0.0,0.0,0.0,0.0,0.0,0.0,1.3741,1.3913,1.411,1.4307,1.4453,1.4506,1.5215,1.538,0.0,0.0,0.0,0.0,0.0,0.0,0.0,0.0,0.0,0.0,0.0,0.0,2.0113,2.1554,0.0,0.0,0.0,0.0,0.0,2.4153,2.4253,2.4301,2.461,2.4551,0.0,0.0,2.4339,0.0,0.0,0.0,0.0,0.0,0.0,0.0,0.0,3.2269,3.7199,4.219,4.5672,4.8262,4.9726,5.1947,5.4107,5.5049,5.5627,5.545,5.3256,5.056,4.7202,4.2592,3.8364,0.0,3.1262,3.054,3.0815,3.1843,3.3385,3.511,0.0,3.8432,4.0836,4.5057,4.6489,4.8439,0.0,5.3646,0.0,5.5088,5.5734,5.6178,5.6278,5.6463,5.6523,5.6445,5.6333,5.6025,5.5429,5.5322,5.4898,5.4121,5.3991,5.334,5.2198,5.2144,5.1607,5.0741,5.0702,5.0702,5.0702,5.0813,5.08,5.0702,5.0818,5.0818,5.0625,4.9952,4.974,4.976,4.9067,4.9298,4.9987,0.0,0.0,0.0,0.0,0.0,0.0,0.0,1.3542,1.3691,1.3913,1.4092,1.4295,1.4476,1.5215,1.538,0.0,0.0,0.0,0.0,0.0,0.0,0.0,0.0,0.0,0.0,0.0,0.0,1.9852,2.0945,0.0,0.0,0.0,0.0,0.0,0.0,2.3487,2.3639,2.4267,0.0,0.0,0.0,0.0,0.0,0.0,0.0,0.0,0.0,0.0,0.0,0.0,0.0,3.1436,3.4539,4.0877,4.7085,4.6554,0.0,0.0,5.7131,5.7324,5.6206,5.3757,5.0916,4.7034,4.0522,0.0,3.4556,3.1299,3.0411,3.0485,3.1311,3.221,3.3623,3.6009,3.7147,3.9368,4.414,4.614,4.8324,5.1673,0.0,0.0,5.456,5.5396,5.5924,5.5954,5.6246,5.6465,5.6582,5.6562,5.652,5.6458,5.6442,5.6034,5.5176,5.5038,5.4118,5.2453,5.2211,5.1664,5.0895,5.076,5.0702,5.0683,5.0702,5.0721,5.0702,5.0702,5.0702,5.0683,5.0606,5.0587,5.0587,5.051,5.0529,5.0625,0.0,0.0,0.0,0.0,0.0,0.0,1.3396,1.3509,1.3661,1.3867,1.4083,1.4282,1.4476,1.4793,1.4812,0.0,0.0,0.0,0.0,0.0,0.0,0.0,0.0,0.0,0.0,0.0,1.9133,1.8906,2.0202,0.0,0.0,0.0,0.0,0.0,0.0,2.2995,2.3258,2.4116,0.0,0.0,0.0,0.0,0.0,0.0,0.0,0.0,0.0,0.0,2.395,0.0,0.0,0.0,2.8929,3.3649,0.0,0.0,4.7526,5.2032,5.5126,5.6626,5.6684,5.3926,5.0717,4.6786,4.1369,0.0,3.3825,3.1562,3.0228,2.9732,3.0522,3.1329,3.2522,3.4486,3.5055,3.6798,4.1185,4.2484,4.4636,4.9221,5.1139,5.2709,5.4358,5.5116,5.5689,5.6039,5.6199,5.6297,5.6361,5.6512,5.6601,5.6601,5.6601,5.6395,5.5961,5.5384,5.4424,5.3028,5.2389,5.1645,5.0779,5.0721,5.0702,5.0702,5.0702,5.0702,5.0644,5.0144,4.9933,4.9913,4.9933,4.9586,4.926,5.0298,5.0375,4.999,0.0,0.0,0.0,0.0,0.0,1.3446,1.3413,1.3478,1.3619,1.3798,1.3983,1.4188,1.4387,1.4464,1.4399,1.4121,0.0,0.0,0.0,0.0,0.0,0.0,0.0,0.0,0.0,0.0,1.7902,1.7841,1.8957,1.9742,0.0,0.0,2.0376,2.0604,0.0,0.0,0.0,0.0,0.0,0.0,0.0,0.0,0.0,0.0,0.0,0.0,0.0,0.0,0.0,0.0,0.0,0.0,0.0,0.0,0.0,0.0,4.4063,4.903,5.1907,5.4726,5.6238,5.3585,5.0116,4.6206,0.0,0.0,3.3117,3.1391,2.9953,2.9255,3.0063,3.0852,3.1843,3.322,3.3844,3.5422,3.9038,4.0142,4.2247,4.683,0.0,5.0787,5.3292,5.467,5.5588,5.6032,5.609,5.6117,5.6107,5.6348,5.6508,5.6543,5.6532,5.6375,5.6016,5.5112,5.413,5.3051,5.2165,5.1395,5.076,5.0721,5.0702,5.0683,5.0433,5.0452,5.0606,4.949,4.9182,4.9394,4.9317,4.8913,4.8548,5.0106,5.0106,4.9413,0.0,0.0,0.0,0.0,0.0,0.0,1.343,1.3396,1.3462,1.3586,1.3766,1.3983,1.4175,1.4375,1.435,1.3935,0.0,0.0,0.0,0.0,0.0,0.0,0.0,0.0,0.0,0.0,1.5987,1.6714,1.6989,1.7499,1.8226,1.8491,1.8639,1.8676,0.0,0.0,0.0,0.0,0.0,0.0,0.0,0.0,0.0,0.0,0.0,0.0,0.0,0.0,0.0,0.0,0.0,0.0,0.0,0.0,2.7635,3.247,3.9374,4.5872,4.7842,5.1682,5.4612,5.2533,4.9195,4.5259,4.0914,3.6369,3.256,3.0594,2.9586,2.9255,3.0063,3.0852,3.1659,3.2485,3.3945,3.5852,3.8358,4.027,4.2314,0.0,4.6887,4.8937,5.1028,5.3937,5.5703,5.5703,5.5818,5.5917,5.5898,5.609,5.6267,5.6406,5.6407,5.5978,5.5133,5.4129,5.3184,5.23,5.1356,5.0914,5.0895,5.076,5.0702,5.0644,4.9779,4.9894,5.0567,4.8836,4.8605,4.9354,4.9105,4.9009,4.9124,5.0279,4.9971,4.9163,0.0,0.0,0.0,0.0,0.0,0.0,0.0,1.3445,1.365,1.433,1.4011,1.4021,1.4854,1.4446,1.4051,1.3902,0.0,0.0,0.0,0.0,0.0,0.0,0.0,0.0,0.0,0.0,1.5696,1.595,1.6526,1.7199,1.7936,1.8018,1.8147,1.8366,1.9442,2.0027,0.0,0.0,0.0,0.0,0.0,0.0,0.0,0.0,0.0,0.0,0.0,0.0,0.0,0.0,0.0,0.0,0.0,0.0,0.0,2.8276,3.3574,0.0,4.2268,4.5096,4.6869,4.5401,4.3293,4.0728,3.7337,3.4171,3.161,3.0436,2.9567,2.9255,3.0063,3.0852,3.1843,3.3201,3.4816,3.6406,3.7878,0.0,0.0,4.4822,4.881,5.1859,5.3316,5.4562,5.5399,5.5662,5.5742,5.5761,5.5761,5.5397,5.5236,5.5372,5.5372,5.4913,5.3957,5.3031,5.2376,5.203,5.1164,5.076,5.076,5.0721,5.0702,5.0683,5.0414,5.0452,5.0548,4.8817,4.8606,4.9278,4.8048,4.7567,4.774,4.926,4.8856,4.7875,0.0,0.0,0.0,0.0,0.0,0.0,0.0,1.3494,1.3616,1.4195,1.4141,1.4216,1.4618,1.4444,1.417,1.381,0.0,0.0,0.0,0.0,0.0,0.0,0.0,0.0,0.0,1.4435,1.5036,1.5608,1.6064,1.68,1.7811,1.7811,1.7945,1.8231,1.8912,1.9395,0.0,0.0,0.0,0.0,0.0,0.0,2.3765,0.0,0.0,0.0,0.0,0.0,0.0,0.0,0.0,0.0,0.0,0.0,0.0,0.0,2.8602,3.2732,0.0,3.9639,4.1128,4.0374,3.896,0.0,3.4659,3.2467,3.0723,2.9916,2.9342,2.914,2.9659,3.065,3.1715,3.2724,3.4383,3.5963,3.7158,0.0,0.0,4.4892,4.8983,5.1974,5.308,5.4353,5.5148,5.5239,5.5241,5.5107,5.4761,5.4357,5.4033,5.3785,5.4148,5.3875,5.2916,5.2319,5.1838,5.1433,5.0606,5.0202,5.0202,4.9875,4.9894,5.0183,4.9856,5.0087,0.0,4.849,4.8336,4.926,4.7894,4.7182,4.7105,4.8779,4.8336,4.7221,0.0,0.0,0.0,0.0,0.0,0.0,0.0,0.0,1.3447,1.3549,1.4264,1.452,1.3844,1.4488,1.4605,1.3676,0.0,0.0,0.0,0.0,0.0,0.0,0.0,0.0,1.4417,1.3752,1.4109,1.5521,1.5627,1.6411,1.78,1.7879,1.8046,1.8286,1.8258,1.8542,0.0,0.0,0.0,0.0,0.0,0.0,0.0,0.0,0.0,0.0,0.0,0.0,0.0,0.0,0.0,0.0,0.0,0.0,0.0,0.0,0.0,0.0,0.0,3.4871,3.6707,3.6707,3.5605,3.4073,3.254,3.1109,0.0,2.909,2.8957,2.9049,2.9214,3.043,3.1476,3.1696,3.3364,3.5087,3.6516,3.8572,0.0,0.0,4.7915,4.9956,5.0894,5.3399,5.4811,5.4487,5.4434,5.4049,5.3241,5.3145,5.2741,5.1933,5.2742,5.282,5.2011,5.1895,5.1433,5.0683,4.9817,4.9433,4.9452,4.8529,4.8606,4.9433,4.8567,4.9106,5.0414,4.8048,4.8009,4.9317,4.8432,4.7682,4.7278,4.8836,4.8375,4.724,0.0,0.0,0.0,0.0,0.0,0.0,0.0,0.0,0.0,0.0,1.477,1.4758,1.5314,1.4916,1.4332,0.0,0.0,0.0,0.0,0.0,0.0,0.0,0.0,0.0,1.365,1.3481,1.3837,1.476,1.5883,1.6894,1.7815,1.858,1.897,1.9026,1.8871,1.8966,0.0,0.0,0.0,0.0,0.0,0.0,0.0,0.0,0.0,0.0,2.2968,2.3402,0.0,0.0,0.0,0.0,0.0,0.0,0.0,0.0,2.4337,2.4777,2.6098,0.0,2.9163,2.9163,2.9329,2.9237,0.0,2.8686,2.9053,2.8246,0.0,2.9544,3.1421,3.1568,3.221,3.4743,3.6545,3.7711,3.782,4.1069,0.0,4.5407,4.862,5.07,5.0614,5.2446,5.3746,5.3945,5.3689,5.3414,5.3222,5.2568,5.2125,5.1914,5.1529,5.1241,5.1029,5.0991,5.0894,5.0683,4.9817,4.974,5.0337,4.8798,4.8933,5.0337,4.9471,4.9336,4.9663,4.9067,4.9048,4.9317,4.8432,4.8394,4.8856,4.9259,4.874,4.8047,0.0,0.0,0.0,0.0,0.0,0.0,0.0,0.0,0.0,0.0,0.0,0.0,0.0,0.0,0.0,0.0,0.0,0.0,0.0,0.0,0.0,0.0,0.0,1.3396,1.3396,1.3396,1.3939,1.4998,1.6138,1.7337,1.8559,1.9047,1.944,1.9694,1.9307,1.9152,0.0,0.0,0.0,0.0,2.0868,0.0,0.0,0.0,0.0,0.0,2.2792,2.3359,0.0,2.399,2.4051,2.419,0.0,0.0,0.0,0.0,2.419,2.419,2.419,2.5364,2.6704,2.7053,2.7475,2.7769,2.7732,0.0,0.0,0.0,0.0,2.9507,3.1201,3.1439,3.2159,3.4451,3.6272,3.7935,0.0,0.0,4.4177,4.5963,4.8452,5.0186,5.0459,5.2155,5.307,5.2679,5.2609,5.2452,5.2068,5.1606,5.1164,5.0779,5.0337,5.0298,5.0702,5.0702,5.0702,5.0683,4.9817,4.9644,5.0048,4.8336,4.849,5.0029,4.8798,4.8682,4.9336,4.8567,4.8471,4.8721,4.7875,4.8067,4.8798,4.8797,4.8509,4.8297,0.0,0.0,0.0,0.0,0.0,0.0,0.0,0.0,0.0,0.0,0.0,0.0,0.0,0.0,0.0,0.0,0.0,0.0,0.0,0.0,0.0,0.0,0.0,1.3447,1.3583,1.3464,1.4124,1.5595,1.6452,1.7731,1.9401,1.9594,1.9903,2.0215,1.9586,1.9216,0.0,0.0,0.0,0.0,2.0028,0.0,0.0,0.0,0.0,0.0,0.0,0.0,0.0,2.419,2.419,2.419,2.419,0.0,0.0,0.0,0.0,0.0,2.4355,2.5731,2.72,2.7383,2.7622,2.7952,2.8521,0.0,0.0,0.0,0.0,0.0,0.0,3.1126,0.0,3.3327,3.519,0.0,4.1325,4.239,4.3758,4.6329,4.8064,4.9305,5.0034,5.1712,5.2322,5.1288,5.1469,5.1297,5.0529,5.0491,5.0087,4.9221,4.9202,4.9548,5.0298,5.0433,5.0567,5.0683,4.9817,4.9394,4.9336,4.7663,4.774,4.9125,4.7567,4.7721,4.8913,4.7625,4.7413,4.7875,4.7451,4.7702,4.8298,4.8297,4.8298,4.8394,0.0,0.0,0.0,0.0,0.0,0.0,0.0,0.0,0.0,0.0,0.0,0.0,0.0,0.0,0.0,0.0,0.0,0.0,0.0,0.0,0.0,1.3396,1.3396,1.3684,1.4327,1.3718,1.4124,1.5595,1.6959,1.8255,1.9425,2.0885,2.1184,2.0429,1.9656,1.9274,1.9261,0.0,0.0,0.0,1.9436,0.0,0.0,0.0,0.0,0.0,0.0,0.0,0.0,2.419,2.419,2.419,2.419,0.0,0.0,0.0,0.0,0.0,2.5035,2.7383,2.9017,2.6431,2.6778,2.764,0.0,0.0,0.0,0.0,0.0,0.0,0.0,3.234,3.3404,0.0,0.0,4.0395,4.4234,4.4988,4.5348,4.5821,4.8225,4.9361,4.8258,4.9725,5.0767,5.0786,5.052,5.0144,4.9644,4.9606,4.9202,4.8336,4.8298,4.8355,4.8509,4.9221,4.9971,5.0683,4.9817,4.9394,4.9336,4.7663,4.7413,4.8259,4.7317,4.7048,4.7317,4.774,4.7586,4.7221,4.8509,4.9086,4.9202,4.9202,4.9202,4.9106,0.0,0.0,0.0,0.0,0.0,0.0,0.0,0.0,0.0,0.0,0.0,0.0,0.0,0.0,0.0,0.0,0.0,0.0,0.0,0.0,0.0,1.3971,1.3988,1.4157,1.4477,1.4563,1.5124,1.6187,1.7415,1.8792,2.029,2.1388,2.1096,1.9679,1.9426,1.9227,1.915,1.9243,1.9305,1.9305,0.0,0.0,0.0,0.0,0.0,0.0,0.0,0.0,0.0,0.0,2.3841,2.419,2.419,0.0,0.0,0.0,0.0,0.0,2.4649,2.6778,2.8539,2.7053,2.8558,3.0063,0.0,0.0,0.0,0.0,0.0,0.0,0.0,0.0,3.5256,3.807,3.9652,4.1511,4.4517,4.4652,4.4925,4.6143,4.8142,4.9116,4.8311,4.9822,5.0545,4.9776,4.9955,4.9801,4.9113,4.9278,4.8798,4.749,4.7451,4.7451,4.7451,4.7855,4.8471,4.9298,4.8894,4.8702,4.8663,4.7451,4.7336,4.8029,4.6759,4.6471,4.6894,4.6797,4.6528,4.6259,4.7048,4.7625,4.8105,4.8529,4.8702,4.8643,0.0,0.0,0.0,0.0,0.0,0.0,0.0,0.0,0.0,0.0,0.0,0.0,0.0,0.0,0.0,0.0,0.0,0.0,0.0,0.0,1.4157,1.4733,1.4936,1.502,1.502,1.5392,1.6075,1.7037,1.7828,1.9181,2.1075,2.1352,2.0729,1.9357,1.9273,1.915,1.9001,1.9166,1.9246,1.9227,0.0,0.0,0.0,0.0,0.0,0.0,0.0,0.0,0.0,0.0,0.0,0.0,0.0,0.0,0.0,2.419,2.419,2.4245,2.4428,2.6098,2.775,2.7567,0.0,0.0,0.0,0.0,0.0,0.0,0.0,0.0,0.0,3.4848,0.0,4.0251,4.117,4.2303,4.4756,4.4434,4.4722,4.6802,4.7993,4.8564,4.847,4.9804,5.0065,4.8729,4.9173,4.9138,4.8257,4.8522,4.8049,4.6644,4.6605,4.6605,4.6605,4.6605,4.7105,4.8105,4.8105,4.8009,4.7798,4.7182,4.7124,4.7432,4.6163,4.597,4.6547,4.5874,4.5586,4.5605,4.5817,4.6317,4.6971,4.7586,4.7834,4.7775,0.0,0.0,0.0,0.0,0.0,0.0,0.0,0.0,0.0,0.0,0.0,0.0,0.0,0.0,0.0,0.0,0.0,0.0,0.0,0.0,1.546,1.5511,1.6191,1.6546,1.6546,1.5917,1.643,1.808,1.8153,1.9263,2.1272,2.0805,2.0521,2.0342,1.9429,1.9001,1.8984,1.9036,1.9018,1.9035,1.9212,0.0,0.0,0.0,0.0,0.0,0.0,0.0,0.0,0.0,0.0,0.0,0.0,0.0,2.419,2.419,2.419,2.4355,2.5127,2.6521,2.7622,2.6869,2.8539,0.0,3.3054,3.2963,0.0,3.5385,0.0,0.0,0.0,3.5401,3.724,4.0377,4.1647,4.325,4.621,4.6007,4.6109,4.7648,4.7803,4.7753,4.7696,4.8317,4.8466,4.7824,4.7844,4.7484,4.6523,4.6514,4.6278,4.572,4.5682,4.5682,4.5682,4.5682,4.649,4.8105,4.8105,4.7721,4.699,4.6932,4.649,4.5759,4.5643,4.5624,4.5682,4.5624,4.5586,4.5682,4.649,4.6836,4.6913,4.6971,4.6989,4.6872,0.0,0.0,0.0,0.0,0.0,0.0,0.0,0.0,0.0,0.0,0.0,0.0,0.0,0.0,0.0,0.0,0.0,0.0,0.0,1.6001,1.5798,1.6275,1.6563,1.7003,1.7631,1.7374,1.7535,1.8187,1.9043,1.965,2.0057,2.036,2.0077,1.9327,1.9228,1.9016,1.877,1.9049,1.9198,1.9198,1.9259,1.9968,0.0,0.0,0.0,0.0,0.0,0.0,0.0,0.0,2.3786,2.419,2.419,2.419,2.419,2.419,2.419,2.4263,2.4557,2.619,2.7732,2.742,2.8778,0.0,0.0,3.4009,3.5312,3.6743,3.8469,0.0,0.0,0.0,4.0211,4.1998,4.2995,4.4331,4.6489,4.616,4.6231,4.7643,4.8153,4.8317,4.8179,4.8272,4.8078,4.7388,4.7125,4.6667,4.6019,4.6206,4.6086,4.5605,4.5586,4.5586,4.5586,4.5586,4.5913,4.6547,4.6547,4.6394,4.6086,4.6086,4.5913,4.5586,4.5586,4.5586,4.5586,4.5586,4.5586,4.5624,4.5951,4.6086,4.6086,4.6086,4.6103,4.6046,0.0,0.0,0.0,0.0,0.0,0.0,0.0,0.0,0.0,0.0,0.0,0.0,0.0,0.0,0.0,0.0,0.0,0.0,1.7033,1.6576,1.6525,1.7016,1.7033,1.7377,1.8061,1.8229,1.8371,1.845,1.9435,1.9711,1.9308,1.9858,1.9659,1.8825,1.9082,1.9016,1.8752,1.9066,1.9214,1.9232,1.9552,2.017,0.0,0.0,0.0,0.0,0.0,0.0,0.0,0.0,2.3749,2.419,2.419,2.419,2.419,2.419,2.419,2.419,2.419,2.5401,2.6778,2.7291,0.0,0.0,3.322,3.5275,3.7257,3.935,4.0354,4.0813,4.0682,0.0,4.1146,4.2504,4.3442,4.457,4.6218,4.5756,4.5785,4.7188,4.7512,4.7632,4.7767,4.7605,4.7223,4.6416,4.611,4.5761,4.5432,4.564,4.5712,4.5605,4.5586,4.5586,4.5586,4.5586,4.5586,4.5586,4.5586,4.5586,4.5586,4.5586,4.5586,4.5586,4.5586,4.5586,4.5586,4.5586,4.5586,4.5586,4.5586,4.5586,4.5586,4.5586,4.5586,4.5586,0.0,0.0,0.0,0.0,0.0,0.0,0.0,0.0,0.0,0.0,0.0,0.0,0.0,0.0,0.0,0.0,0.0,0.0,1.7811,1.7811,1.7811,1.7811,1.7811,1.7811,1.7811,1.833,1.8734,1.9001,1.9214,1.9305,1.9305,1.9305,1.9289,1.9289,1.9102,1.8984,1.9002,1.9001,1.9019,1.9108,2.0091,2.1033,2.1913,0.0,0.0,0.0,0.0,0.0,0.0,0.0,2.419,2.419,2.419,2.419,2.419,2.419,2.419,2.419,2.419,2.4208,2.4612,0.0,0.0,0.0,3.5385,3.6945,3.8872,4.3718,4.2377,4.0632,4.1527,3.9957,3.9312,4.1626,4.2791,4.3944,4.5483,4.4881,4.4906,4.6429,4.5666,4.5346,4.614,4.6004,4.5571,4.4764,4.4709,4.4642,4.461,4.458,4.4896,4.5568,4.5586,4.5586,4.5605,4.5605,4.5586,4.5586,4.5586,4.5586,4.5586,4.5586,4.5586,4.5586,4.5586,4.5586,4.5586,4.5586,4.5586,4.5586,4.5586,4.5586,4.5586,4.5586,4.5586,4.5586,0.0,0.0,0.0,0.0,0.0,0.0,0.0,0.0,0.0,0.0,0.0,0.0,0.0,0.0,0.0,0.0,0.0,0.0,1.7811,1.7811,1.7811,1.7811,1.7992,1.8082,1.8082,1.8622,1.8983,1.9214,1.9259,1.9305,1.9305,1.9305,1.9212,1.9084,1.9182,1.9134,1.9001,1.915,1.9543,2.0072,2.0376,2.1346,2.2666,0.0,0.0,0.0,0.0,0.0,0.0,0.0,0.0,0.0,2.419,2.419,2.419,2.419,2.419,2.419,2.419,2.5021,0.0,2.7901,0.0,0.0,0.0,3.8596,0.0,0.0,4.3042,4.2194,4.2441,4.2114,4.202,4.2662,4.351,4.4264,4.4812,4.5037,4.5265,4.5589,4.5775,4.5866,4.5988,4.5407,4.4966,4.4727,4.4176,4.397,4.4165,4.4175,4.4401,4.4877,4.4896,4.5011,4.5243,4.5243,4.5381,4.5586,4.5586,4.5586,4.5586,4.5586,4.5586,4.5586,4.5586,4.5586,4.5586,4.5586,4.5586,4.5586,4.5586,4.5586,4.5586,4.5586,4.5586,4.5586,0.0,0.0,0.0,0.0,0.0,0.0,0.0,0.0,0.0,0.0,0.0,0.0,0.0,0.0,0.0,0.0,0.0,0.0,0.0,1.7811,1.7811,1.7811,1.7949,1.8082,1.8187,1.8508,1.8789,1.9014,1.9212,1.9305,1.9305,1.9305,1.941,1.959,1.9389,1.941,1.9608,1.9721,2.006,2.0558,2.1218,2.2098,2.3015,0.0,0.0,0.0,0.0,0.0,0.0,0.0,0.0,0.0,2.419,2.419,2.419,2.419,2.419,2.419,2.419,2.5373,0.0,2.9401,3.2024,3.5118,3.9197,0.0,0.0,0.0,4.3511,4.2875,4.2952,4.2584,4.2472,4.3117,4.3614,4.397,4.4101,4.4544,4.4879,4.4763,4.4982,4.5219,4.5407,4.4709,4.4213,4.4213,4.3754,4.3646,4.3986,4.4016,4.4175,4.458,4.458,4.4757,4.5096,4.5096,4.5282,4.5586,4.5586,4.5586,4.5586,4.5586,4.5586,4.5586,4.5586,4.5586,4.5586,4.5586,4.5586,4.5586,4.5586,4.5586,4.5586,4.5586,4.5586,4.5586,0.0,0.0,0.0,0.0,0.0,0.0,0.0,0.0,0.0,0.0,1.9305,0.0,0.0,0.0,0.0,0.0,0.0,0.0,0.0,0.0,1.7811,1.7811,1.7811,1.7927,1.8187,1.8187,1.831,1.8566,1.9087,1.9316,1.9292,1.9405,1.9861,2.0466,1.9822,1.9932,2.0613,2.0613,2.0649,2.0851,2.2373,2.3033,2.3199,2.3914,0.0,0.0,0.0,0.0,0.0,0.0,0.0,0.0,2.419,2.419,2.419,2.419,2.4171,2.4171,2.4282,0.0,0.0,3.0675,3.4143,0.0,4.1537,4.3542,4.4635,4.4748,4.383,4.3058,4.3166,4.2033,4.1581,4.3071,4.3369,4.3403,4.3318,4.3742,4.4074,4.3978,4.3749,4.3864,4.4544,4.392,4.3497,4.3497,4.3497,4.3612,4.3924,4.3955,4.4117,4.4474,4.4501,4.4657,4.4988,4.5052,4.5222,4.5549,4.5586,4.5586,4.5586,4.5586,4.5586,4.5586,4.5586,4.5586,4.5586,4.5586,4.5586,4.5586,4.5586,4.5586,4.5586,4.5586,4.5586,4.5586,0.0,0.0,0.0,0.0,0.0,0.0,0.0,0.0,0.0,0.0,0.0,0.0,0.0,0.0,0.0,0.0,0.0,0.0,0.0,0.0,1.7811,1.7811,1.7811,1.7927,1.8187,1.8187,1.8229,1.829,1.9169,1.9416,1.9087,2.03,2.0752,2.0521,2.1033,2.1362,2.151,2.151,2.1877,2.2483,2.285,2.3382,2.3951,2.4135,2.419,0.0,0.0,0.0,0.0,0.0,0.0,0.0,2.419,2.419,2.419,2.419,2.4005,2.4005,2.4892,2.567,0.0,0.0,3.6248,4.0643,4.2766,4.3495,4.3621,4.3183,4.3868,4.4258,4.3358,4.2916,4.2666,4.2545,4.3031,4.3217,4.2625,4.3895,4.4509,4.3289,4.3912,4.4268,4.3791,4.3589,4.3497,4.3497,4.3497,4.3548,4.3597,4.3597,4.3664,4.3744,4.3744,4.3899,4.4214,4.4553,4.4872,4.5222,4.5457,4.5586,4.5586,4.5586,4.5586,4.5586,4.5586,4.5586,4.5586,4.5586,4.5586,4.5586,4.5586,4.5586,4.5586,4.5586,4.5586,4.5586,0.0,0.0,0.0,0.0,0.0,0.0,0.0,0.0,0.0,0.0,0.0,0.0,0.0,0.0,0.0,0.0,0.0,0.0,0.0,0.0,1.7811,1.7811,1.7811,1.8031,1.8528,1.8545,1.8716,1.9053,2.0112,2.0247,1.9578,2.0499,2.1188,2.1695,2.1767,2.2006,2.2373,2.2373,2.263,2.3015,2.3419,2.3823,2.419,2.419,2.419,2.419,2.419,0.0,0.0,0.0,0.0,0.0,0.0,0.0,2.419,2.419,2.4079,2.4018,2.4487,0.0,0.0,3.4174,0.0,4.2006,4.3206,4.3497,4.3422,4.3091,4.3695,4.4145,4.3588,4.2952,4.2597,4.2723,4.2515,4.2219,4.183,4.3145,4.366,4.2493,4.3425,4.3956,4.3534,4.3497,4.3497,4.3497,4.3497,4.3497,4.3497,4.3497,4.3497,4.3497,4.3497,4.3679,4.4016,4.3998,4.4378,4.5096,4.5016,4.5201,4.5586,4.5586,4.5586,4.5586,4.5586,4.5586,4.5586,4.5586,4.5586,4.5586,4.5586,4.5586,4.5586,4.5586,4.5586,4.5586,0.0,0.0,0.0,0.0,0.0,0.0,0.0,0.0,0.0,0.0,0.0,0.0,0.0,0.0,0.0,0.0,0.0,0.0,0.0,0.0,0.0,1.7997,1.8115,1.8494,1.9158,1.9104,1.9425,2.0085,2.0963,2.1083,2.0533,2.0897,2.1751,2.2978,2.2499,2.2628,2.3217,2.3235,2.3235,2.3272,2.3933,2.419,2.419,2.419,2.419,2.419,2.419,2.419,2.419,2.419,0.0,0.0,0.0,0.0,2.419,2.419,2.4153,2.4103,2.4013,0.0,3.0796,3.66,3.9882,0.0,4.2858,4.3185,4.3296,4.3293,4.3422,4.3504,4.3607,4.2709,4.2139,4.2718,4.2053,4.1376,4.1086,4.2213,4.2746,4.1899,4.281,4.3442,4.3296,4.3406,4.3424,4.3296,4.3406,4.3497,4.3497,4.3497,4.3497,4.3497,4.3369,4.341,4.3689,4.3286,4.3591,4.4573,4.425,4.447,4.5163,4.5163,4.524,4.5374,4.5528,4.5509,4.5374,4.5528,4.5586,4.5586,4.5586,4.5586,4.5586,4.5586,4.5586,4.5586,0.0,0.0,0.0,0.0,0.0,0.0,0.0,0.0,0.0,0.0,0.0,0.0,0.0,0.0,0.0,0.0,0.0,0.0,1.7833,0.0,0.0,1.8741,1.9384,1.9879,2.0275,2.0006,2.0057,2.0431,2.0517,2.1004,0.0,2.2836,2.317,2.3033,2.3799,2.4098,2.4062,2.4226,2.4209,2.4043,2.4153,2.419,2.419,2.419,2.419,2.419,2.419,2.419,2.419,2.419,2.419,0.0,0.0,0.0,2.419,2.419,2.3987,2.3967,0.0,0.0,3.1801,0.0,3.7339,3.9582,0.0,0.0,4.2457,4.2445,4.3015,4.3371,4.2937,4.2683,4.2287,4.1383,4.2037,4.2085,4.0492,4.2246,4.3202,4.1941,4.281,4.3222,4.2525,4.3075,4.3204,4.2506,4.3112,4.3497,4.3497,4.3497,4.3497,4.3497,4.2818,4.2485,4.2533,4.2352,4.234,4.2502,4.3025,4.3316,4.3431,4.3431,4.3816,4.4509,4.5259,4.5163,4.4528,4.5278,4.5586,4.5586,4.5586,4.5586,4.5586,4.5586,4.5586,4.5586,0.0,0.0,0.0,0.0,0.0,0.0,0.0,0.0,0.0,0.0,0.0,0.0,0.0,0.0,0.0,1.8623,1.8351,1.81,1.7833,1.8115,1.8285,1.8285,1.8606,1.9212,2.0216,2.006,2.0484,2.1516,2.1643,0.0,0.0,2.3382,2.3694,2.3694,2.4243,2.4393,2.4228,2.4526,2.4495,2.4209,2.4321,2.4303,2.419,2.419,2.419,2.419,2.419,2.419,2.419,2.419,2.419,2.419,2.419,0.0,0.0,0.0,2.4116,0.0,2.5689,2.7551,2.9945,0.0,3.5866,3.7872,3.9937,4.1061,4.165,4.1636,4.2264,4.2889,4.3096,4.2904,4.2548,4.1997,4.2136,4.2009,4.1157,4.2281,4.2954,4.2378,4.2995,4.3167,4.2378,4.2616,4.2488,4.1699,4.1974,4.2158,4.2158,4.2158,4.2158,4.2158,4.1809,4.1644,4.1644,4.1463,4.1575,4.1933,4.2234,4.2624,4.3085,4.2585,4.2835,4.3643,4.4028,4.397,4.3662,4.4047,4.4201,4.4201,4.4201,4.4201,4.4239,4.4701,4.4586,4.4335,0.0,0.0,0.0,0.0,0.0,0.0,0.0,0.0,0.0,0.0,0.0,0.0,0.0,0.0,0.0,0.0,1.8596,1.8232,1.8087,1.8268,1.843,1.8657,1.8657,1.929,2.0662,2.0425,2.0983,2.2398,0.0,0.0,2.3212,2.3477,2.3795,0.0,2.4461,2.4461,2.4303,2.4682,2.4651,2.4357,2.4528,2.4495,2.4358,2.4303,2.4266,2.4266,2.4209,2.419,2.419,2.419,2.419,2.419,2.419,2.419,0.0,0.0,0.0,0.0,0.0,0.0,2.7943,3.1403,3.3671,3.5645,0.0,3.9301,4.0222,4.0464,4.1309,4.2173,4.2779,4.2905,4.2876,4.2729,4.2261,4.1912,4.1817,4.2081,4.2283,4.235,4.2686,4.2561,4.1772,4.1882,4.1662,4.0873,4.0983,4.1111,4.1111,4.1111,4.1111,4.1111,4.091,4.0799,4.0799,4.0595,4.0791,4.1368,4.1437,4.1816,4.2412,4.1777,4.1816,4.245,4.2912,4.297,4.2797,4.3008,4.3104,4.3104,4.3104,4.3104,4.3162,4.3778,4.3624,4.3278,0.0,0.0,0.0,0.0,0.0,0.0,0.0,0.0,0.0,0.0,0.0,0.0,2.1213,2.0923,2.0633,2.0418,1.9273,1.8647,1.8839,1.9495,2.0247,2.1,2.1034,0.0,2.2531,2.1617,2.1651,2.2669,0.0,0.0,2.3189,2.3212,2.3566,2.4209,2.4607,2.467,2.4512,0.0,0.0,0.0,2.4775,2.4775,2.4746,2.4561,2.4478,2.4461,2.4266,2.419,2.419,2.419,2.419,2.419,2.419,2.419,2.419,0.0,0.0,0.0,0.0,2.5472,0.0,2.7853,2.9899,3.21,0.0,3.5983,3.7911,3.867,4.0084,4.1167,4.1213,4.2433,4.3304,4.2788,4.2468,4.2159,4.1831,4.145,4.1259,4.1431,4.1302,4.091,4.0102,4.0708,4.0836,4.001,4.0671,4.1111,4.1111,4.1111,4.1111,4.1111,4.0359,3.9955,3.9955,3.9743,3.9832,4.0196,4.0449,4.0585,4.0623,4.0585,4.0585,4.0719,4.2374,4.2624,4.1931,4.2758,4.3104,4.3104,4.3104,4.3104,4.3104,4.3143,4.3143,4.3104,0.0,0.0,0.0,0.0,0.0,0.0,0.0,0.0,0.0,0.0,0.0,0.0,0.0,2.1176,2.0948,2.0554,1.9182,1.8353,1.8456,1.8971,1.9418,1.9705,1.9705,2.0357,2.1712,2.0883,2.1078,2.2436,0.0,2.2624,2.3189,2.3189,2.3566,2.4209,2.4478,2.4578,2.451,2.4858,0.0,0.0,2.4891,2.4795,2.4591,2.4528,2.4743,2.5078,2.5,2.498,2.498,2.498,2.463,2.419,2.419,2.419,2.419,0.0,0.0,0.0,0.0,0.0,0.0,2.6695,2.8462,3.0155,3.1237,3.377,3.5844,3.5605,3.7276,3.8946,3.9473,4.0855,4.1889,4.1699,4.1565,4.1492,4.1361,4.1207,4.1137,4.1207,4.1159,4.0781,3.9974,4.0157,3.9992,3.9184,3.9405,3.957,3.957,3.9074,3.9019,3.9551,3.8781,3.8424,3.8609,3.8544,3.8501,3.8498,3.916,3.955,3.9738,4.0258,4.0489,4.0527,4.1162,4.1239,4.0989,4.1296,4.1431,4.1431,4.1431,4.1431,4.1489,4.2066,4.1912,4.1585,0.0,0.0,0.0,0.0,0.0,0.0,0.0,0.0,0.0,2.035,0.0,0.0,0.0,0.0,2.1706,2.0606,1.9647,1.9059,1.8949,1.916,1.9384,1.9655,1.9181,1.9604,2.117,2.0416,2.0745,2.231,2.231,2.2624,2.3189,2.3189,2.3566,2.4227,2.4339,2.4445,0.0,0.0,0.0,2.4818,2.4937,2.5002,2.5005,2.4922,2.5319,2.5852,2.5515,2.5586,2.575,2.5495,2.5217,2.4961,2.4685,2.441,0.0,0.0,0.0,0.0,2.419,0.0,0.0,0.0,2.6796,2.8007,2.8815,3.1072,3.3046,3.3348,3.4908,3.6578,3.7698,3.8781,3.9845,4.0928,4.0873,4.0799,4.1075,4.0634,4.0396,4.0671,4.0469,3.9992,3.9166,3.9331,3.9166,3.8358,3.856,3.8579,3.8303,3.7771,3.7606,3.7881,3.7367,3.7182,3.7357,3.7445,3.7446,3.7315,3.8004,3.8459,3.8741,3.9279,3.9749,4.0085,4.0085,4.0239,4.0489,4.0389,4.0372,4.0372,4.0372,4.0372,4.0449,4.1111,4.0989,4.0662,0.0,0.0,0.0,0.0,0.0,0.0,0.0,0.0,2.1254,2.0446,0.0,0.0,0.0,0.0,0.0,2.077,2.0804,2.078,2.0454,2.0159,2.0365,2.1136,1.9722,1.9638,2.117,2.0433,2.0779,2.231,2.231,2.2624,2.3189,2.3189,2.3566,2.419,2.4209,2.4321,2.451,0.0,2.4936,2.4856,2.4975,2.5416,2.5973,2.5758,2.6191,2.6748,2.5795,2.5952,2.6521,2.5713,2.597,2.6465,2.564,0.0,0.0,0.0,0.0,0.0,0.0,0.0,0.0,0.0,2.4795,2.5605,2.6355,2.7783,2.9617,3.1953,3.3091,3.4174,3.5844,3.6156,3.7202,4.0414,4.0286,4.0065,4.0855,3.9625,3.8927,3.9698,3.9093,3.8322,3.7533,3.8175,3.8303,3.7514,3.8193,3.8285,3.7496,3.7441,3.7074,3.6285,3.6285,3.6285,3.6266,3.6515,3.664,3.6628,3.6961,3.7297,3.7544,3.7583,3.8202,3.9242,3.9242,3.9665,4.038,4.0176,4.0101,4.0062,4.0101,4.0101,4.0101,4.0389,4.0489,4.0489,0.0,0.0,0.0,0.0,0.0,0.0,2.1293,2.1889,2.212,0.0,0.0,0.0,2.3687,2.3772,2.3491,2.2727,2.1937,2.1277,2.0802,2.0506,2.0343,2.0331,1.99,2.0179,2.1187,2.0974,2.1346,2.231,2.231,2.2624,2.3189,2.3189,2.3566,2.4209,2.4339,2.4444,2.4512,2.4588,2.5039,2.568,2.5706,2.5747,2.5777,2.5724,2.6116,2.6641,2.6358,2.6796,2.742,2.72,2.6906,2.6465,2.564,0.0,0.0,0.0,0.0,0.0,2.419,0.0,0.0,0.0,0.0,0.0,2.4942,2.6557,2.8154,2.8246,2.9365,3.0834,3.2449,3.2761,3.3623,3.6266,3.7037,3.7367,3.7606,3.7239,3.7055,3.7257,3.7092,3.6872,3.6652,3.6817,3.6872,3.6652,3.6835,3.6872,3.6633,3.6615,3.6248,3.5404,3.5973,3.6009,3.5385,3.5414,3.5269,3.4889,3.5628,3.6114,3.6385,3.703,3.7469,3.7794,3.7794,3.7908,3.8213,3.9547,3.9776,3.9299,3.9872,3.9738,3.9318,4.0194,4.0489,4.0489,0.0,0.0,0.0,0.0,0.0,2.2551,2.1674,2.259,2.309,0.0,0.0,0.0,2.4505,2.4413,2.4086,2.3547,2.2973,2.2356,2.1613,2.1317,2.1022,2.0678,2.0362,2.0517,2.1204,2.1204,2.1549,2.231,2.231,2.2544,2.2996,2.3141,2.3482,2.4016,2.4356,0.0,0.0,2.4495,2.5028,2.5839,2.5596,2.592,2.654,2.6188,2.6718,2.7567,2.7218,2.7622,2.8246,2.7915,2.7493,2.7016,2.6539,2.5841,0.0,2.4795,0.0,0.0,0.0,0.0,0.0,2.4281,0.0,0.0,2.43,2.5291,2.6355,2.6557,2.7365,2.8594,3.054,3.0632,3.1091,3.3164,3.3642,3.4357,3.6064,3.6303,3.6303,3.6303,3.6303,3.6156,3.5789,3.6083,3.6156,3.5789,3.6083,3.6138,3.5789,3.544,3.5018,3.4523,3.5,3.5018,3.4504,3.4504,3.4355,3.4043,3.4568,3.4926,3.5224,3.5713,3.6214,3.6661,3.6661,3.6871,3.7268,3.8272,3.8407,3.8048,3.8858,3.8896,3.862,3.987,4.0339,4.0356,0.0,0.0,0.0,2.0581,2.2013,2.2885,2.203,2.3295,2.4069,0.0,2.3783,2.4524,2.5226,2.5141,2.4669,2.3744,2.3936,2.3675,2.2723,2.2368,2.2011,2.1683,2.1016,2.0856,2.124,2.1324,2.1671,2.231,2.231,2.2453,2.2721,2.3045,2.3392,2.3714,2.4284,0.0,0.0,2.4575,2.5066,2.5798,2.5139,2.604,2.7714,2.6906,2.7548,2.8755,2.8062,2.8319,2.8906,2.8172,2.786,2.7787,2.7787,2.7255,2.6465,2.5731,2.6043,0.0,0.0,0.0,0.0,2.4392,2.4263,0.0,2.4226,2.4263,2.4704,2.6062,2.6337,2.7016,2.9255,2.9163,2.9274,3.087,3.0613,3.1494,3.522,3.5752,3.5752,3.5752,3.5752,3.5459,3.466,3.5312,3.544,3.4642,3.533,3.5459,3.4752,3.3972,3.3568,3.366,3.3587,3.3623,3.3807,3.3715,3.3678,3.3678,3.3678,3.3781,3.4022,3.4022,3.4633,3.5668,3.5668,3.6123,3.6801,3.6496,3.6454,3.6646,3.7466,3.7727,3.7804,3.925,3.9795,3.9872,0.0,0.0,2.2387,2.2387,2.3783,2.4645,2.3894,2.4616,2.4962,2.4144,2.4697,2.5236,2.5447,2.5321,2.5105,2.4745,2.4667,2.4377,2.3748,2.2946,2.2335,2.2011,2.1869,2.1692,2.1529,2.2116,2.2373,2.231,2.231,2.2453,2.2721,2.3045,2.3392,2.3735,2.4439,2.4746,0.0,2.5024,2.5836,2.681,2.5708,2.6293,2.7714,2.6906,2.72,2.8007,2.786,2.8319,2.8975,2.8833,2.8338,2.7787,2.7787,2.7255,2.6576,2.641,2.6484,2.6392,2.5419,2.5293,2.5219,2.4392,2.4685,0.0,2.4337,2.4685,2.5052,2.474,2.4667,2.5016,2.6117,2.6741,2.7603,2.9219,2.9879,3.0705,3.2137,3.2357,3.2357,3.2357,3.2357,3.2284,3.2118,3.2247,3.2284,3.2118,3.2247,3.2559,3.3054,3.2302,3.2173,3.2816,3.221,3.2485,3.3788,3.3164,3.2834,3.2834,3.2834,3.286,3.2919,3.2919,3.3386,3.4201,3.4201,3.4319,3.4467,3.4408,3.4907,3.5813,3.6609,3.6534,3.6104,3.7319,3.7908,3.8156,0.0,0.0,2.2761,2.2318,2.3678,2.4749,2.4394,2.5029,2.5418,2.5046,2.5296,2.5486,2.5457,2.539,2.5252,2.5022,2.4937,2.4762,2.4416,2.3859,2.3398,2.3048,2.2955,2.2736,2.2411,2.2606,2.2634,2.25,2.2377,2.2453,2.2721,2.3045,2.3392,2.3735,2.447,2.4804,2.4837,2.5519,2.6403,2.726,2.6145,2.6782,2.8319,2.7493,2.7695,2.8411,2.8411,2.8668,2.8994,2.8994,2.8741,2.8411,2.8411,2.8136,2.7732,2.7328,2.7493,2.7548,2.6337,2.6282,2.6392,2.5603,2.5401,0.0,0.0,2.4795,2.4795,2.4795,2.4483,2.4575,2.5768,2.5988,2.6521,2.8136,2.8741,2.9145,2.9549,3.0632,3.1237,3.0852,3.1146,3.1384,3.1384,3.1384,3.1384,3.1384,3.1384,3.1568,3.1971,3.1623,3.1568,3.199,3.1604,3.1788,3.2596,3.2192,3.2008,3.2008,3.2008,3.2008,3.2008,3.2008,3.2449,3.3201,3.3201,3.344,3.3807,3.3807,3.4142,3.4722,3.5555,3.5602,3.5403,3.6531,3.7039,3.7206,2.0996,0.0,2.2943,2.2265,2.3467,2.4559,2.4645,2.5203,2.5641,2.5691,2.5634,2.5544,2.5429,2.5418,2.5388,2.5306,2.5118,2.5025,2.5069,2.4764,2.4405,2.4118,2.3945,2.3696,2.3282,2.3021,2.2822,2.2695,2.2473,2.2473,2.2721,2.3045,2.3392,2.3735,2.4439,2.4836,0.0,2.5945,2.6822,2.759,2.6798,2.7513,2.8975,2.8169,2.8327,2.8994,2.8994,2.8994,2.8994,2.8994,2.8994,2.8994,2.8994,2.8994,2.8865,2.8227,2.8503,2.8663,2.7236,2.731,2.7567,2.6612,2.5988,2.5568,0.0,0.0,0.0,2.5072,2.4649,2.4593,2.5897,2.5731,2.5844,2.7126,2.7457,2.7512,2.7346,2.9145,3.0283,2.9806,3.0448,3.0944,3.0944,3.0797,3.0834,3.1146,3.087,3.0834,3.1146,3.1017,3.0999,3.1146,3.1017,3.1091,3.1384,3.1237,3.1164,3.1164,3.1164,3.1164,3.1164,3.1164,3.1604,3.2394,3.254,3.2981,3.3587,3.3733,3.3807,3.3862,3.4523,3.4752,3.4881,3.581,3.6186,3.6261,2.2882,2.3431,0.0,2.408,2.4781,2.5407,2.552,2.5624,2.5683,2.5702,2.5644,2.5579,2.5503,2.5437,2.5668,0.0,2.5551,2.5323,2.6079,2.5272,2.467,2.4459,2.4425,2.4174,2.3653,2.3628,2.33,2.2695,2.2669,2.2669,2.2721,2.3045,2.3392,2.3714,2.4284,2.5032,2.5876,2.6173,2.7063,2.8296,2.8169,2.8633,2.9258,2.8386,2.8445,2.8994,2.8994,2.8994,2.8994,2.8994,2.8994,2.8994,2.8994,2.8994,2.8975,2.8906,2.892,2.8792,2.7915,2.7732,2.7438,2.5935,2.5988,2.6098,2.4649,0.0,2.509,2.4447,0.0,2.4263,2.4447,0.0,0.0,2.5642,2.6264,2.6484,2.577,2.6521,2.7383,2.7989,2.8778,2.925,2.925,2.8631,2.8796,3.0228,2.8998,2.8833,3.0265,2.9659,2.9604,3.032,2.9641,2.9971,3.1384,3.0687,3.0338,3.0338,3.0338,3.0338,3.0338,3.0338,3.0779,3.1568,3.2302,3.2669,3.2797,3.3513,3.3807,3.3807,3.3899,3.3935,3.3954,3.4081,3.4289,3.4543,2.3173,2.4098,0.0,0.0,2.5039,2.5595,2.5681,2.5703,2.5703,2.5703,2.5684,2.5624,2.5572,0.0,0.0,0.0,0.0,2.539,2.5738,2.5246,2.4891,2.479,2.4604,2.4391,2.4174,2.386,2.3566,2.3277,2.2898,2.2797,2.2996,2.3141,2.3392,2.3714,2.4247,2.4729,2.5201,2.6344,2.7169,2.7792,2.8753,2.9323,2.9514,2.9043,2.8996,2.9225,2.9225,2.9134,2.8994,2.8994,2.9329,2.9622,2.914,2.9305,2.9604,2.9122,2.8994,2.892,2.8594,2.8833,2.8815,2.7181,2.7053,2.6869,2.5254,2.4795,2.474,2.4869,0.0,0.0,0.0,0.0,0.0,0.0,2.608,2.6319,2.5513,2.608,2.6557,2.641,2.753,2.8503,2.8938,2.8282,2.8264,2.942,2.8448,2.8301,2.9439,2.9177,2.914,2.9494,2.9177,2.9305,3.0008,2.9677,2.9512,2.9512,2.9512,2.9512,2.9512,2.9512,2.9953,3.0742,3.1549,3.2173,3.2669,3.3476,3.3807,3.3807,3.3807,3.3807,3.3807,3.3807,3.3876,3.3991,2.3862,0.0,0.0,0.0,2.5216,2.5623,2.5699,2.5703,2.5703,2.5703,2.5918,2.6035,2.5957,2.6178,0.0,0.0,2.5918,2.5765,2.5774,2.5335,2.5065,2.501,2.478,2.4588,2.4512,2.4117,2.386,2.3692,2.3212,2.3093,2.3346,2.3346,2.3522,2.3876,2.4469,2.4908,2.5257,2.6812,2.7577,2.7915,2.9189,2.9729,2.9746,2.9551,2.9513,2.9551,2.9494,2.9312,2.9112,2.9112,2.9453,2.9769,2.9177,2.9402,2.9769,2.9159,2.8994,2.8994,2.8994,2.9439,2.9494,2.786,2.7475,2.7108,2.5733,2.4962,2.4759,2.5548,2.5089,0.0,0.0,0.0,2.5329,2.5109,0.0,2.5988,2.5162,2.5566,2.5805,2.5439,2.6631,2.7695,2.8301,2.7603,2.7567,2.8594,2.7934,2.7915,2.8938,2.8994,2.8994,2.8994,2.8994,2.8994,2.8994,2.8994,2.8994,2.8994,2.8994,2.8994,2.8994,2.8994,2.9305,2.9934,3.0944,3.1733,3.2357,3.3385,3.3807,3.3807,3.3807,3.3807,3.3807,3.3807,3.3807,3.3807,2.5625,2.5605,0.0,0.0,0.0,2.5623,2.5699,2.5703,2.5703,2.5703,2.6426,2.6934,0.0,0.0,0.0,0.0,0.0,2.6657,2.6659,2.5803,2.5203,2.501,2.4998,2.4831,2.4512,2.4495,2.4211,2.3692,2.3671,2.3671,2.3692,2.3692,2.3858,2.4226,2.5017,2.591,2.6879,2.7718,2.8556,2.9339,2.9588,2.9813,2.9969,2.9782,2.9813,2.9954,2.9746,2.9551,2.9392,2.9392,2.9222,2.9012,2.8994,2.9012,2.9012,2.8994,2.8994,2.8994,2.8994,2.9012,2.8645,2.7053,2.6649,2.6429,2.5605,2.5384,2.5605,2.641,2.5915,2.5384,2.5403,2.5403,2.5164,2.4373,2.4905,0.0,0.0,2.4263,2.4557,2.5311,2.6135,2.6649,2.6686,2.5952,2.6137,2.7714,2.709,2.7346,2.892,2.8994,2.8994,2.8994,2.8994,2.8994,2.8994,2.8994,2.8994,2.8994,2.8994,2.8994,2.8994,2.8994,2.8994,2.9122,3.0705,3.1403,3.1549,3.3146,3.3807,3.3807,3.3807,3.3807,3.3807,3.3807,3.3807,3.3807,0.0,0.0,0.0,0.0,0.0,2.5871,2.6464,2.6562,2.7187,2.8906,2.8906,2.9141,3.0273,3.0156,2.9745,2.9132,2.8756,2.8033,2.6844,2.6968,2.6514,2.5241,2.6166,2.6123,2.485,2.5142,2.4927,2.4229,2.3862,2.3692,2.3692,2.3692,2.3774,2.3894,2.4937,2.559,2.6002,2.7329,2.8067,2.8424,2.9326,2.9927,3.0254,3.0202,3.0095,2.9999,2.9924,2.9763,2.957,2.9454,2.9683,2.9928,2.9209,2.9384,2.9696,2.914,2.8994,2.8994,2.8994,2.9402,2.942,2.7805,2.7383,2.7181,2.6374,2.5768,2.5642,2.6429,2.6374,2.6025,2.5513,2.5823,2.575,2.441,2.4869,2.5127,0.0,2.419,2.43,2.4557,2.5309,2.6007,2.6557,2.6355,2.6631,2.7714,2.7548,2.786,2.8938,2.8994,2.8994,2.8994,2.8994,2.8994,2.8994,2.8994,2.8994,2.8994,2.8994,2.8994,2.8994,2.8994,2.8994,2.9085,3.0705,3.1384,3.1513,3.3128,3.3807,3.3807,3.3807,3.3807,3.3807,3.3807,3.3807,3.3807,2.5703,0.0,0.0,0.0,0.0,2.6348,2.6914,2.7793,2.8984,3.0684,3.0937,3.1387,3.25,3.2129,3.1445,3.0605,3.0176,2.9344,2.7853,2.7902,2.7343,2.586,2.6726,2.6541,2.503,2.5261,2.508,2.4495,2.4078,2.3876,2.3876,2.3876,2.4042,2.4351,2.5377,2.5988,2.6358,2.7658,2.8227,2.8309,2.9308,2.9977,3.0398,3.0398,3.0299,3.0136,3.0136,3.0003,2.978,2.9661,2.985,3.006,2.9348,2.9416,2.9677,2.914,2.8994,2.8994,2.8994,2.936,2.9457,2.8136,2.7787,2.7658,2.7145,2.6631,2.6465,2.7291,2.7236,2.6869,2.6337,2.6667,2.6502,2.4887,2.5291,2.5438,0.0,2.419,2.419,2.419,2.4649,2.5291,2.6098,2.5915,2.6319,2.7695,2.753,2.786,2.8938,2.8994,2.8994,2.8994,2.8994,2.8994,2.8994,2.8994,2.8994,2.8994,2.8994,2.914,2.9439,2.9439,2.9439,2.9531,3.1127,3.1659,3.1513,3.3128,3.3807,3.3807,3.3807,3.3807,3.3807,3.3807,3.3807,3.3807,0.0,0.0,2.5762,2.5762,2.6445,2.7012,2.7051,2.9277,3.1016,3.1133,3.2578,3.3613,3.3652,3.3613,3.3242,3.2402,3.1504,3.0586,2.9629,2.8702,2.7778,2.6841,2.6755,2.6222,2.5099,2.4991,2.481,2.4568,2.4414,2.4337,2.4318,2.4318,2.4722,2.5495,2.63,2.709,2.7842,2.8668,2.8998,2.9067,2.9514,2.9977,3.0398,3.0398,3.0398,3.0398,3.0398,3.0241,3.0013,3.0013,2.9748,2.9394,2.9412,2.9222,2.8994,2.8994,2.8994,2.8994,2.8994,2.9017,2.8815,2.8044,2.7846,2.7809,2.7842,2.7824,2.8026,2.881,2.8393,2.7842,2.7805,2.7824,2.731,2.5678,2.6007,2.5952,2.441,2.419,2.4208,2.4245,2.4263,2.4538,2.5274,2.4722,2.5273,2.7567,2.7071,2.7346,2.892,2.8957,2.8957,2.8994,2.8994,2.8994,2.8994,2.8994,2.8994,2.8994,2.8994,2.9439,3.021,3.021,3.0228,3.0356,3.1935,3.2173,3.1568,3.3146,3.3807,3.3807,3.3807,3.3807,3.3807,3.3807,3.3807,3.3807,2.5703,2.6211,2.668,2.668,2.6855,2.7226,2.7871,3.0195,3.2559,3.4434,3.5625,3.6543,3.7187,3.6699,3.5684,3.4199,3.3848,3.2754,3.0547,3.0751,3.0141,2.8266,2.8412,2.7804,2.6222,2.6638,2.647,2.5606,2.6021,2.6134,2.5988,2.5988,2.6098,2.6337,2.7126,2.7603,2.7842,2.8668,2.9206,2.9533,2.9661,2.9977,3.0398,3.0398,3.0398,3.0398,3.0398,3.0355,3.0267,3.0075,2.9829,2.9607,2.9454,2.9222,2.8994,2.8994,2.8994,2.8994,2.8994,2.9156,2.9191,2.8787,2.8344,2.8155,2.8584,2.8227,2.8026,2.881,2.8851,2.8521,2.7915,2.8282,2.797,2.577,2.5071,2.4667,2.4263,2.419,2.441,2.5035,2.509,2.4944,2.4538,2.5401,2.6245,2.6869,2.7273,2.7934,2.8938,2.8429,2.8374,2.8975,2.8994,2.8994,2.8994,2.8994,2.8994,2.8994,2.8994,2.9439,3.021,3.021,3.0522,3.1146,3.2173,3.2485,3.2375,3.3385,3.3807,3.3807,3.3807,3.3807,3.3807,3.3807,3.3807,3.3807,2.6191,2.6973,2.7578,2.7578,2.8516,2.9434,2.9922,3.1543,3.3516,3.5703,3.6758,3.7344,3.7441,3.7363,3.6758,3.5391,3.4922,3.4062,3.2559,3.2285,3.1413,2.9693,2.9689,2.8758,2.6688,2.689,2.6732,2.6133,2.6387,2.6579,2.6723,2.6723,2.6866,2.7145,2.7603,2.7989,2.8356,2.8815,2.9206,2.957,2.9661,2.9912,0.0,3.0355,3.0398,3.0398,3.0398,3.0398,3.0386,3.0241,3.0018,2.9796,2.9589,2.9373,2.9156,2.9021,2.8994,2.8994,2.8994,2.92,2.9372,2.9203,2.9001,2.8858,2.9114,2.883,2.8584,2.8929,2.8994,2.8847,2.8411,2.8705,2.8338,2.6264,2.5236,2.4593,2.4245,2.4502,2.4759,2.485,2.5201,2.509,2.4281,2.5658,2.6612,2.6612,2.7016,2.764,2.8429,2.8044,2.8172,2.8957,2.9696,2.9714,2.8994,3.0039,3.0039,2.8994,2.9714,3.0283,3.0742,3.1091,3.1513,3.1971,3.2779,3.2944,3.2669,3.3476,3.3807,3.3807,3.3807,3.3807,3.3807,3.3807,3.3807,3.3807,2.7012,2.7969,2.8594,2.8496,3.0625,3.2422,3.2656,3.3496,3.4629,3.6133,3.7207,3.7441,3.6445,3.7012,3.707,3.6094,3.5312,3.4805,3.4668,3.332,3.2012,3.084,3.0458,2.9206,2.692,2.6627,2.6505,2.6448,2.6394,2.6669,2.7233,2.7233,2.7488,2.7952,2.7952,2.8356,2.8994,2.8994,2.9156,2.9433,2.9626,2.9813,3.0028,3.0299,3.0367,3.0355,3.0398,3.0398,3.0398,3.0398,3.0209,2.9969,2.9763,2.9551,2.9351,2.9067,2.8994,2.8994,2.8994,2.9225,2.9434,2.9412,2.957,2.9696,2.9493,2.9433,2.933,2.9089,2.9021,2.8994,2.8994,2.8902,2.8393,2.6979,2.608,2.5346,2.4759,2.5181,2.5328,2.474,2.5199,0.0,2.4428,2.5621,2.6447,2.6447,2.6447,2.6833,2.775,2.7695,2.8062,2.8957,3.0356,3.0522,2.9347,3.1292,3.1347,2.9489,3.0779,3.1458,3.1568,3.2284,3.2669,3.2816,3.3495,3.3403,3.2816,3.3513,3.3807,3.3807,3.3807,3.3807,3.3807,3.3807,3.3862,3.3972,2.8047,2.9355,0.0,2.9492,3.1484,3.3672,3.5117,3.668,3.7793,3.8105,3.9531,3.9902,3.832,3.8281,3.7734,3.6133,3.5859,3.5371,3.4434,3.3652,3.2461,3.0781,3.0033,2.9075,2.7802,2.7727,2.7566,2.7292,2.797,2.8534,2.8965,2.8965,2.8915,2.8796,2.8796,2.8865,2.8994,2.8994,2.9156,2.9433,2.9626,2.9813,3.0028,3.0299,3.0267,3.0089,3.0311,3.0398,3.0398,3.0398,3.0209,2.9969,2.9763,2.9551,2.9351,2.9067,2.8994,2.8994,2.8994,2.9314,2.9607,2.9434,2.9678,2.9893,2.9696,2.9513,2.9392,2.9351,2.9156,2.8994,2.8994,2.8466,2.7915,2.764,2.6906,2.6576,2.709,2.6722,2.6576,2.7108,2.6704,2.6062,2.5274,2.5458,2.5623,2.5623,2.5623,2.6245,2.7714,2.7163,2.7493,2.8938,2.925,2.9934,3.0962,3.0742,3.1072,3.1971,3.1586,3.1751,3.2394,3.254,3.2963,3.3605,3.3733,3.3715,3.3605,3.3733,3.3807,3.3807,3.3807,3.3807,3.3807,3.3807,3.4229,3.477,3.0234,3.0625,0.0,3.1133,3.2656,3.4551,3.6562,3.8633,3.9629,3.8711,3.8945,3.8691,3.7383,3.7656,3.7402,3.6113,3.5996,3.5586,3.457,3.3555,3.2539,3.1523,3.0605,2.9681,2.8756,2.8657,2.8533,2.8332,2.8753,2.9213,2.9713,2.9607,2.9435,2.9203,2.9044,2.8994,2.8994,2.8994,2.9067,2.9225,2.9551,2.9765,2.9896,3.0273,3.0222,3.0013,3.015,3.0196,3.0209,3.0355,3.0311,3.0169,2.9924,2.978,2.9678,2.9436,2.9291,2.9225,2.9334,2.9533,2.9713,2.9713,2.9958,3.0155,2.9908,2.978,2.9643,2.9434,2.9289,2.916,2.904,2.8686,2.8282,2.786,2.7475,2.7365,2.775,2.7475,2.7365,2.775,2.7457,2.6741,2.5531,2.5403,2.5403,2.5403,2.5403,2.6101,2.7714,2.7034,2.7346,2.8938,2.9637,2.9944,2.9835,3.0727,3.1128,3.1037,3.1712,3.2228,3.2614,3.3036,3.344,3.3807,3.3807,3.3807,3.3807,3.3807,3.3807,3.3807,3.3807,3.3807,3.3807,3.3807,3.4321,3.499,3.2207,3.1934,3.1758,3.2168,3.3574,3.5273,3.7051,3.9531,4.0703,3.9336,3.8555,3.7734,3.668,3.7168,3.7148,3.6094,3.5996,3.5605,3.4687,3.3359,3.2402,3.1934,3.1172,3.0325,2.9435,2.9302,2.9198,2.9132,2.9113,2.9404,2.9999,2.9845,2.9625,2.9392,2.9112,2.8994,2.8994,2.8994,2.8994,2.9044,2.9514,2.9696,2.9748,3.0215,3.0215,2.9954,3.0061,3.0013,2.9984,3.0299,3.0398,3.0355,3.0089,2.9999,2.9969,2.9746,2.9589,2.9494,2.9661,2.9731,2.9796,2.9969,3.0196,3.0336,3.0136,3.0028,2.9908,2.9589,2.9454,2.931,2.9044,2.8994,2.8796,2.8154,2.8062,2.8117,2.8282,2.8154,2.8062,2.8062,2.775,2.7053,2.5768,2.5366,2.5366,2.588,2.5605,2.6046,2.7475,2.7108,2.7512,2.8938,2.9981,2.998,2.8943,3.093,3.1429,3.0423,3.2054,3.2871,3.2889,3.3513,3.3807,3.3807,3.3807,3.3807,3.3807,3.3807,3.3807,3.3807,3.3807,3.3807,3.3825,3.399,3.4578,3.5312,3.2793,3.332,3.3359,3.1406,3.3711,3.5918,3.6133,3.9023,4.1133,4.0976,4.0898,4.0195,3.8535,3.8437,3.7812,3.6133,3.5996,3.5527,3.4414,3.3242,3.2129,3.1074,3.0937,3.0449,2.9511,2.9427,2.931,2.919,2.9132,2.9404,2.9999,2.9984,2.9763,2.9392,2.9112,2.8994,2.8994,2.8994,2.8994,2.9044,2.9514,2.9696,2.9748,3.0215,3.0128,2.9782,3.0215,3.0099,2.9799,3.026,3.0398,3.0355,3.0089,2.9999,2.9969,2.9746,2.9696,2.9678,2.9696,2.9829,2.9984,2.9999,3.0196,3.0398,3.0367,3.0163,2.9999,2.9954,2.9643,2.931,2.9044,2.8994,2.8975,2.8883,2.8906,2.9145,2.9879,2.9365,2.8906,2.8906,2.7603,2.6649,2.6502,2.5162,2.5217,2.7402,2.6229,2.5768,2.6667,2.7328,2.8099,2.8957,2.9117,2.9667,3.0649,3.1206,3.1954,3.2947,3.3451,3.3697,3.3697,3.377,3.3807,3.3807,3.3807,3.3807,3.3807,3.3807,3.3807,3.3807,3.3807,3.3807,3.3899,3.4633,3.5459,3.6285,3.4746,3.8359,3.9902,3.4844,3.3398,3.4336,3.8496,3.8535,3.8828,4.0937,4.1191,4.0547,3.8789,3.7676,3.6758,3.6055,3.5996,3.5801,3.5351,3.3613,3.2324,3.1719,3.1172,3.0684,3.0234,3.015,3.0066,2.9987,2.991,3.0009,3.0241,3.0075,2.978,2.9392,2.9112,2.8994,2.8994,2.8994,2.8994,2.9021,2.9375,2.9589,2.9731,3.0032,3.0047,2.9908,3.0089,3.0032,2.9908,3.0109,3.0267,3.0367,3.0267,3.0241,3.0209,3.0142,3.0022,2.9927,3.0085,3.0047,3.0028,3.0196,3.0311,3.0398,3.0398,3.0311,3.0196,3.0028,2.9678,2.9372,2.9246,2.9112,2.8994,2.8994,2.8994,2.9292,3.0099,2.9512,2.9177,2.9659,2.8741,2.786,2.7365,2.63,2.6043,2.7016,2.5585,2.5658,2.7934,2.7438,2.7677,2.8957,2.8773,2.8873,2.9376,2.9533,3.035,3.1852,3.2182,3.2747,3.3437,3.3437,3.3437,3.3447,3.3707,3.3807,3.3807,3.3807,3.3807,3.3807,3.3807,3.41,3.4504,3.4339,3.544,3.6982,3.6758,4.0273,4.2051,3.8203,3.5527,3.5566,4.0469,3.9101,3.8418,4.0879,4.1191,4.0723,3.9492,3.7344,3.5996,3.5996,3.5996,3.5781,3.5273,3.4219,3.3066,3.1875,3.1465,3.1113,3.0762,3.065,3.0568,3.0525,3.0448,3.0398,3.0398,3.0061,2.9746,2.9474,2.9156,2.8994,2.8994,2.8994,2.8994,2.9021,2.9289,2.9493,2.9625,2.9829,2.9877,2.9829,2.9893,2.9877,2.9829,2.9893,3.008,3.0299,3.0386,3.0355,3.0299,3.0386,3.0267,3.015,3.0355,3.0254,3.0221,3.0662,3.0794,3.0852,3.1083,3.1141,3.1053,3.082,3.0296,2.9848,2.9768,2.9348,2.8994,2.8994,2.8994,2.9195,2.9769,2.9365,2.9195,2.9787,2.9145,2.8521,2.8191,2.7218,2.6814,2.7273,2.5823,2.6007,2.8521,2.7567,2.7585,2.8957,2.8707,2.8515,2.8394,2.8757,2.959,3.0902,3.1469,3.2265,3.3214,3.3214,3.3214,3.3214,3.3625,3.3807,3.3807,3.3807,3.3935,3.4156,3.4156,3.4669,3.5349,3.5018,3.5991,3.7441,3.8574,3.7246,3.7187,4.0547,4.1094,4.1094,4.1191,4.1152,4.1152,4.1191,4.1191,4.1191,4.1172,3.8086,3.5996,3.5996,3.5996,3.5273,3.3535,3.5019,3.4453,3.1055,3.1738,3.1777,3.0918,3.0693,3.0595,3.0602,3.0467,3.0398,3.0398,2.9912,2.9696,2.9678,2.9206,2.8994,2.8994,2.8994,2.8994,2.9021,2.9289,2.9412,2.9433,2.9644,2.957,2.9434,2.9625,2.957,2.9434,2.9644,2.9845,3.0061,3.0311,3.0209,3.0061,3.0323,3.0398,3.0398,3.0398,3.0398,3.059,3.1468,3.1679,3.1891,3.2699,3.2872,3.2814,3.2611,3.1718,3.0904,3.0632,2.9721,2.8994,2.8994,2.8994,2.8994,2.8994,2.8994,2.8994,2.8994,2.8301,2.8117,2.8902,2.7548,2.7273,2.8847,2.7493,2.6924,2.7769,2.7787,2.8154,2.8957,2.8994,2.8797,2.8402,2.9582,3.0421,3.0902,3.2054,3.2812,3.3214,3.3214,3.3214,3.3214,3.3625,3.3807,3.3807,3.3807,3.4284,3.4972,3.4972,3.5532,3.6376,3.7165,3.7489,3.7606,4.0371,3.9922,4.0625,4.4082,4.2754,4.1191,4.1191,4.1191,4.1191,4.1191,4.1191,4.1191,4.1191,4.0215,3.8594,3.6211,3.5996,3.5762,3.5215,3.5684,3.498,3.2695,3.2344,3.1797,3.0918,3.0756,3.0653,3.0602,3.0506,3.0448,3.0398,3.0047,2.9829,2.9696,2.9395,2.916,2.8994,2.8994,2.8994,2.9017,2.9089,2.9225,2.9412,2.9474,2.9551,2.9626,2.9678,2.9661,2.9607,2.9678,2.9729,2.9829,3.0061,3.0196,3.0299,3.0367,3.0398,3.0398,3.0398,3.0398,3.0456,3.0737,3.1256,3.1775,3.2025,3.2506,3.2878,3.2826,3.2276,3.1789,3.1694,3.0668,2.9824,2.9824,2.9365,2.8994,2.8994,2.8994,2.8994,2.8994,2.8755,2.8723,2.8975,2.8044,2.7622,2.8136,2.72,2.72,2.8558,2.8099,2.8172,2.8957,2.9549,2.9502,2.8815,3.029,3.1078,3.1232,3.2159,3.2655,3.2713,3.2713,3.2713,3.2745,3.3196,3.355,3.3807,3.3807,3.3954,3.4247,3.477,3.5532,3.6321,3.6578,3.7367,3.8267,4.2851,4.207,4.1875,4.4004,4.2617,4.1191,4.1191,4.1191,4.1191,4.1191,4.1191,4.1191,4.1191,4.0039,3.8379,3.6191,3.5996,3.5996,3.5996,3.5996,3.5215,3.3476,3.293,3.2109,3.0937,3.0763,3.0666,3.0608,3.0524,3.0448,3.0398,3.0136,2.9939,2.9796,2.9607,2.9394,2.9156,2.9156,2.9089,2.8994,2.8994,2.9089,2.9246,2.9246,2.9332,2.9436,2.9436,2.9436,2.9456,2.9551,2.9644,2.9748,2.9939,3.0177,3.0398,3.0398,3.0398,3.0398,3.0398,3.0398,3.0552,3.1179,3.1756,3.2314,3.2987,3.3526,3.3891,3.3891,3.3303,3.2767,3.2676,3.1376,3.0314,3.0233,2.9531,2.8994,2.8994,2.925,2.9347,2.903,2.925,2.9347,2.9012,2.8815,2.8576,2.8282,2.8356,2.8594,2.8975,2.8246,2.8301,2.9439,2.9953,3.0099,2.9898,3.0889,3.1549,3.1861,3.283,3.3148,3.2908,3.2942,3.3017,3.309,3.2962,3.3399,3.4135,3.4058,3.4371,3.4954,3.5677,3.6468,3.7202,3.7202,3.7845,3.8634,4.5312,4.3379,4.1191,4.1191,4.1191,4.1191,4.1191,4.1191,4.1191,4.1191,4.1191,4.1191,4.1191,3.8301,3.6269,3.6016,3.5996,3.5996,3.5996,3.5996,3.5254,3.3555,3.3496,3.2715,3.1035,3.0876,3.0748,3.0607,3.0482,3.0398,3.0398,3.015,3.0013,2.9999,2.9796,2.9607,2.9414,2.9412,2.9246,2.904,2.9017,2.8994,2.8994,2.8994,2.8994,2.8994,2.8994,2.8994,2.904,2.931,2.9514,2.9748,2.9939,3.0177,3.0398,3.0398,3.0398,3.0398,3.0398,3.0398,3.0794,3.241,3.2891,3.343,3.5122,3.5493,3.5493,3.5493,3.4634,3.3813,3.3563,3.2011,3.0652,3.0378,2.9622,2.9049,2.8994,2.9641,2.9843,2.9085,2.9714,2.9916,2.914,2.9769,2.9898,2.9122,3.0467,3.065,2.914,2.8429,2.8705,3.0155,3.032,3.0705,3.1384,3.1494,3.1935,3.2698,3.388,3.4167,3.3616,3.3703,3.3899,3.4038,3.3038,3.3422,3.4695,3.4512,3.5299,3.6666,3.7168,3.7869,3.8615,3.8615,3.8615,3.8615,4.2246,4.1758,4.1191,4.1191,4.1191,4.1191,4.1191,4.1191,4.1191,4.1191,4.1191,4.1191,4.1191,4.0469,3.8906,3.623,3.5996,3.5996,3.5996,3.5996,3.5527,3.4434,3.4394,3.3613,3.1934,3.1853,3.1441,3.0606,3.0521,3.0448,3.0398,3.0343,3.0196,2.9999,2.9954,2.9813,2.9626,2.9474,2.9372,2.9289,2.9089,2.8994,2.8994,2.8994,2.8994,2.8994,2.8994,2.8994,2.904,2.931,2.9514,2.9748,2.9939,3.0177,3.0398,3.0398,3.0398,3.0398,3.0398,3.0398,3.0648,3.1718,3.2949,3.416,3.5257,3.5493,3.5493,3.5493,3.5117,3.4764,3.4712,3.3465,3.2225,3.1526,3.0559,2.9714,2.9085,2.914,2.9195,2.9012,2.9714,3.0136,2.9934,3.0099,3.0118,2.9934,3.0265,3.032,2.9953,3.032,3.043,3.021,3.1403,3.1825,3.1384,3.2614,3.333,3.3532,3.444,3.4418,3.3634,3.4252,3.4372,3.4108,3.3842,3.4104,3.4694,3.4641,3.5077,3.5786,3.5933,3.6729,3.7771,3.7771,3.7771,3.7863,4.1191,4.1191,4.1191,4.1191,4.1191,4.1191,4.1191,4.1191,4.1191,4.1191,4.1191,4.1191,4.1191,4.1191,4.0449,3.8535,3.6914,3.5996,3.5996,3.5996,3.5566,3.4551,3.5019,3.4316,3.2246,3.2207,3.1669,3.0597,3.0535,3.0467,3.0398,3.0398,3.0323,3.0182,3.0182,3.0047,2.9829,2.9607,2.9474,2.9372,2.9112,2.8994,2.8994,2.8994,2.8994,2.8994,2.8994,2.9067,2.9225,2.9455,2.9661,2.9877,3.0109,3.0279,3.0398,3.0398,3.0398,3.0398,3.0398,3.0698,3.1295,3.2526,3.3833,3.493,3.5391,3.5493,3.5493,3.5493,3.5383,3.5258,3.5122,3.4055,3.2866,3.1955,3.0905,3.0063,2.9622,2.9549,2.9696,3.0063,3.0815,3.1311,3.1311,3.1641,3.1696,3.1329,3.1641,3.1513,3.0797,3.1861,3.2137,3.1329,3.2155,3.2577,3.2485,3.3366,3.399,3.4376,3.5202,3.5253,3.4659,3.5137,3.5136,3.4761,3.4076,3.4306,3.5099,3.5007,3.5489,3.6307,3.6512,3.718,3.8046,3.8046,3.7808,3.7551,4.1191,4.1191,4.1191,4.1191,4.1191,4.1191,4.1191,4.1191,4.1191,4.1191,4.1191,4.1191,4.1191,4.1191,4.0996,4.0469,3.7949,3.6289,3.6016,3.5996,3.5566,3.4609,3.5488,3.4902,3.2578,3.2187,3.153,3.0606,3.055,3.0487,3.0398,3.0398,3.0398,3.0398,3.0398,3.0267,3.0047,2.9829,2.9644,2.9414,2.916,2.904,2.8994,2.8994,2.8994,2.8994,2.8994,2.916,2.9433,2.9607,2.9813,3.0028,3.0267,3.0367,3.0398,3.0398,3.0494,3.0602,3.0602,3.1333,3.2391,3.368,3.4757,3.5493,3.5493,3.5493,3.5493,3.5493,3.5493,3.5432,3.5207,3.4336,3.3298,3.2227,3.1251,3.0515,3.0228,3.0301,3.0632,3.1311,3.2228,3.2834,3.2963,3.3587,3.3752,3.3201,3.3678,3.344,3.221,3.344,3.3862,3.3183,3.3036,3.3293,3.3972,3.4119,3.4394,3.4825,3.5954,3.6195,3.5719,3.6095,3.6059,3.5671,3.4415,3.4567,3.5688,3.5435,3.6011,3.7117,3.747,3.799,3.8559,3.853,3.8083,3.7514,4.1191,4.1191,4.1191,4.1191,4.1191,4.1191,4.1191,4.1191,4.1191,4.1191,4.1191,4.1191,4.1191,4.1191,4.0019,3.7051,3.7656,3.7578,3.6094,3.5996,3.5918,3.5742,3.5918,3.5351,3.4004,3.209,3.0945,3.0606,3.0588,3.0525,3.0398,3.0398,3.0398,3.0398,3.0398,3.0386,3.0311,3.0061,2.9845,2.9625,2.9415,2.9203,2.8994,2.8994,2.8994,2.8994,2.8994,2.916,2.9394,2.9434,2.9696,3.0013,3.0061,3.0209,3.0398,3.0398,3.0929,3.1506,3.1506,3.2622,3.3699,3.3218,3.4314,3.5493,3.5493,3.5493,3.5493,3.5493,3.5493,3.5493,3.5446,3.5108,3.4469,3.3336,3.2826,3.2011,3.0423,3.0797,3.1256,3.1384,3.2706,3.388,3.455,3.4734,3.5073,3.5679,3.5165,3.5037,3.5514,3.5771,3.5844,3.5734,3.5018,3.4679,3.4807,3.555,3.5257,3.4009,3.6248,3.6463,3.4942,3.6755,3.7124,3.6249,3.6008,3.6084,3.6249,3.5735,3.5951,3.6493,3.63,3.697,3.7993,3.7778,3.7617,3.7588,4.1191,4.1191,4.1191,4.1191,4.1191,4.1191,4.1191,4.1191,4.1191,4.1191,4.1191,4.1191,4.1191,4.1191,3.9805,3.6309,3.6738,3.6855,3.6055,3.5996,3.5996,3.5996,3.5996,3.5742,3.5234,3.2383,3.1023,3.1312,3.082,3.0525,3.0398,3.0398,3.0398,3.0398,3.0398,3.0398,3.0379,3.0103,2.9954,2.9845,2.9643,2.9415,2.9222,2.9222,2.9134,2.8994,2.8994,2.9249,2.9551,2.9434,2.9767,3.0196,3.0061,3.0177,3.0398,3.0398,3.0679,3.1295,3.266,3.3276,3.3622,3.418,3.4911,3.5493,3.5493,3.5493,3.5493,3.5493,3.5493,3.5493,3.5493,3.4906,3.4179,3.3507,3.2458,3.1667,3.1526,3.1439,3.188,3.3183,3.4412,3.5459,3.6266,3.6358,3.6505,3.6909,3.6174,3.5881,3.6266,3.6303,3.6303,3.6303,3.5917,3.5716,3.5716,3.5642,3.5661,3.5789,3.6505,3.6716,3.6451,3.7448,3.7342,3.6374,3.6374,3.6224,3.5941,3.5694,3.5898,3.6381,3.6242,3.6874,3.7891,3.7766,3.7624,3.7562,4.1191,4.1191,4.1191,4.1191,4.1191,4.1191,4.1191,4.1191,4.1191,4.1191,4.1191,4.1191,4.1191,4.1191,3.9805,3.6309,3.5996,3.5996,3.5996,3.5996,3.5996,3.5996,3.5996,3.5996,3.5996,3.291,3.1491,3.1896,3.1023,3.0525,3.0398,3.0398,3.0398,3.0398,3.0398,3.0398,3.0398,3.0182,3.0061,2.9984,2.9829,2.9643,2.9455,2.9433,2.9267,2.9089,2.9017,2.9314,2.9661,2.9394,2.9767,3.0254,2.9939,3.0066,3.0349,3.0561,3.0797,3.1448,3.3603,3.3853,3.3833,3.518,3.5641,3.5834,3.6026,3.6084,3.6084,3.6084,3.6084,3.6084,3.6084,3.52,3.4437,3.4282,3.2893,3.2125,3.3033,3.2797,3.322,3.5092,3.6064,3.689,3.7698,3.7771,3.7771,3.7771,3.7202,3.6853,3.6853,3.6853,3.6853,3.6853,3.667,3.6578,3.6578,3.6101,3.6321,3.7202,3.6856,3.6944,3.7451,3.7753,3.7415,3.658,3.658,3.6374,3.5968,3.5694,3.5854,3.6224,3.6333,3.6865,3.7578,3.7685,3.7685,3.7595,4.1191,4.1191,4.1191,4.1191,4.1191,4.1191,4.1191,4.1191,4.1191,4.1191,4.1191,4.1191,4.1191,4.1191,3.9805,3.6309,3.5996,3.5996,3.5996,3.5996,3.5996,3.5996,3.5996,3.5996,3.5996,3.3672,3.2292,3.1896,3.1023,3.0525,3.0398,3.0398,3.0398,3.0398,3.0398,3.0398,3.0398,3.0367,3.0241,2.9999,2.9984,2.9861,2.9661,2.9474,2.9392,2.933,2.9089,2.9314,2.9625,2.9185,2.9457,2.9954,2.957,2.9713,3.02,3.0996,3.1947,3.2929,3.393,3.4737,3.5353,3.5468,3.6065,3.6815,3.7623,3.7815,3.7815,3.7815,3.7815,3.7815,3.7815,3.7089,3.6569,3.6799,3.6088,3.536,3.4898,3.5477,3.5991,3.6174,3.6909,3.7716,3.8524,3.8615,3.8615,3.8615,3.856,3.8524,3.8524,3.8524,3.8524,3.8524,3.779,3.7404,3.7404,3.8083,3.7734,3.6395,3.733,3.7164,3.6075,3.7326,3.7614,3.7152,3.7152,3.7114,3.702,3.6011,3.5605,3.5694,3.6224,3.6457,3.6563,3.7058,3.7506,3.7855,4.1191,4.1191,4.1191,4.1191,4.1191,4.1191,4.1191,4.1191,4.1191,4.1191,4.1191,4.1191,4.1191,4.1191,3.9805,3.6309,3.5996,3.5996,3.5996,3.5996,3.5996,3.5996,3.5996,3.5996,3.5996,3.5156,3.4051,3.27,3.1826,3.1056,3.0398,3.0398,3.0398,3.0398,3.0398,3.0398,3.0398,3.0398,3.0343,3.0254,3.0254,3.0109,2.9877,2.9796,2.9626,2.9394,2.9435,2.9456,2.9494,2.931,2.9494,2.9857,3.0073,3.034,3.0818,3.22,3.3131,3.3865,3.4576,3.4731,3.4949,3.5988,3.6469,3.693,3.7796,3.8007,3.8007,3.8007,3.8007,3.8007,3.8007,3.7296,3.6795,3.7064,3.6015,3.5308,3.5726,3.6083,3.6486,3.6964,3.7734,3.8358,3.867,3.8707,3.8707,3.8707,3.9166,3.9441,3.9441,3.9918,4.0194,4.0194,3.9405,3.8744,3.8248,3.8046,3.79,3.779,3.737,3.7313,3.7631,3.7801,3.779,3.7649,3.7649,3.7285,3.6684,3.6249,3.5898,3.5622,3.581,3.6097,3.6416,3.6643,3.702,3.7506,4.1191,4.1191,4.1191,4.1191,4.1191,4.1191,4.1191,4.1191,4.1191,4.1191,4.1191,4.1191,4.1191,4.1191,3.9805,3.6309,3.5996,3.5996,3.5996,3.5996,3.5996,3.5996,3.5996,3.5996,3.5996,3.5996,3.5164,3.3484,3.2426,3.1395,3.0398,3.0398,3.0398,3.0398,3.0398,3.0398,3.0398,3.0398,3.0398,3.0398,3.0398,3.0299,3.0122,3.0028,2.9829,2.9607,2.9678,2.9626,2.9474,2.9414,2.9494,2.972,3.0281,3.1026,3.1902,3.3051,3.3965,3.4677,3.5002,3.4864,3.5007,3.6699,3.7123,3.7411,3.8527,3.8796,3.8762,3.8684,3.8731,3.8731,3.8544,3.7871,3.7445,3.7687,3.6577,3.6035,3.6922,3.7055,3.7257,3.7808,3.8358,3.8799,3.9056,3.8854,3.8799,3.9056,3.9588,4.001,4.0267,4.0818,4.1111,4.1111,4.0561,3.9882,3.9074,3.8267,3.8138,3.8707,3.7606,3.754,3.8433,3.8065,3.7893,3.7893,3.7893,3.7576,3.6969,3.6804,3.6457,3.5994,3.5994,3.6031,3.6139,3.6139,3.6481,3.6981,4.1191,4.1191,4.1191,4.1191,4.1191,4.1191,4.1191,4.1172,4.1172,4.1191,4.1191,4.1191,4.1191,4.1191,3.9805,3.6309,3.5996,3.5996,3.5996,3.5996,3.5996,3.5996,3.5996,3.5996,3.5996,3.5996,3.538,3.4113,3.2638,3.1395,3.0398,3.0398,3.0398,3.0398,3.0398,3.0398,3.0398,3.0398,3.0398,3.0398,3.0398,3.0398,3.0367,3.0103,2.9999,2.9984,2.9782,2.9696,2.9661,2.9474,2.9412,2.95,3.0047,3.1685,3.3412,3.341,3.4404,3.5446,3.5155,3.5289,3.5911,3.7584,3.8007,3.843,4.0123,4.0489,4.0422,4.0158,4.0321,4.0319,3.9712,3.9157,3.8873,3.9055,3.842,3.8099,3.864,3.8707,3.8707,3.8707,3.8707,3.9019,3.9808,3.9184,3.9056,3.9827,3.99,4.0267,4.1093,4.113,4.113,4.113,4.113,4.0726,3.9918,3.9129,3.8707,3.8707,3.815,3.7911,3.7911,3.7911,3.7911,3.7911,3.7911,3.8079,3.828,3.7753,3.7247,3.6835,3.6772,3.6315,3.5622,3.5622,3.5941,3.6392,4.1191,4.1191,4.1191,4.1191,4.1191,4.1191,4.1191,3.9121,3.8437,4.0879,4.1191,4.1191,4.1191,4.1191,3.9805,3.6309,3.5996,3.5996,3.5996,3.5996,3.5996,3.5996,3.5996,3.5996,3.5996,3.5996,3.5819,3.5421,3.405,3.2358,3.0398,3.1025,3.0987,3.0398,3.0398,3.0398,3.0398,3.0398,3.0398,3.0398,3.0398,3.0398,3.0398,3.0311,3.0163,3.0013,3.0155,2.9883,2.9587,3.0227,3.0234,3.0226,3.1714,3.3271,3.4564,3.4356,3.4878,3.5446,3.5155,3.5289,3.5911,3.7584,3.8007,3.843,4.0123,4.0489,4.0422,4.0158,4.0321,4.0319,3.9712,3.9671,3.9577,3.9175,3.8894,3.8739,3.8713,3.8707,3.8909,3.946,3.9533,3.9643,3.9863,4.0194,4.0249,3.9918,4.0946,4.1937,4.2745,4.2782,4.2782,4.2782,4.2249,4.1827,4.1589,4.0799,3.9827,3.8707,3.8746,3.8624,3.8483,3.8679,3.8966,3.9323,3.9889,3.9964,3.9657,3.9138,3.8622,3.8023,3.7126,3.6637,3.6366,3.5825,3.6051,3.6717,4.1191,4.1191,4.1191,4.1191,4.1191,4.0742,3.9355,3.7344,3.7246,4.0742,4.1191,4.1191,4.1191,3.9961,3.8281,3.6172,3.5996,3.5996,3.5996,3.5996,3.5391,3.4043,3.5273,3.5996,3.5996,3.5996,3.5996,3.5996,3.5193,3.3761,3.1807,3.1391,3.1295,3.1429,3.0717,3.059,3.0891,3.0552,3.0398,3.0417,3.0794,3.091,3.091,3.091,3.1021,3.1134,3.097,3.081,3.0753,3.1369,3.1524,3.166,3.2691,3.3976,3.507,3.4908,3.5155,3.5537,3.5687,3.5863,3.6392,3.8084,3.8257,3.843,4.0123,4.0489,4.0518,4.0559,4.082,4.0879,4.0457,4.0669,4.0669,3.9993,3.9618,3.9457,3.9638,3.9386,3.9478,4.0286,4.0377,4.0506,4.0818,4.1001,4.1038,4.0855,4.1754,4.2653,4.3442,4.3497,4.3497,4.3497,4.302,4.2616,4.2304,4.2139,4.124,3.9662,3.9805,3.9805,3.9662,3.9823,4.0075,4.0396,4.0891,4.0953,4.0671,4.0153,3.9621,3.9032,3.7746,3.7043,3.6688,3.591,3.6113,3.6818,4.1133,4.1191,4.1191,4.1191,4.1191,4.0019,3.6523,3.5996,3.7246,4.0742,4.1191,4.1074,4.0762,3.7891,3.5996,3.5996,3.5996,3.5996,3.5996,3.5996,3.4473,3.1055,3.418,3.5996,3.5996,3.5703,3.5625,3.5762,3.5762,3.5049,3.3655,3.1746,3.1588,3.28,3.1218,3.0968,3.166,3.0852,3.0552,3.0698,3.1487,3.1814,3.1814,3.1814,3.2256,3.2795,3.2064,3.2152,3.2619,3.2664,3.3045,3.3506,3.3259,3.4072,3.5138,3.5138,3.5362,3.5776,3.6507,3.6757,3.7219,3.8873,3.8757,3.8623,4.0142,4.0546,4.0748,4.1208,4.1625,4.1857,4.163,4.186,4.1879,4.1204,4.0487,4.0267,4.102,4.0469,4.0304,4.113,4.1222,4.1515,4.2231,4.1644,4.1552,4.2359,4.2415,4.2727,4.3442,4.3497,4.3497,4.3497,4.3497,4.3149,4.2415,4.313,4.269,4.1111,4.1185,4.1185,4.1111,4.1185,4.1222,4.1222,4.1295,4.1391,4.1445,4.0913,4.0367,3.9783,3.8482,3.7584,3.6891,3.6113,3.6315,3.6992,4.0664,4.1191,4.1191,4.1191,4.1191,4.0019,3.6523,3.5996,3.7246,4.0742,4.1191,4.0156,3.7422,3.6445,3.5996,3.5996,3.5996,3.5996,3.5996,3.5996,3.4473,3.1055,3.418,3.5996,3.5996,3.3379,3.2656,3.3965,3.3867,3.2966,3.1379,3.3495,3.3227,3.1006,3.1295,3.1525,3.1698,3.1506,3.1775,3.2372,3.2564,3.2641,3.2641,3.2641,3.2756,3.2872,3.2699,3.2612,3.2664,3.3086,3.3901,3.4713,3.466,3.4986,3.5398,3.5398,3.5888,3.6488,3.6661,3.7199,3.7969,3.9027,3.9623,4.0046,4.0412,4.1027,4.1481,4.1323,4.2104,4.2565,4.1742,4.186,4.1879,4.1204,4.0965,4.091,4.1093,4.0965,4.1148,4.1937,4.2047,4.2121,4.2286,4.2139,4.2378,4.3167,4.3222,4.3314,4.3479,4.3497,4.3497,4.3497,4.3497,4.3406,4.3222,4.3406,4.269,4.113,4.1754,4.1717,4.113,4.1754,4.2047,4.2066,4.2708,4.2759,4.2384,4.1772,4.12,4.0545,3.9248,3.865,3.843,3.7686,3.7872,3.8599,4.084,4.1191,4.1191,4.1191,3.9824,3.8105,3.6289,3.5996,3.6641,3.8476,3.8711,3.8027,3.6191,3.5996,3.5996,3.5996,3.5996,3.5996,3.5996,3.4473,3.2773,3.0976,3.2617,3.4336,3.5957,3.4258,3.2969,3.2207,3.3613,3.3906,3.3183,3.3949,3.379,3.2852,3.2199,3.2256,3.2872,3.2449,3.2526,3.2949,3.3353,3.3526,3.3526,3.3526,3.3776,3.4083,3.366,3.3722,3.4083,3.4599,3.5011,3.5331,3.5596,3.5595,3.5493,3.5493,3.5815,3.6315,3.7103,3.7642,3.8296,3.9546,4.0489,4.1123,4.1123,4.1797,4.2475,4.2697,4.3248,4.3541,4.3126,4.3175,4.3061,4.2345,4.1919,4.1809,4.2194,4.1919,4.1974,4.2782,4.2873,4.2873,4.2873,4.2873,4.3039,4.3461,4.3497,4.3497,4.3497,4.3497,4.3497,4.3497,4.3497,4.3497,4.3497,4.3497,4.3075,4.2249,4.2671,4.2653,4.2268,4.2671,4.2873,4.2892,4.3314,4.3339,4.3014,4.2144,4.1621,4.1198,3.9614,3.8988,3.8903,3.8176,3.8362,3.9106,4.043,4.0312,4.0312,4.0312,3.793,3.5996,3.5996,3.5996,3.5996,3.5996,3.5996,3.5996,3.5996,3.5996,3.5996,3.5996,3.5469,3.5137,3.5137,3.2461,3.1035,3.1309,3.1601,3.2969,3.5508,3.5566,3.4219,3.1484,3.3819,3.5204,3.5606,3.4071,3.4045,3.5218,3.3314,3.3103,3.4141,3.343,3.3218,3.341,3.4122,3.441,3.441,3.441,3.4872,3.5411,3.468,3.4891,3.5575,3.6004,3.5971,3.5767,3.6061,3.5952,3.5718,3.5718,3.5815,3.6257,3.7796,3.843,3.8988,4.0373,4.1489,4.2239,4.2239,4.2797,4.3489,4.4162,4.4412,4.4537,4.4575,4.458,4.4364,4.3631,4.2928,4.2745,4.3406,4.2928,4.2745,4.3406,4.3497,4.3497,4.3497,4.3497,4.3497,4.3497,4.3497,4.3497,4.3497,4.3497,4.3497,4.3497,4.3497,4.3497,4.3497,4.3497,4.3497,4.3497,4.3497,4.3497,4.3497,4.3497,4.3497,4.3497,4.3497,4.3444,4.3286,4.2346,4.1853,4.1481,3.9907,3.9255,3.9106,3.8497,3.8667,3.9276,3.7305,3.6699,3.6699,3.6699,3.6309,3.5996,3.5996,3.5996,3.5996,3.5996,3.5996,3.5996,3.5996,3.5996,3.5996,3.5996,3.3301,3.1582,3.1582,3.1152,3.1543,3.3008,3.4512,3.4824,3.3769,3.375,3.3789,3.3848,3.3151,3.3288,3.4191,3.4841,3.4757,3.4045,3.3949,3.4007,3.418,3.4064,3.4468,3.5161,3.5276,3.5334,3.5334,3.5334,3.5411,3.5488,3.5372,3.5411,3.5512,3.558,3.6017,3.6416,3.5792,3.6037,3.6546,3.6546,3.7065,3.7873,3.8854,4.0181,4.1335,4.1566,4.2797,4.3951,4.3951,4.4047,4.4162,4.4278,4.4893,4.5247,4.4688,4.458,4.4364,4.3631,4.3406,4.3369,4.3461,4.3406,4.3369,4.3479,4.3497,4.3497,4.3497,4.3497,4.3497,4.3497,4.3497,4.3497,4.3497,4.3497,4.3497,4.3497,4.3497,4.3497,4.3497,4.3497,4.3497,4.3497,4.3497,4.3497,4.3497,4.3497,4.3497,4.3497,4.3497,4.325,4.2788,4.2655,4.1979,4.0978,4.0753,4.0343,3.9918,3.9817,3.9851,3.9952,3.8828,3.7344,3.5996,3.5996,3.5996,3.5996,3.5996,3.5996,3.5996,3.5996,3.5996,3.5996,3.5996,3.5996,3.5996,3.5996,3.2871,3.0898,3.0898,3.1777,3.2637,3.3379,3.4453,3.498,3.4863,3.4844,3.498,3.5254,3.4536,3.4403,3.4807,3.5282,3.5224,3.4743,3.4872,3.493,3.493,3.493,3.5161,3.5493,3.5493,3.5493,3.5493,3.5493,3.5493,3.5493,3.5493,3.5795,3.621,3.6511,3.6862,3.7168,3.7302,3.7264,3.7182,3.7382,3.77,3.818,3.9065,4.0162,4.1181,4.1681,4.3066,4.4297,4.4297,4.4682,4.5028,4.5028,4.517,4.5161,4.4682,4.4419,4.4106,4.3563,4.3497,4.3497,4.3497,4.3497,4.3497,4.3497,4.3497,4.3497,4.3497,4.3497,4.3497,4.3497,4.3497,4.3497,4.3497,4.3497,4.3497,4.3497,4.3497,4.3497,4.3497,4.3497,4.3497,4.3497,4.3497,4.3497,4.3497,4.3497,4.3497,4.3497,4.3497,4.3375,4.3124,4.2826,4.24,4.1853,4.1178,4.0577,4.007,4.007,4.007,4.007]},{"header":{"parameterUnit":"m.s-1","parameterCategory":1,"la1":30.6,"la2":28.766,"lo1":-90.7593,"lo2":-88.6598,"dy":0.0162,"dx":0.0183,"nx":116,"ny":114,"refTime":"2023-06-03T12:00:00:Z","depth":0,"parameterNumber":3,"parameterNumberName":"V-component_of_WINDS"},"data":[0.0,0.0,0.0,0.0,0.0,0.0,0.0,0.0,0.0,0.0,0.0,0.0,0.0,0.0,0.0,0.0,0.0,0.0,0.0,0.0,0.0,0.0,0.0,0.0,0.0,0.0,0.0,0.0,0.0,0.0,0.0,0.0,0.0,0.0,0.0,0.0,0.0,0.0,0.0,0.0,0.0,0.0,0.0,0.0,0.0,0.0,0.0,0.0,0.0,0.0,0.0,0.0,0.0,0.0,0.0,0.0,0.0,0.0,0.0,0.0,0.0,0.0,0.0,0.0,0.0,0.0,0.0,0.0,0.0,0.0,0.0,0.0,0.0,0.0,0.0,0.0,0.0,0.0,0.0,0.0,0.0,0.0,0.0,0.0,0.0,0.0,0.0,0.0,0.0,0.0,0.0,0.0,0.0,0.0,0.0,0.0,0.0,0.0,0.0,0.0,0.0,0.0,0.0,0.0,0.0,0.0,0.0,0.0,0.0,0.0,0.0,0.0,0.0,0.0,0.0,0.0,0.0,0.0,0.0,0.0,0.0,0.0,0.0,0.0,0.0,0.0,0.0,0.0,0.0,0.0,0.0,0.0,0.0,0.0,0.0,0.0,0.0,0.0,0.0,0.0,0.0,0.0,0.0,0.0,0.0,0.0,0.0,0.0,0.0,0.0,0.0,0.0,0.0,0.0,0.0,0.0,0.0,0.0,0.0,0.0,0.0,0.0,0.0,0.0,0.0,0.0,0.0,0.0,0.0,0.0,0.0,0.0,0.0,0.0,0.0,0.0,0.0,0.0,0.0,0.0,0.0,0.0,0.0,0.0,0.0,0.0,0.0,0.0,0.0,0.0,0.0,0.0,0.0,0.0,0.0,0.0,0.0,0.0,0.0,0.0,0.0,0.0,0.0,0.0,0.0,0.0,0.0,0.0,0.0,0.0,0.0,0.0,0.0,0.0,0.0,0.0,0.0,0.0,0.0,0.0,0.0,0.0,0.0,0.0,0.0,0.0,0.0,0.0,0.0,0.0,0.0,0.0,0.0,0.0,0.0,0.0,0.0,0.0,0.0,0.0,0.0,0.0,0.0,0.0,0.0,0.0,0.0,0.0,0.0,0.0,0.0,0.0,0.0,0.0,0.0,0.0,0.0,0.0,0.0,0.0,0.0,0.0,0.0,0.0,0.0,0.0,0.0,0.0,0.0,0.0,0.0,0.0,0.0,0.0,0.0,0.0,0.0,0.0,0.0,0.0,0.0,0.0,0.0,0.0,0.0,0.0,0.0,0.0,0.0,0.0,0.0,0.0,0.0,0.0,0.0,0.0,0.0,0.0,0.0,0.0,0.0,0.0,0.0,0.0,0.0,0.0,0.0,0.0,0.0,0.0,0.0,0.0,0.0,0.0,0.0,0.0,0.0,0.0,0.0,0.0,0.0,0.0,0.0,0.0,0.0,0.0,0.0,0.0,0.0,0.0,0.0,0.0,0.0,0.0,0.0,0.0,0.0,0.0,0.0,0.0,0.0,0.0,0.0,0.0,0.0,0.0,0.0,0.0,0.0,0.0,0.0,0.0,0.0,0.0,0.0,0.0,0.0,0.0,0.0,0.0,0.0,0.0,0.0,0.0,0.0,0.0,0.0,0.0,0.0,0.0,0.0,0.0,0.0,0.0,0.0,0.0,0.0,0.0,0.0,0.0,0.0,0.0,0.0,0.0,0.0,0.0,0.0,0.0,0.0,0.0,0.0,0.0,0.0,0.0,0.0,0.0,0.0,0.0,0.0,0.0,0.0,0.0,0.0,0.0,0.0,0.0,0.0,0.0,0.0,0.0,0.0,0.0,0.0,0.0,0.0,0.0,0.0,0.0,0.0,0.0,0.0,0.0,0.0,0.0,0.0,0.0,0.0,0.0,0.0,0.0,0.0,0.0,0.0,0.0,0.0,0.0,0.0,0.0,0.0,0.0,0.0,0.0,0.0,0.0,0.0,0.0,0.0,0.0,0.0,0.0,0.0,0.0,0.0,0.0,0.0,0.0,0.0,0.0,0.0,0.0,0.0,0.0,0.0,0.0,0.0,0.0,0.0,0.0,0.0,0.0,0.0,0.0,0.0,0.0,0.0,0.0,0.0,0.0,0.0,0.0,0.0,0.0,0.0,0.0,0.0,0.0,0.0,0.0,0.0,0.0,0.0,0.0,0.0,0.0,0.0,0.0,0.0,0.0,0.0,0.0,0.0,0.0,0.0,0.0,0.0,0.0,0.0,0.0,0.0,0.0,0.0,0.0,0.0,0.0,0.0,0.0,0.0,0.0,0.0,0.0,0.0,0.0,0.0,0.0,0.0,0.0,0.0,0.0,0.0,0.0,0.0,0.0,0.0,0.0,0.0,0.0,0.0,0.0,0.0,0.0,0.0,0.0,0.0,0.0,0.0,0.0,0.0,0.0,0.0,0.0,0.0,0.0,0.0,0.0,0.0,0.0,0.0,0.0,0.0,0.0,0.0,0.0,0.0,0.0,0.0,0.0,0.0,0.0,0.0,0.0,0.0,0.0,0.0,0.0,0.0,0.0,0.0,0.0,0.0,0.0,0.0,0.0,0.0,0.0,0.0,0.0,0.0,0.0,0.0,0.0,0.0,0.0,0.0,0.0,0.0,0.0,0.0,0.0,0.0,0.0,0.0,0.0,0.0,0.0,0.0,0.0,0.0,0.0,0.0,0.0,0.0,0.0,0.0,0.0,0.0,0.0,0.0,0.0,0.0,0.0,0.0,0.0,0.0,0.0,0.0,0.0,0.0,0.0,0.0,0.0,0.0,0.0,0.0,0.0,0.0,0.0,0.0,0.0,0.0,0.0,0.0,0.0,0.0,0.0,0.0,0.0,0.0,0.0,0.0,0.0,0.0,0.0,0.0,0.0,0.0,0.0,0.0,0.0,0.0,0.0,0.0,0.0,0.0,0.0,0.0,0.0,0.0,0.0,0.0,0.0,0.0,0.0,0.0,0.0,0.0,0.0,0.0,0.0,0.0,0.0,0.0,0.0,0.0,0.0,0.0,0.0,0.0,0.0,0.0,0.0,0.0,0.0,0.0,0.0,0.0,0.0,0.0,0.0,0.0,0.0,0.0,0.0,0.0,0.0,0.0,0.0,0.0,0.0,0.0,0.0,0.0,0.0,0.0,0.0,0.0,0.0,0.0,0.0,0.0,0.0,0.0,0.0,0.0,0.0,0.0,0.0,0.0,0.0,0.0,0.0,0.0,0.0,0.0,0.0,0.0,0.0,0.0,0.0,0.0,0.0,0.0,0.0,0.0,0.0,0.0,0.0,0.0,0.0,0.0,0.0,0.0,0.0,0.0,0.0,0.0,0.0,0.0,0.0,0.0,0.0,0.0,0.0,0.0,0.0,0.0,0.0,0.0,0.0,0.0,0.0,0.0,0.0,0.0,0.0,0.0,0.0,0.0,0.0,0.0,0.0,0.0,0.0,0.0,0.0,0.0,0.0,0.0,0.0,0.0,0.0,0.0,0.0,0.0,0.0,0.0,0.0,0.0,0.0,0.0,0.0,0.0,0.0,0.0,0.0,0.0,0.0,0.0,0.0,0.0,0.0,0.0,0.0,0.0,0.0,0.0,0.0,0.0,0.0,0.0,0.0,0.0,0.0,0.0,0.0,0.0,0.0,0.0,0.0,0.0,0.0,0.0,0.0,0.0,0.0,0.0,0.0,0.0,0.0,0.0,0.0,0.0,0.0,0.0,0.0,0.0,0.0,0.0,0.0,0.0,0.0,0.0,0.0,0.0,0.0,0.0,0.0,0.0,0.0,0.0,0.0,0.0,0.0,0.0,0.0,0.0,0.0,0.0,0.0,0.0,0.0,0.0,0.0,0.0,0.0,0.0,0.0,0.0,0.0,0.0,0.0,0.0,0.0,0.0,0.0,0.0,0.0,0.0,0.0,0.0,0.0,0.0,0.0,0.0,0.0,0.0,0.0,0.0,0.0,0.0,0.0,0.0,0.0,0.0,0.0,0.0,0.0,0.0,0.0,0.0,0.0,0.0,0.0,0.0,0.0,0.0,0.0,0.0,0.0,0.0,0.0,0.0,0.0,0.0,0.0,0.0,0.0,0.0,0.0,0.0,0.0,0.0,0.0,0.0,0.0,0.0,0.0,0.0,0.0,0.0,0.0,0.0,0.0,0.0,0.0,0.0,0.0,0.0,0.0,0.0,0.0,0.0,0.0,0.0,0.0,0.0,0.0,0.0,0.0,0.0,0.0,0.0,0.0,0.0,0.0,0.0,0.0,0.0,0.0,0.0,0.0,0.0,0.0,0.0,0.0,0.0,0.0,0.0,0.0,0.0,0.0,0.0,0.0,0.0,0.0,0.0,0.0,0.0,0.0,0.0,0.0,0.0,0.0,0.0,0.0,0.0,0.0,0.0,0.0,0.0,0.0,0.0,0.0,0.0,0.0,0.0,0.0,0.0,0.0,0.0,0.0,0.0,0.0,0.0,0.0,0.0,0.0,0.0,0.0,0.0,0.0,0.0,0.0,0.0,0.0,0.0,0.0,0.0,0.0,0.0,0.0,0.0,0.0,0.0,0.0,0.0,0.0,0.0,0.0,0.0,0.0,0.0,0.0,0.0,0.0,0.0,0.0,0.0,0.0,0.0,0.0,0.0,0.0,0.0,0.0,0.0,0.0,0.0,0.0,0.0,0.0,0.0,0.0,0.0,0.0,0.0,0.0,0.0,0.0,0.0,0.0,0.0,0.0,0.0,0.0,0.0,0.0,0.0,0.0,0.0,0.0,0.0,0.0,0.0,0.0,0.0,0.0,0.0,0.0,0.0,0.0,0.0,0.0,0.0,0.0,0.0,0.0,0.0,0.0,0.0,0.0,0.0,0.0,0.0,0.0,0.0,0.0,0.0,0.0,0.0,0.0,0.0,0.0,0.0,0.0,0.0,0.0,0.0,0.0,0.0,0.0,0.0,0.0,0.0,0.0,0.0,0.0,0.0,0.0,0.0,0.0,0.0,0.0,0.0,0.0,0.0,0.0,0.0,0.0,0.0,0.0,0.0,0.0,0.0,0.0,0.0,0.0,0.0,0.0,0.0,0.0,0.0,0.0,0.0,0.0,0.0,0.0,0.0,0.0,0.0,0.0,0.0,0.0,0.0,0.0,0.0,0.0,0.0,0.0,0.0,0.0,0.0,0.0,0.0,0.0,0.0,0.0,0.0,0.0,0.0,0.0,0.0,0.0,0.0,0.0,0.0,0.0,0.0,0.0,0.0,0.0,0.0,0.0,0.0,0.0,0.0,0.0,0.0,0.0,0.0,0.0,0.0,0.0,0.0,0.0,0.0,0.0,0.0,0.0,0.0,0.0,0.0,0.0,0.0,0.0,0.0,0.0,0.0,0.0,0.0,0.0,0.0,0.0,0.0,0.0,0.0,0.0,0.0,0.0,0.0,0.0,0.0,0.0,0.0,0.0,0.0,0.0,0.0,0.0,0.0,0.0,0.0,0.0,0.0,0.0,0.0,0.0,0.0,0.0,0.0,0.0,0.0,0.0,0.0,0.0,0.0,0.0,0.0,0.0,0.0,0.0,0.0,0.0,0.0,0.0,0.0,0.0,0.0,0.0,0.0,0.0,0.0,0.0,0.0,0.0,0.0,0.0,0.0,0.0,0.0,0.0,0.0,0.0,0.0,0.0,0.0,0.0,0.0,0.0,0.0,0.0,0.0,0.0,0.0,0.0,0.0,0.0,0.0,0.0,0.0,0.0,0.0,0.0,0.0,0.0,0.0,0.0,0.0,0.0,0.0,0.0,0.0,0.0,0.0,0.0,0.0,0.0,0.0,0.0,0.0,0.0,0.0,0.0,0.0,0.0,0.0,0.0,0.0,0.0,0.0,0.0,0.0,0.0,0.0,0.0,0.0,0.0,0.0,0.0,0.0,0.0,0.0,0.0,0.0,0.0,0.0,0.0,0.0,0.0,0.0,0.0,0.0,0.0,0.0,0.0,0.0,0.0,0.0,0.0,0.0,0.0,0.0,0.0,0.0,0.0,0.0,0.0,0.0,0.0,0.0,0.0,0.0,0.0,0.0,0.0,0.0,0.0,0.0,0.0,0.0,0.0,-0.4341,-0.4519,0.0,0.0,0.0,0.0,0.0,0.0,0.0,0.0,0.0,0.0,0.0,0.0,0.0,0.0,0.0,0.0,0.0,0.0,0.0,0.0,0.0,0.0,0.0,0.0,0.0,0.0,0.0,0.0,0.0,0.0,0.0,0.0,0.0,0.0,0.0,0.0,0.0,0.0,-1.0576,-0.935,-0.8131,-0.8552,-0.9102,-0.9657,0.0,0.0,0.0,0.0,0.0,0.0,0.0,0.0,0.0,0.0,0.0,0.0,0.0,0.0,0.0,0.0,0.0,0.0,0.0,0.0,0.0,0.0,0.0,0.0,0.0,0.0,0.0,0.0,0.0,0.0,0.0,0.0,0.0,0.0,0.0,0.0,0.0,0.0,0.0,0.0,0.0,0.0,0.0,0.0,0.0,0.0,0.0,0.0,0.0,0.0,0.0,0.0,0.0,0.0,0.0,0.0,0.0,0.0,0.0,0.0,0.0,0.0,0.0,0.0,0.0,0.0,0.0,0.0,0.0,0.0,-0.445,-0.4519,0.0,0.0,0.0,0.0,0.0,0.0,0.0,0.0,0.0,0.0,0.0,0.0,0.0,0.0,0.0,0.0,0.0,0.0,0.0,0.0,0.0,0.0,0.0,-0.6471,-0.6196,-0.6341,-0.6596,-0.6901,0.0,0.0,0.0,0.0,0.0,0.0,0.0,-1.1126,-1.116,-1.0873,-0.9212,-0.7761,-0.6487,-0.6706,-0.7245,-0.8031,-0.8261,0.0,0.0,0.0,0.0,0.0,0.0,0.0,0.0,0.0,0.0,0.0,0.0,0.0,0.0,0.0,0.0,0.0,0.0,0.0,0.0,0.0,0.0,0.0,0.0,0.0,0.0,0.0,0.0,0.0,0.0,0.0,0.0,0.0,0.0,0.0,0.0,0.0,0.0,0.0,0.0,0.0,0.0,0.0,0.0,0.0,0.0,0.0,0.0,0.0,0.0,0.0,0.0,0.0,0.0,0.0,0.0,0.0,0.0,0.0,0.0,0.0,0.0,0.0,-0.4783,-0.4834,-0.4828,-0.4615,-0.4632,-0.4834,-0.4834,-0.4776,-0.4666,-0.4563,0.0,0.0,0.0,0.0,0.0,0.0,0.0,0.0,0.0,0.0,0.0,0.0,0.0,0.0,0.0,0.0,0.0,0.0,0.0,0.0,0.0,-0.6374,-0.618,-0.6859,-0.6074,-0.6119,-0.7465,0.0,0.0,0.0,0.0,0.0,-1.0785,-1.036,-0.9924,-0.9546,-0.7997,-0.7395,-0.767,-0.7564,-0.7197,-0.6519,-0.6758,-0.7012,-0.73,0.0,0.0,0.0,0.0,0.0,0.0,0.0,0.0,0.0,0.0,0.0,0.0,0.0,0.0,0.0,0.0,0.0,0.0,0.0,0.0,0.0,0.0,0.0,0.0,0.0,0.0,0.0,0.0,0.0,0.0,0.0,0.0,0.0,0.0,0.0,0.0,0.0,0.0,0.0,0.0,0.0,-0.4502,-0.4992,0.0,0.0,0.0,0.0,0.0,0.0,0.0,0.0,0.0,0.0,0.0,0.0,0.0,-0.4889,-0.4491,-0.4508,-0.4783,-0.5315,-0.5844,-0.6098,-0.606,-0.5003,-0.5095,-0.6098,-0.6098,0.0,-0.5267,-0.4735,0.0,0.0,0.0,0.0,0.0,0.0,0.0,0.0,0.0,0.0,0.0,0.0,0.0,0.0,0.0,0.0,0.0,0.0,0.0,0.0,0.0,-0.6718,-0.6309,-0.5752,-0.4271,-0.4182,-0.6165,-0.6842,0.0,0.0,0.0,-0.9753,-0.997,-0.9771,-0.9232,-0.8361,-0.7036,-0.6519,-0.6779,-0.7335,-0.752,-0.7379,-0.6174,-0.5656,-0.5673,-0.6558,0.0,0.0,0.0,0.0,0.0,0.0,0.0,0.0,0.0,0.0,0.0,0.0,0.0,0.0,0.0,0.0,0.0,0.0,0.0,0.0,0.0,0.0,0.0,0.0,0.0,0.0,0.0,0.0,0.0,0.0,0.0,0.0,0.0,0.0,0.0,0.0,0.0,0.0,0.0,-0.8994,-0.6,-0.4648,-0.5928,-0.7391,0.0,0.0,0.0,0.0,0.0,0.0,0.0,0.0,0.0,-0.5095,-0.5363,-0.5542,-0.5542,-0.5542,-0.5676,-0.5943,-0.6211,-0.6434,-0.6736,-0.621,-0.6074,-0.6338,-0.6338,-0.6187,-0.5892,-0.5281,-0.4828,-0.4519,0.0,0.0,0.0,0.0,-0.451,-0.4287,0.0,0.0,0.0,0.0,0.0,0.0,0.0,0.0,0.0,0.0,0.0,0.0,-0.6978,-0.648,-0.5918,-0.5337,-0.3436,-0.2748,-0.389,-0.5717,-0.6973,-0.7419,-0.8663,-0.9222,-0.898,-0.9188,-0.8639,-0.7339,-0.6601,-0.622,-0.6357,-0.726,-0.817,-0.8883,-0.745,-0.5982,-0.4686,-0.5584,-0.6283,-0.6728,0.0,0.0,0.0,0.0,0.0,0.0,0.0,0.0,0.0,0.0,0.0,0.0,0.0,0.0,0.0,0.0,0.0,0.0,0.0,0.0,0.0,0.0,0.0,0.0,0.0,0.0,0.0,0.0,0.0,0.0,0.0,0.0,0.0,0.0,0.0,0.0,0.0,-1.0956,-0.8637,-0.594,-0.6931,-0.7978,0.0,0.0,0.0,0.0,0.0,0.0,-0.7578,-0.7695,-0.7091,-0.5675,-0.6162,-0.6496,-0.6485,-0.6485,-0.6485,-0.6485,-0.6485,-0.6715,-0.7139,-0.7139,-0.6817,-0.6271,-0.642,-0.6485,-0.6441,-0.584,-0.5301,-0.4749,-0.4749,-0.4749,-0.4745,-0.4733,-0.4801,-0.4932,0.0,0.0,0.0,0.0,0.0,0.0,0.0,0.0,0.0,0.0,0.0,-0.6984,-0.702,-0.5061,-0.4614,-0.67,-0.4825,-0.2587,-0.0416,-0.2978,-0.5316,-0.6939,-0.7122,-0.7483,-0.8151,-0.8551,-0.8059,-0.6655,-0.6889,-0.72,-0.7463,-0.8033,-0.9153,-1.0503,-1.1501,-0.9405,-0.5024,-0.4706,-0.4783,-0.4994,-0.4716,0.0,0.0,0.0,0.0,0.0,0.0,0.0,0.0,0.0,0.0,0.0,0.0,0.0,0.0,0.0,0.0,0.0,0.0,0.0,0.0,0.0,0.0,0.0,0.0,0.0,0.0,0.0,0.0,0.0,0.0,0.0,0.0,0.0,0.0,0.0,0.0,0.0,0.0,-0.8828,-0.6546,0.0,0.0,0.0,0.0,-0.5051,-0.4751,-0.4577,-0.4725,-0.4751,-0.5179,-0.6225,-0.6745,-0.7031,-0.7092,-0.7095,-0.7095,-0.7095,-0.7095,-0.7112,-0.7139,-0.7139,-0.6817,-0.6291,-0.6854,-0.7095,-0.7051,-0.6461,-0.5933,-0.538,-0.538,-0.538,-0.5384,-0.5348,-0.5748,-0.6227,0.0,0.0,0.0,0.0,0.0,0.0,0.0,0.0,-0.9114,-0.9114,-0.7906,-0.6299,-0.4443,-0.421,-0.4681,-0.5882,-0.4889,-0.3629,-0.2382,-0.3282,-0.4138,-0.4809,-0.6207,-0.7647,-0.8971,-0.8825,-0.7918,-0.6367,-0.576,-0.6855,-0.9487,-0.7781,-0.8685,-1.1621,-0.9413,-0.7647,-0.6359,-0.5463,-0.4938,-0.4607,-0.4383,-0.4327,0.0,0.0,0.0,0.0,0.0,0.0,0.0,0.0,0.0,0.0,0.0,0.0,0.0,0.0,0.0,0.0,0.0,0.0,0.0,0.0,0.0,0.0,0.0,0.0,0.0,0.0,0.0,0.0,0.0,0.0,0.0,0.0,0.0,0.0,0.0,0.0,0.0,-0.8847,-0.8646,0.0,-0.6372,-0.6161,-0.608,-0.5799,-0.5841,-0.5956,-0.6185,-0.5934,-0.6169,-0.6774,-0.698,-0.7079,-0.7136,-0.7139,-0.7139,-0.7139,-0.7139,-0.7139,-0.7139,-0.7139,-0.7027,-0.6837,-0.7048,-0.7139,-0.7126,-0.6912,-0.6702,-0.6468,-0.6088,-0.6012,-0.6012,-0.6012,-0.613,-0.6322,0.0,0.0,0.0,0.0,0.0,0.0,0.0,0.0,-1.0311,-1.0312,-0.8373,-0.6079,-0.3562,-0.419,-0.499,-0.5354,-0.5009,-0.4552,-0.3917,-0.3312,-0.3194,-0.3556,-0.5805,-0.7266,-0.7818,-0.7681,-0.7159,-0.6248,-0.547,-0.6474,-0.913,-0.721,-0.77,-1.0178,-0.7676,-0.6781,-0.7035,-0.6288,-0.5565,-0.4947,-0.4482,-0.4464,-0.467,0.0,0.0,0.0,0.0,0.0,0.0,0.0,0.0,0.0,0.0,0.0,0.0,0.0,0.0,0.0,0.0,0.0,0.0,0.0,0.0,0.0,0.0,0.0,0.0,0.0,0.0,0.0,0.0,0.0,0.0,0.0,0.0,0.0,0.0,-1.2858,-1.1945,-0.9651,-1.009,-0.9457,-0.6368,-0.6651,-0.6808,-0.63,-0.6636,-0.6954,-0.7136,-0.6861,-0.6888,-0.7118,-0.709,-0.7121,-0.7139,-0.7139,-0.7139,-0.7139,-0.7139,-0.7139,-0.7139,-0.7139,-0.7139,-0.7139,-0.7139,-0.7139,-0.7139,-0.7139,-0.7139,-0.7082,-0.6491,-0.6338,-0.6285,-0.6485,-0.6559,-0.6661,0.0,0.0,0.0,0.0,0.0,0.0,0.0,-0.8815,-1.0208,-1.0205,-0.83,-0.6334,-0.4682,-0.5031,-0.541,-0.537,-0.5312,-0.5002,-0.4514,-0.2833,-0.244,-0.3645,-0.5751,-0.6171,-0.455,-0.5082,-0.5738,-0.6327,-0.6268,-0.627,-0.6335,-0.6297,-0.6298,-0.6318,-0.6845,-0.7094,-0.7069,-0.713,-0.6676,-0.5956,-0.4954,-0.4781,-0.5028,0.0,0.0,0.0,0.0,0.0,0.0,0.0,0.0,0.0,0.0,0.0,0.0,0.0,0.0,0.0,0.0,0.0,0.0,0.0,0.0,0.0,0.0,0.0,0.0,0.0,0.0,0.0,0.0,0.0,0.0,0.0,0.0,0.0,-1.3553,-1.2833,-1.2247,-1.155,-1.0693,-0.9244,-0.6927,-0.682,-0.6719,-0.6332,-0.6835,-0.7095,-0.7094,-0.7149,-0.7139,-0.7139,-0.7139,-0.7149,-0.717,-0.717,-0.716,-0.7139,-0.7139,-0.7139,-0.7139,-0.7139,-0.7139,-0.7139,-0.7139,-0.7139,-0.7139,-0.7139,-0.7139,-0.7085,-0.6512,-0.6288,-0.6359,-0.6929,-0.7139,-0.7115,0.0,0.0,0.0,0.0,0.0,0.0,0.0,-0.7529,-0.7923,-0.7921,-0.651,-0.5289,-0.4831,-0.5171,-0.528,-0.5054,-0.2876,-0.2326,-0.4349,-0.4019,-0.4447,-0.6016,-0.5523,-0.4969,-0.4501,-0.5505,-0.6124,-0.6271,-0.628,-0.6297,-0.6264,-0.627,-0.6314,-0.6305,-0.687,-0.709,-0.7104,-0.7132,-0.6848,-0.6486,-0.5996,-0.5415,-0.4869,0.0,0.0,0.0,0.0,0.0,0.0,0.0,0.0,0.0,0.0,0.0,0.0,0.0,0.0,0.0,0.0,0.0,0.0,0.0,0.0,0.0,0.0,0.0,0.0,0.0,0.0,0.0,0.0,0.0,0.0,0.0,-1.6493,-1.6048,-1.569,-1.5577,-1.4639,-1.2221,-1.1086,-0.9639,-0.7705,-0.7628,-0.7577,-0.7255,-0.7366,-0.7557,-0.7784,-0.7377,-0.7139,-0.7139,-0.7139,-0.735,-0.7787,-0.7794,-0.7573,-0.7139,-0.7139,-0.7139,-0.7139,-0.7139,-0.7139,-0.7139,-0.7139,-0.7139,-0.7139,-0.7139,-0.7139,-0.7126,-0.6963,-0.6898,-0.6919,-0.7082,-0.7139,-0.6599,0.0,0.0,0.0,0.0,0.0,0.0,0.0,-0.7587,-0.6786,-0.6198,-0.5613,-0.5135,-0.4751,-0.4982,-0.5042,-0.473,-0.2969,-0.2647,-0.4385,-0.4245,-0.4681,-0.5887,-0.4993,-0.46,-0.4879,-0.583,-0.6302,-0.6294,-0.6546,-0.6627,-0.661,-0.6445,-0.6397,-0.6632,-0.7218,-0.7464,-0.7513,-0.7313,-0.7258,-0.7101,-0.6877,-0.628,-0.5526,-0.5421,-0.5376,-0.5328,-0.4814,-0.4011,-0.3091,-0.2734,0.0,0.0,0.0,0.0,0.0,0.0,0.0,0.0,0.0,0.0,0.0,0.0,0.0,0.0,0.0,0.0,0.0,0.0,0.0,0.0,0.0,0.0,0.0,0.0,-1.9137,-1.9248,-1.8947,-1.9218,-1.7981,-1.4123,-1.1184,-0.9077,-0.7969,-0.7974,-0.797,-0.7797,-0.7784,-0.7858,-0.8031,-0.7709,-0.7516,-0.7516,-0.7516,-0.7685,-0.8035,-0.8038,-0.7862,-0.7516,-0.7516,-0.7516,-0.7516,-0.7516,-0.7516,-0.7516,-0.7516,-0.7516,-0.7423,-0.723,-0.7134,-0.7111,0.0,0.0,0.0,0.0,-0.7138,-0.6427,0.0,0.0,0.0,0.0,0.0,0.0,0.0,-0.8529,-0.672,-0.5362,-0.5527,-0.5467,-0.4671,-0.4756,-0.4752,-0.4477,-0.4509,-0.4467,-0.4394,-0.3972,-0.3942,-0.4477,-0.4545,-0.4905,-0.5484,-0.6054,-0.6279,-0.6331,-0.6812,-0.7138,-0.7127,-0.6632,-0.6625,-0.7114,-0.7643,-0.7893,-0.7945,-0.7726,-0.7607,-0.7611,-0.7475,-0.7141,-0.6629,-0.6018,-0.6033,-0.6143,-0.5084,-0.4686,-0.4234,-0.1652,0.0,0.0,0.0,0.0,0.0,0.0,0.0,0.0,0.0,0.0,0.0,0.0,0.0,0.0,0.0,0.0,0.0,0.0,0.0,0.0,0.0,0.0,0.0,0.0,-2.2157,-2.2756,-2.2546,-2.239,-2.0703,-1.6332,-1.1392,-0.829,-0.8045,-0.8004,-0.8038,-0.8038,-0.8038,-0.8038,-0.8038,-0.8038,0.0,0.0,0.0,-0.8038,-0.8038,-0.8038,-0.8038,-0.8038,-0.8038,-0.8038,-0.8038,-0.8038,-0.8038,-0.8038,-0.8038,-0.8038,-0.7939,-0.7425,-0.7223,-0.7168,-0.7096,-0.7139,-0.7139,-0.7139,-0.7187,-0.6519,0.0,0.0,0.0,0.0,0.0,0.0,0.0,-0.9213,-0.8051,-0.7126,-0.6177,-0.5392,-0.5007,-0.4719,-0.451,-0.4287,-0.4379,-0.4291,-0.3789,-0.4135,-0.4351,-0.4471,-0.4941,-0.5507,-0.6089,-0.6275,-0.6287,-0.6318,-0.6862,-0.7138,-0.713,-0.6827,-0.6813,-0.7118,-0.7392,-0.7528,-0.7478,-0.7536,-0.7567,-0.7571,-0.7541,-0.7379,-0.6984,-0.6756,-0.6384,-0.6089,-0.6166,-0.5906,-0.5553,-0.5463,-0.4941,-0.441,-0.4466,-0.4108,0.0,0.0,0.0,0.0,0.0,0.0,0.0,0.0,0.0,0.0,0.0,0.0,0.0,0.0,0.0,0.0,0.0,0.0,0.0,-2.1143,-2.1121,-2.1684,-2.3457,-1.9945,-1.6791,-1.5718,-1.3009,-1.0316,-0.8224,-0.7994,-0.8038,-0.8038,-0.8038,-0.8038,-0.8038,-0.8038,-0.8038,-0.8038,-0.8038,-0.8038,-0.8038,-0.8038,-0.8038,-0.8038,-0.8038,0.0,-0.8038,-0.8038,-0.8038,-0.8038,-0.8038,-0.8038,-0.8038,-0.7836,-0.7836,-0.7776,-0.7282,-0.7139,-0.7139,-0.7139,-0.7396,-0.7027,0.0,0.0,0.0,0.0,0.0,0.0,0.0,-0.946,-0.8509,-0.7599,-0.6613,-0.5581,-0.4684,-0.4287,-0.4132,-0.4354,-0.4442,-0.4368,-0.4059,-0.4342,-0.479,-0.5403,-0.5666,-0.5985,-0.6294,-0.6535,-0.66,-0.6295,-0.6822,-0.7165,-0.7309,-0.7204,-0.719,-0.7275,-0.7588,-0.7688,-0.7698,-0.7756,-0.7761,-0.7825,-0.7825,-0.7694,-0.7573,-0.7519,-0.7098,-0.6744,-0.6929,-0.6733,-0.6518,-0.6973,-0.6752,-0.6192,-0.5907,-0.5633,-0.5282,0.0,0.0,0.0,0.0,0.0,0.0,0.0,0.0,0.0,0.0,0.0,0.0,0.0,0.0,-1.9171,-2.0855,0.0,-2.2058,-2.2477,-2.2179,-2.2358,-2.3809,-2.2154,-1.9535,-1.6106,-1.3481,-1.0895,-0.8217,-0.7991,-0.8102,-0.8248,-0.8123,-0.8082,-0.8184,-0.8092,-0.8038,-0.8038,-0.8038,-0.8038,-0.8038,-0.8038,-0.8038,-0.8038,-0.8038,-0.8038,-0.8038,-0.8038,-0.8038,-0.8038,-0.8038,-0.8038,-0.8038,-0.8038,-0.8038,-0.8011,-0.7709,-0.759,-0.759,-0.759,-0.7694,-0.7232,0.0,0.0,0.0,0.0,0.0,0.0,0.0,-0.9352,-0.8356,-0.7641,-0.6813,-0.5757,-0.4315,-0.4043,-0.4319,-0.5264,-0.5135,-0.5081,-0.5294,-0.4912,-0.5174,-0.624,-0.629,-0.6307,-0.6301,-0.6805,-0.6919,-0.6439,-0.688,-0.7288,-0.7559,-0.7495,-0.7482,-0.7412,-0.7846,-0.7911,-0.7921,-0.7977,-0.8038,-0.8038,-0.8038,-0.8038,-0.8024,-0.8004,-0.7767,-0.7523,-0.7468,-0.7462,-0.7526,-0.7534,-0.7366,-0.7181,-0.7171,-0.6939,-0.6397,-0.5211,-0.4782,0.0,0.0,0.0,0.0,0.0,0.0,0.0,0.0,0.0,-1.7916,-1.9634,-2.0177,-2.0995,-2.3061,-2.3143,-2.3105,-2.3799,-2.3606,-2.3573,-2.4059,-2.5053,-2.328,-1.6824,-1.407,-1.1458,-0.8268,-0.7974,-0.8187,-0.8543,-0.835,-0.8258,-0.836,-0.8235,-0.8119,-0.8041,-0.8038,-0.8038,-0.8038,-0.8038,-0.8038,-0.8038,-0.8038,-0.8038,-0.8038,-0.8038,-0.8038,-0.8038,-0.8038,-0.8038,-0.8038,-0.8038,-0.8038,-0.8038,-0.8038,-0.8038,-0.8038,-0.8038,-0.7955,-0.7269,0.0,0.0,0.0,0.0,0.0,0.0,0.0,0.0,-0.7348,-0.7714,-0.6709,-0.5559,-0.4479,-0.4797,-0.5995,-0.8111,-0.7348,-0.7197,-0.8238,-0.645,-0.5589,-0.6239,-0.6318,-0.629,-0.6326,-0.6822,-0.708,-0.7027,-0.7027,-0.7296,-0.7563,-0.7605,-0.7681,-0.7607,-0.7746,-0.7811,-0.7724,-0.7875,-0.8038,-0.8038,-0.8038,-0.8038,-0.8038,-0.8021,-0.8021,-0.787,-0.7722,-0.8301,-0.8871,-0.7607,-0.7332,-0.7522,-0.7505,-0.7625,-0.7552,-0.6452,-0.571,-0.5429,-0.598,-0.8692,-1.1775,-1.3301,-1.2999,-1.444,0.0,0.0,-2.2706,-2.3553,-2.4078,-2.4365,-2.4618,-2.4457,-2.4228,-2.4336,-2.4281,-2.4421,-2.4727,-2.5335,-2.3514,-1.7459,-1.5912,-1.3465,-0.8493,-0.8007,-0.8275,-0.8845,-0.8859,-0.873,-0.8479,-0.8533,-0.8408,-0.8052,-0.8038,-0.8038,-0.8038,-0.8038,-0.8038,-0.8038,-0.8038,-0.8038,-0.8038,-0.8038,-0.8038,-0.8038,-0.8038,-0.8038,-0.8038,-0.8038,-0.8038,-0.8038,-0.8038,-0.8038,-0.8038,-0.8038,-0.8041,-0.7238,0.0,0.0,0.0,0.0,0.0,0.0,0.0,0.0,0.0,-0.6311,-0.6298,-0.5989,-0.5347,-0.5895,-0.6687,-0.7677,-0.7931,-0.8277,-0.8765,-0.7012,-0.6066,-0.6298,-0.661,-0.6791,-0.6748,-0.6956,-0.7111,-0.7139,-0.7138,-0.7353,-0.7795,-0.7753,-0.777,-0.7858,-0.7919,-0.7943,-0.7848,-0.8011,-0.8038,-0.8038,-0.8038,-0.8038,-0.8028,-0.7841,-0.7859,-0.8013,-0.7927,-0.8146,0.0,-0.8425,-0.7881,-0.74,-0.7758,-0.7875,-0.7802,-0.7033,-0.8538,-1.0383,-0.9925,-1.1249,-1.2825,-1.3023,-1.322,-1.4413,-1.8399,-1.9886,-2.0692,-2.1503,-2.2138,-2.2849,-2.366,-2.3904,-2.3979,-2.3979,-2.4612,-2.4632,-2.3233,-2.1818,-1.8674,-1.2439,-1.1468,-1.0378,-0.8185,-0.8296,-0.8665,-0.892,-0.894,-0.8845,-0.8625,-0.8632,-0.8533,-0.8306,-0.8218,-0.8211,-0.819,-0.8026,-0.8085,-0.8174,-0.8082,-0.8038,-0.8038,-0.8038,-0.8038,-0.8038,-0.8038,-0.8038,-0.8038,-0.8038,-0.8038,-0.8038,-0.8038,-0.8038,-0.8038,-0.8038,-0.6019,-0.3011,0.0,0.0,0.0,0.0,0.0,0.0,0.0,0.0,0.0,0.0,-0.5811,-0.6142,-0.6062,-0.6628,-0.7012,-0.6991,-0.7776,-0.8446,-0.8777,-0.725,-0.6348,-0.6547,-0.6889,-0.7072,-0.7104,-0.7059,-0.7061,-0.7111,-0.7077,-0.7416,-0.7956,-0.7807,-0.7835,-0.8038,-0.8038,-0.8038,-0.8038,-0.8038,-0.8038,-0.8038,-0.8038,-0.8014,-0.7855,-0.7468,-0.7571,-0.7886,-0.7824,-0.7923,-0.833,-0.8807,-0.8523,-0.8045,-0.7825,-0.7663,-0.7543,-0.755,-1.0404,-1.3293,-1.1746,-1.2492,-1.3601,-1.3312,-1.4163,-1.5206,-1.5677,-1.7435,-1.9171,-2.0208,-2.0851,-2.1678,-2.2975,-2.3493,-2.3692,-2.3692,-2.3998,-2.3439,-2.1478,-1.8986,-1.5185,-0.9379,-0.8795,-0.8598,-0.8045,-0.8513,-0.8849,-0.893,-0.894,-0.8889,-0.8777,-0.874,-0.8669,-0.855,-0.8445,-0.8418,-0.8374,-0.8126,-0.816,-0.8269,-0.8113,-0.8038,-0.8038,-0.8038,-0.8038,-0.8038,-0.8038,-0.8038,-0.8038,-0.8038,-0.8038,-0.8038,-0.8038,-0.8041,-0.8048,-0.8048,-0.5525,-0.2011,0.0,0.0,0.0,0.0,0.0,0.0,0.0,0.0,0.0,0.0,0.0,0.0,0.0,-0.6774,-0.7006,-0.6982,-0.7026,-0.7544,-0.8745,-0.7247,-0.651,-0.7024,-0.711,-0.7126,-0.71,-0.7065,-0.7118,-0.7083,-0.7134,-0.7374,-0.8007,-0.7963,-0.8035,-0.8038,-0.8038,-0.8038,-0.8038,-0.8038,-0.8038,-0.8038,-0.8038,-0.795,-0.7687,-0.7015,-0.7088,-0.7608,-0.7259,-0.7867,-0.87,-0.8179,-0.9111,-1.0095,-0.7825,-0.6748,-0.6659,-0.8245,-1.0427,-1.1822,-0.9553,-1.1889,-1.5083,-1.5612,-1.6621,-1.7659,-1.8267,-1.9221,-2.0475,-2.1731,-2.2067,-2.2381,-2.3438,-2.3683,-2.3692,-2.3692,-2.187,-2.0296,-1.9852,-1.8032,-1.5183,-1.1016,-1.0697,-1.0062,-0.8185,-0.833,-0.8618,-0.8916,-0.894,-0.8937,-0.893,-0.893,-0.8859,-0.871,-0.8699,-0.8628,-0.8482,-0.8336,-0.8265,-0.8269,-0.8113,-0.8038,-0.8038,-0.8038,-0.8038,-0.8038,-0.8038,-0.8038,-0.8038,-0.8038,-0.8038,-0.8038,-0.8038,-0.7952,-0.7972,-0.7972,-0.7879,-0.6968,0.0,0.0,0.0,0.0,0.0,0.0,0.0,0.0,0.0,0.0,0.0,0.0,0.0,0.0,0.0,0.0,-0.7001,-0.716,-0.7582,-0.7847,-0.7871,-0.7729,-0.6962,-0.6976,-0.7844,-0.7403,-0.7128,-0.7125,-0.7287,-0.7527,-0.7773,-0.7923,-0.8038,-0.8038,-0.8038,-0.8038,-0.8038,-0.8038,-0.8038,-0.7922,-0.753,-0.7896,-0.8528,-0.7677,-0.7163,-0.7044,0.0,-0.8225,-0.879,-0.8611,-0.8896,-0.9273,-0.8452,-0.8093,-0.8456,-1.0969,-1.2532,-1.3248,-1.2056,-1.3209,-1.5307,-1.7625,-1.7917,-1.7757,-1.8531,-1.8784,-1.8942,-1.9125,-1.9074,-1.9354,-1.9963,-2.0622,-2.0933,-2.0474,-2.035,-1.9781,-1.8522,-1.7394,-1.5257,-1.1458,-1.101,-1.0319,-0.8424,-0.8377,-0.8564,-0.8862,-0.8781,-0.8832,-0.8933,-0.894,-0.8916,-0.8862,-0.8764,-0.8733,-0.8784,-0.8537,-0.8462,-0.856,-0.8408,-0.8231,-0.8041,-0.8147,-0.8136,-0.8038,-0.8038,-0.8038,-0.8038,-0.8038,-0.8038,-0.8041,-0.7955,-0.7965,-0.7975,-0.7999,-0.5751,-0.2413,0.0,0.0,0.0,0.0,0.0,0.0,0.0,0.0,0.0,0.0,0.0,0.0,0.0,0.0,0.0,0.0,0.0,-0.7038,-0.7176,-0.7811,-0.8184,-0.8289,-0.7205,-0.7535,-0.9656,-0.8143,-0.7369,-0.7394,-0.7329,-0.7397,-0.7716,-0.7588,-0.7634,-0.7722,-0.7846,-0.809,-0.8368,-0.8072,-0.8295,-0.864,-0.7894,-0.7852,-0.8308,-0.7848,-0.7458,0.0,-0.7876,-0.8427,-0.8783,-0.8805,-0.882,-0.8817,-0.8795,-0.9116,-0.9943,-1.2488,-1.38,-1.4302,-1.369,-1.4273,-1.5827,-1.8679,-1.8738,-1.8136,-1.8678,-1.859,-1.8252,-1.7856,-1.7682,-1.7585,-1.7437,-1.7647,-1.8155,-1.8768,-1.9147,-1.8959,-1.7687,-1.7007,-1.5462,-1.2265,-1.1787,-1.0826,-0.8374,-0.834,-0.855,-0.88,-0.876,-0.8855,-0.9008,-0.9015,-0.9015,-0.9015,-0.892,-0.8889,-0.894,-0.8689,-0.8584,-0.8628,-0.853,-0.8357,-0.8126,-0.8279,-0.8265,-0.8123,-0.8123,-0.8019,-0.8016,-0.7962,-0.8045,-0.7959,-0.8026,-0.7958,-0.7769,-0.5858,-0.2969,0.0,0.0,0.0,0.0,0.0,0.0,0.0,0.0,0.0,0.0,0.0,0.0,0.0,0.0,0.0,0.0,0.0,0.0,0.0,-0.7453,-0.7198,-0.7487,-0.8639,-0.7731,-0.8748,-1.2115,-0.9234,-0.7842,-0.7979,-0.712,-0.7123,-0.7903,-0.7148,-0.6953,-0.7186,-0.7528,-0.8211,-0.8991,-0.8259,-0.8777,-0.9893,-0.8887,-0.7901,-0.7231,-0.7578,-0.7907,-0.8093,-0.7966,-0.8306,-0.8811,-0.8824,-0.8862,-0.8839,-0.8682,-0.9472,-1.0787,-1.2401,-1.3801,-1.4763,-1.4239,-1.4921,-1.6348,-1.8821,-1.9036,-1.8831,-1.884,-1.8635,-1.8417,-1.821,-1.7782,-1.7094,0.0,0.0,-1.5659,-1.8438,-1.8354,-1.7721,-1.7272,-1.6967,-1.5852,0.0,0.0,0.0,0.0,0.0,-0.8375,-0.8635,-0.8763,-0.9005,-0.9147,-0.9161,-0.9164,-0.9164,-0.9157,-0.9086,-0.895,-0.8798,-0.8645,-0.8492,-0.8503,-0.8428,-0.8286,-0.8428,-0.8418,-0.8282,-0.8282,-0.8176,-0.8057,-0.8019,-0.7972,-0.8006,-0.7731,-0.7595,-0.7001,-0.1902,0.0,0.0,0.0,0.0,0.0,0.0,0.0,0.0,0.0,0.0,0.0,0.0,0.0,0.0,0.0,0.0,0.0,0.0,0.0,0.0,-0.7134,-0.7058,-0.7147,-0.7456,-0.8019,-0.9016,-1.0358,-0.9156,-0.8393,-0.8155,-0.7828,-0.7558,-0.736,-0.7781,-0.806,-0.8051,-0.8162,-0.8201,-0.8268,-0.8104,-0.8291,-0.8737,-0.8692,-0.8486,-0.8135,-0.808,-0.8644,-0.9428,-0.879,-0.8652,-0.8785,-0.8815,-0.9389,-0.9674,-0.7113,-0.739,-0.8689,-0.8964,-1.0778,-1.2957,-1.4436,-1.5264,-1.6386,-1.8809,-1.8972,-1.8698,-1.9179,-1.8698,-1.817,-1.7816,-1.6613,-1.5317,-1.4282,-1.4409,-1.5061,-1.6188,-1.6974,-1.7449,-1.7722,-1.7943,0.0,-1.3873,0.0,-1.1982,-0.8713,-0.8481,-0.8649,-0.883,-0.8638,-0.8815,-0.9171,-0.9286,-0.9456,-0.9323,-0.9211,-0.9133,-0.91,-0.8954,-0.8804,-0.8655,-0.8767,-0.8682,-0.8431,-0.8584,-0.857,-0.8428,-0.8428,-0.832,-0.8209,-0.8063,-0.805,-0.7638,-0.3565,-0.1998,-0.1896,-0.0531,0.0,0.0,0.0,0.0,0.0,0.0,0.0,0.0,0.0,0.0,0.0,0.0,0.0,0.0,0.0,0.0,0.0,0.0,0.0,0.0,0.0,-0.6875,-0.6999,-0.7006,-0.765,-0.819,-0.8492,-0.8713,-0.8581,-0.8089,-0.8106,-0.7991,-0.7837,-0.8063,-0.7919,-0.7565,-0.7992,-0.8143,-0.8115,-0.8042,-0.8669,0.0,0.0,-0.8751,-0.8595,-0.8537,-0.8901,-0.9438,-0.8985,-0.8825,-0.8978,0.0,0.0,-0.9155,-0.7447,-0.7537,-0.8355,-0.9135,0.0,-1.2678,-1.5561,-1.6673,-1.7328,-1.8984,-1.8711,-1.8216,-1.8404,-1.8016,-1.7508,-1.6934,-1.5625,-1.4249,-1.3173,-1.3627,-1.4362,0.0,0.0,0.0,-1.7702,-1.7989,-1.7051,0.0,-1.38,0.0,-0.895,-0.7567,-0.6341,-0.5043,-0.6032,-0.709,-0.7832,-0.8984,-0.9507,-0.9483,-0.9344,-0.9208,-0.9076,-0.8984,-0.8896,-0.8811,-0.8899,-0.8815,-0.8587,-0.874,-0.8726,-0.8581,-0.8591,-0.8481,-0.8468,-0.8088,-0.8065,-0.7957,-0.5081,-0.2329,0.0,0.0,0.0,0.0,0.0,0.0,0.0,0.0,0.0,0.0,0.0,0.0,0.0,0.0,0.0,0.0,0.0,0.0,0.0,0.0,0.0,0.0,0.0,0.0,-0.6996,-0.7007,-0.7017,-0.702,-0.7007,-0.8126,-0.8434,-0.7941,-0.8146,-0.8453,-0.8765,-0.8148,-0.7434,-0.6664,-0.7414,-0.7849,-0.8063,-0.8073,-0.9231,-1.0892,-0.9408,-0.8824,-0.8804,0.0,-0.8804,-0.8804,-0.8804,-0.8783,-0.9217,0.0,-1.0728,-0.824,-0.8704,-0.8673,-0.8942,-1.0699,-1.1383,-1.2438,-1.6059,-1.7792,-1.8774,-1.928,-1.8453,-1.7631,-1.7477,-1.6974,-1.6266,-1.5324,-1.4402,-1.3454,-1.2412,-1.2899,-1.3728,-1.4522,0.0,-1.5965,-1.7442,-1.7675,-1.7016,-1.4924,-1.4229,-1.2621,-0.9325,-0.6228,-0.3287,-0.0236,-0.2441,-0.478,-0.6712,-0.8567,-0.9543,-0.9622,-0.9147,-0.8836,-0.8897,-0.889,-0.887,-0.8944,-0.896,-0.8889,-0.8747,-0.8879,-0.8866,-0.874,-0.8652,-0.8537,-0.8294,-0.8181,-0.8246,-0.8574,-0.8796,-0.5667,-0.1069,-0.0321,0.0,0.0,0.0,0.0,0.0,0.0,0.0,0.0,0.0,0.0,0.0,0.0,-0.5491,-0.5297,0.0,0.0,0.0,0.0,0.0,0.0,0.0,0.0,0.0,-0.7007,-0.6976,-0.7015,-0.7007,-0.7715,-0.8103,-0.8128,-0.8534,-0.8758,-0.8811,-0.8644,-0.8148,-0.723,-0.6551,-0.6482,-0.6987,-0.8161,-0.8873,-0.9241,-0.8944,-0.8778,-0.8804,-0.8804,0.0,0.0,-0.8804,-0.8793,-0.9434,-1.3747,-1.233,-0.8696,-0.8649,-0.8679,-0.8955,-0.9444,-0.9507,-0.9614,-1.0681,-1.4988,-1.9212,-1.9325,-1.8453,-1.7902,-1.8844,-1.6453,0.0,-1.1837,-1.1824,-1.2064,-1.1857,-1.2612,-1.354,-1.4402,-1.5224,-1.6273,-1.7756,-1.8176,-1.7882,0.0,-1.5273,-1.3031,-0.9984,-0.6478,-0.33,-0.0239,-0.0478,-0.3234,-0.884,-0.9572,-0.97,-0.9796,-0.7083,-0.6727,-0.883,-0.9046,-0.9094,-0.8856,-0.9069,-0.9039,-0.8899,-0.8927,-0.8923,-0.8899,-0.8903,-0.7895,-0.6554,-0.8094,-0.8752,-0.8866,-0.8889,-0.8109,-0.6428,-0.1768,0.0,0.0,0.0,0.0,0.0,0.0,0.0,0.0,0.0,-0.676,-0.6366,-0.5944,-0.5554,-0.5309,-0.5309,-0.559,0.0,0.0,0.0,0.0,0.0,0.0,0.0,0.0,-0.8097,-0.844,-0.791,-0.8558,-0.8803,-0.8482,0.0,-0.8987,-0.8584,-0.8584,-0.8235,-0.7545,-0.6967,-0.6518,-0.6313,-0.7538,-0.8331,-0.8745,-0.8387,-0.848,-0.8804,0.0,0.0,0.0,0.0,0.0,0.0,-1.1395,-1.2322,-1.2164,-1.0292,-1.0025,-1.0095,-0.9237,-0.9067,-0.9172,-0.9483,-1.3168,-1.7304,-1.8713,-1.8151,-1.7244,-1.7264,0.0,0.0,0.0,-1.1156,-1.1476,-1.1683,-1.2405,0.0,-1.3941,-1.4676,-1.5665,-1.7141,-1.7609,-1.7559,-1.6789,-1.537,-1.324,-1.0123,-0.8316,-0.5192,-0.0365,0.0,-0.1342,-0.4512,-0.627,-0.798,-0.9703,-0.6623,-0.4751,-0.4295,-0.5962,-0.7544,-0.9086,-0.9027,-0.8974,-0.894,-0.894,-0.894,-0.8826,-0.7814,-0.7479,-0.7593,-0.8501,-0.895,-0.8933,-0.8866,-0.8845,-0.8397,-0.5673,-0.4593,-0.4194,0.0,0.0,0.0,0.0,0.0,0.0,0.0,-0.6889,-0.6488,-0.6098,-0.5672,-0.5404,-0.5316,-0.5538,-0.5712,0.0,0.0,0.0,0.0,0.0,0.0,0.0,0.0,0.0,0.0,0.0,0.0,-0.8798,-0.9205,0.0,0.0,0.0,0.0,0.0,-0.7442,-0.6897,-0.6115,-0.6999,-0.7741,0.0,0.0,-0.8262,0.0,0.0,0.0,0.0,0.0,0.0,0.0,0.0,-1.1269,-1.4001,-1.2297,-1.1387,-1.0699,-1.0004,-0.9628,-0.954,-0.9707,-1.2842,-1.6425,-1.8468,-1.7656,-1.6253,-1.5292,-1.3774,0.0,-1.1301,-1.1116,-1.1216,-1.159,-1.2151,-1.2779,0.0,-1.3988,-1.4863,-1.64,-1.6921,-1.7153,0.0,-1.5637,0.0,-1.1083,-1.0204,-0.7521,-0.1842,-0.0493,0.0,0.0,-0.246,-0.5025,-0.7667,-0.5205,-0.2637,-0.0,-0.2357,-0.4784,-0.722,-0.8375,-0.8984,-0.8947,-0.894,-0.894,-0.8826,-0.7254,-0.7479,-0.894,-0.8846,-0.8846,-0.8927,-0.892,-0.8882,-0.8886,-0.8873,-0.8915,-0.8253,0.0,0.0,0.0,0.0,0.0,0.0,0.0,-0.7314,-0.6901,-0.6488,-0.6091,-0.5703,-0.534,-0.5538,-0.5598,0.0,0.0,0.0,0.0,0.0,0.0,0.0,0.0,0.0,0.0,0.0,0.0,-0.9047,-0.8891,0.0,0.0,0.0,0.0,0.0,0.0,-0.7013,-0.6556,-0.7131,0.0,0.0,0.0,0.0,0.0,0.0,0.0,0.0,0.0,0.0,0.0,0.0,0.0,-1.0063,-1.3518,-1.1915,-0.9366,-1.204,0.0,0.0,-0.9817,-1.5092,-2.0318,-1.9566,-1.716,-1.483,-1.435,0.0,-1.1145,-1.1083,-1.1069,-1.1096,-1.1396,-1.1724,-1.2238,-1.3106,-1.352,-1.4329,-1.6066,-1.6794,-1.7589,-1.8552,0.0,0.0,-1.4237,-1.1522,-0.8732,-0.6128,-0.221,0.0,0.0,-0.0247,-0.0617,-0.0862,-0.0616,-0.0244,-0.0,-0.024,-0.059,-0.0916,-0.6526,-0.911,-0.886,-0.895,-0.894,-0.8937,-0.8712,-0.8716,-0.894,-0.894,-0.894,-0.8937,-0.8923,-0.892,-0.892,-0.8906,-0.891,-0.8813,0.0,0.0,0.0,0.0,0.0,0.0,-0.7695,-0.7373,-0.6961,-0.654,-0.616,-0.5734,-0.534,-0.5384,-0.5501,0.0,0.0,0.0,0.0,0.0,0.0,0.0,0.0,0.0,0.0,0.0,-0.9644,-0.9221,-0.9636,0.0,0.0,0.0,0.0,0.0,0.0,-0.8143,-0.7613,-0.8069,0.0,0.0,0.0,0.0,0.0,0.0,0.0,0.0,0.0,0.0,-0.8776,0.0,0.0,0.0,-1.0744,-1.0047,0.0,0.0,-1.2181,-1.3942,-1.109,-1.4118,-1.7737,-1.7132,-1.5748,-1.464,-1.465,0.0,-1.1729,-1.1332,-1.1002,-1.0822,-1.1109,-1.1403,-1.1837,-1.2552,-1.2759,-1.3394,-1.499,-1.6202,-1.7246,-1.8037,-1.7235,-1.6115,-1.4692,-1.1715,-0.9444,-0.8625,-0.69,-0.5049,-0.3077,-0.111,0.0,0.0,0.0,-0.1846,-0.5882,-0.5577,-0.536,-0.5573,-0.7946,-0.899,-0.8954,-0.8944,-0.894,-0.894,-0.894,-0.894,-0.893,-0.8729,-0.8692,-0.8801,-0.8692,-0.8743,-0.8686,-0.8869,-0.8882,-0.8927,0.0,0.0,0.0,0.0,0.0,-0.7569,-0.7666,-0.7471,-0.7127,-0.673,-0.6336,-0.5913,-0.5522,-0.5372,-0.5491,-0.5921,0.0,0.0,0.0,0.0,0.0,0.0,0.0,0.0,0.0,0.0,-0.972,-0.9587,-0.9816,-0.9736,0.0,0.0,-0.9072,-0.8693,0.0,0.0,0.0,0.0,0.0,0.0,0.0,0.0,0.0,0.0,0.0,0.0,0.0,0.0,0.0,0.0,0.0,0.0,0.0,0.0,0.0,0.0,-1.3262,-1.7002,-1.403,-1.5048,-1.6792,-1.6255,-1.5442,-1.4791,0.0,0.0,-1.1565,-1.1348,-1.0902,-1.0648,-1.0942,-1.1229,-1.159,-1.2091,-1.2318,-1.2893,-1.4208,-1.5812,-1.7176,-1.7742,0.0,-1.687,-1.503,-1.1745,-0.9802,-0.9754,-0.9764,-0.8763,-0.6517,-0.4187,-0.1973,-0.0,-0.1851,-0.5056,-0.95,-0.9223,-0.9058,-0.9116,-0.8964,-0.8947,-0.895,-0.8944,-0.894,-0.8937,-0.8893,-0.8896,-0.8923,-0.8615,-0.8562,-0.8598,-0.8585,-0.8515,-0.856,-0.8835,-0.8835,-0.8824,0.0,0.0,0.0,0.0,0.0,0.0,-0.7637,-0.7695,-0.7539,-0.7148,-0.6751,-0.6336,-0.5944,-0.5554,-0.5508,-0.6059,0.0,0.0,0.0,0.0,0.0,0.0,0.0,0.0,0.0,0.0,-0.9184,-1.0293,-0.8986,-0.863,-0.9187,-0.8869,-0.8692,-0.8659,0.0,0.0,0.0,0.0,0.0,0.0,0.0,0.0,0.0,0.0,0.0,0.0,0.0,0.0,0.0,0.0,0.0,0.0,0.0,0.0,-0.9246,-1.1578,-1.4819,-1.7839,-1.8966,-1.9323,-1.9205,-1.8345,-1.658,-1.4924,-1.4589,-1.2257,-1.0266,-1.0909,-1.0768,-1.0648,-1.0942,-1.1229,-1.1523,-1.1824,-1.2439,-1.3138,-1.3961,-1.5863,-1.7527,0.0,-1.7647,-1.6612,-1.5601,-1.2081,-0.9822,-0.9822,-0.9842,-0.9734,-0.9731,-0.9764,-0.666,-0.0246,-0.6302,-0.9493,-0.8856,-0.918,-0.9258,-0.8869,-0.894,-0.8863,-0.886,-0.895,-0.894,-0.893,-0.8777,-0.8798,-0.8916,-0.8611,-0.8461,-0.837,-0.8548,-0.8531,-0.8551,-0.8752,-0.8811,-0.8669,0.0,0.0,0.0,0.0,0.0,0.0,0.0,-0.753,-0.7684,-0.7579,-0.7177,-0.6763,-0.6344,-0.6206,-0.6183,-0.6372,0.0,0.0,0.0,0.0,0.0,0.0,0.0,0.0,0.0,0.0,-0.8171,-0.8526,-0.9303,-0.978,-0.9942,-0.9834,-0.9802,-0.9765,-0.8911,-0.7939,0.0,0.0,0.0,0.0,0.0,0.0,0.0,0.0,0.0,0.0,0.0,0.0,0.0,0.0,0.0,0.0,0.0,0.0,0.0,-0.9667,-1.1315,0.0,-1.2923,-1.3144,-1.355,-1.4097,-1.3443,-1.2744,-1.3222,-1.21,-1.0962,-1.1002,-1.0762,-1.0648,-1.0942,-1.1229,-1.159,-1.2084,-1.2672,-1.3612,-1.5112,0.0,0.0,-2.0191,-1.9227,-1.7604,-1.5162,-1.2848,-1.102,-0.994,-0.9829,-0.9832,-0.9832,-0.9643,-0.764,-0.3265,-0.5088,-0.7108,-0.9029,-0.9112,-0.9118,-0.9057,-0.9022,-0.895,-0.895,-0.8944,-0.894,-0.8937,-0.8889,-0.8896,-0.8913,-0.8608,-0.857,-0.8578,-0.8472,-0.8387,-0.8418,-0.8686,-0.8615,-0.8442,0.0,0.0,0.0,0.0,0.0,0.0,0.0,-0.7442,-0.7704,-0.7748,-0.7519,-0.7204,-0.6778,-0.6735,-0.6721,-0.6661,0.0,0.0,0.0,0.0,0.0,0.0,0.0,0.0,0.0,-0.7715,-0.7703,-0.7697,-0.8767,-0.9651,-1.0283,-1.0283,-0.9845,-0.909,-0.9429,-0.8635,0.0,0.0,0.0,0.0,0.0,0.0,-0.8826,0.0,0.0,0.0,0.0,0.0,0.0,0.0,0.0,0.0,0.0,0.0,0.0,0.0,-0.9432,-1.0242,0.0,-1.1273,-1.189,-1.2633,-1.2378,0.0,-1.2359,-1.1817,-1.1182,-1.0889,-1.0752,-1.0678,-1.0795,-1.1156,-1.1543,-1.1911,-1.2941,-1.4166,-1.5582,0.0,0.0,-2.2016,-2.0666,-1.8405,-1.5346,-1.33,-1.1471,-0.9864,-0.9741,-0.9717,-0.9656,-0.9585,-0.8437,-0.6366,-0.6289,-0.7212,-0.9093,-0.899,-0.9024,-0.9069,-0.8923,-0.8852,-0.8852,-0.8794,-0.8798,-0.8849,-0.8791,-0.8832,0.0,-0.855,-0.8523,-0.8686,-0.8445,-0.8319,-0.8306,-0.8601,-0.8523,-0.8326,0.0,0.0,0.0,0.0,0.0,0.0,0.0,0.0,-0.7686,-0.7783,-0.7825,-0.768,-0.7245,-0.7184,-0.7124,-0.6931,0.0,0.0,0.0,0.0,0.0,0.0,0.0,0.0,-0.7706,-0.7701,-0.7701,-0.7696,-0.7963,-0.8864,-1.038,-1.0322,-0.9195,-0.7295,-0.9253,-0.8943,0.0,0.0,0.0,0.0,0.0,0.0,0.0,0.0,0.0,0.0,0.0,0.0,0.0,0.0,0.0,0.0,0.0,0.0,0.0,0.0,0.0,0.0,0.0,-1.2692,-1.336,-1.336,-1.2959,-1.2486,-1.1844,-1.1323,0.0,-1.0588,-1.0611,-1.0645,-1.0705,-1.1076,-1.1456,-1.1536,-1.3142,-1.4713,-1.5594,-1.9022,0.0,0.0,-2.1836,-1.9301,-1.6291,-1.381,-1.165,-0.9853,-0.9598,-0.953,-0.9388,-0.9371,-0.93,-0.9157,-0.9181,-0.9076,-0.8937,-0.9034,-0.9069,-0.8937,-0.8784,-0.8716,-0.872,-0.8557,-0.857,-0.8716,-0.8564,-0.8659,-0.8889,-0.8472,-0.8465,-0.8696,-0.854,-0.8408,-0.8336,-0.8611,-0.853,-0.833,0.0,0.0,0.0,0.0,0.0,0.0,0.0,0.0,0.0,0.0,-0.8441,-0.8223,-0.81,-0.8099,-0.7822,0.0,0.0,0.0,0.0,0.0,0.0,0.0,0.0,0.0,-0.7684,-0.7705,-0.7709,-0.7684,-1.0364,-1.1557,-1.1295,-1.0512,-0.9875,-0.9331,-0.875,-0.7904,0.0,0.0,0.0,0.0,0.0,0.0,0.0,0.0,0.0,0.0,-0.9105,-0.9336,0.0,0.0,0.0,0.0,0.0,0.0,0.0,0.0,-0.8858,-0.9018,-0.9499,0.0,-1.0615,-1.0615,-1.0675,-1.0641,0.0,-1.0441,-1.0575,-1.0281,0.0,-1.0826,-1.1436,-1.149,-1.1724,-1.2645,-1.3573,-1.495,-1.7236,-2.1607,0.0,-2.3638,-2.319,-2.1521,-1.7799,-1.5287,-1.3152,-1.1589,-1.0193,-0.9418,-0.9384,-0.9269,-0.9191,-0.9154,-0.9086,-0.892,-0.8883,-0.8991,-0.8974,-0.8937,-0.8784,-0.8771,-0.8876,-0.8604,-0.8628,-0.8876,-0.8723,-0.8699,-0.8757,-0.8652,-0.8648,-0.8696,-0.854,-0.8533,-0.8615,-0.8575,-0.8485,-0.8364,0.0,0.0,0.0,0.0,0.0,0.0,0.0,0.0,0.0,0.0,0.0,0.0,0.0,0.0,0.0,0.0,0.0,0.0,0.0,0.0,0.0,0.0,0.0,-0.7695,-0.7695,-0.7695,-0.7886,-0.8314,-1.058,-1.1529,-1.1206,-1.0396,-0.964,-0.8923,-0.7948,-0.7496,0.0,0.0,0.0,0.0,-0.7185,0.0,0.0,0.0,0.0,0.0,-0.8806,-0.8908,0.0,-0.9389,-0.9232,-0.8804,0.0,0.0,0.0,0.0,-0.8804,-0.8804,-0.8804,-0.9232,-0.9719,-0.9846,-1.0,-1.0107,-1.0094,0.0,0.0,0.0,0.0,-1.0813,-1.1356,-1.1443,-1.1864,-1.3311,-1.4655,-1.6692,0.0,0.0,-2.5121,-2.5086,-2.4026,-2.2213,-1.9623,-1.6319,-1.3601,-1.1799,-1.0226,-0.9249,-0.9181,-0.91,-0.9022,-0.8954,-0.8876,-0.8869,-0.894,-0.894,-0.894,-0.8937,-0.8784,-0.8754,-0.8825,-0.8523,-0.855,-0.8821,-0.8604,-0.8584,-0.8699,-0.8564,-0.8547,-0.8591,-0.8442,-0.8476,-0.8604,-0.8495,-0.8444,-0.8407,0.0,0.0,0.0,0.0,0.0,0.0,0.0,0.0,0.0,0.0,0.0,0.0,0.0,0.0,0.0,0.0,0.0,0.0,0.0,0.0,0.0,0.0,0.0,-0.7725,-0.7802,-0.7734,-0.8114,-0.9004,-0.9934,-1.0497,-1.0644,-1.02,-0.9123,-0.7558,-0.7177,-0.7328,0.0,0.0,0.0,0.0,-0.7389,0.0,0.0,0.0,0.0,0.0,0.0,0.0,0.0,-0.8804,-0.8804,-0.8804,-0.8804,0.0,0.0,0.0,0.0,0.0,-0.8864,-0.9365,-0.99,-0.9967,-1.0053,-1.0174,-1.0381,0.0,0.0,0.0,0.0,0.0,0.0,-1.156,0.0,-1.4061,-1.6223,0.0,-2.3261,-2.4351,-2.5264,-2.6748,-2.4622,-2.26,-2.1238,-1.7428,-1.4142,-1.1841,-1.0355,-0.9276,-0.891,-0.8903,-0.8832,-0.8679,-0.8676,-0.8737,-0.8869,-0.8893,-0.8916,-0.8937,-0.8784,-0.871,-0.8699,-0.8404,-0.8418,-0.8662,-0.8387,-0.8414,-0.8625,-0.8397,-0.836,-0.8442,-0.8367,-0.8411,-0.8516,-0.8407,-0.8516,-0.8533,0.0,0.0,0.0,0.0,0.0,0.0,0.0,0.0,0.0,0.0,0.0,0.0,0.0,0.0,0.0,0.0,0.0,0.0,0.0,0.0,0.0,-0.7695,-0.7695,-0.79,-0.8271,-0.792,-0.8114,-0.9004,-1.0342,-1.0646,-1.0058,-1.0243,-0.9321,-0.7486,-0.7154,-0.7063,-0.7154,0.0,0.0,0.0,-0.7074,0.0,0.0,0.0,0.0,0.0,0.0,0.0,0.0,-0.8804,-0.8804,-0.8804,-0.8804,0.0,0.0,0.0,0.0,0.0,-0.905,-0.9967,-1.0561,-0.9555,-0.9746,-1.006,0.0,0.0,0.0,0.0,0.0,0.0,0.0,-1.323,-1.4179,0.0,0.0,-2.1253,-2.3519,-2.5194,-2.6182,-2.6455,-2.5912,-2.4611,-2.212,-1.9462,-1.6618,-1.3608,-1.178,-1.0202,-0.8754,-0.8747,-0.8676,-0.8523,-0.8516,-0.8526,-0.8554,-0.8679,-0.8811,-0.8937,-0.8784,-0.871,-0.8699,-0.8404,-0.836,-0.8509,-0.8343,-0.8296,-0.8343,-0.8418,-0.8391,-0.8326,-0.8554,-0.8655,-0.8676,-0.8786,-0.8786,-0.888,0.0,0.0,0.0,0.0,0.0,0.0,0.0,0.0,0.0,0.0,0.0,0.0,0.0,0.0,0.0,0.0,0.0,0.0,0.0,0.0,0.0,-0.8066,-0.8076,-0.8174,-0.8401,-0.8408,-0.8688,-0.9346,-0.9953,-1.0045,-0.9678,-0.9245,-0.8577,-0.7702,-0.7215,-0.7189,-0.7447,-0.7147,-0.6979,-0.6979,0.0,0.0,0.0,0.0,0.0,0.0,0.0,0.0,0.0,0.0,-0.8677,-0.8804,-0.8804,0.0,0.0,0.0,0.0,0.0,-0.8971,-0.9746,-1.0388,-0.9846,-1.0394,-1.0942,0.0,0.0,0.0,0.0,0.0,0.0,0.0,0.0,-1.5605,-1.8981,-2.1194,-2.3128,-2.4676,-2.5392,-2.5937,-2.6641,-2.5195,-2.3691,-2.2656,-1.9375,-1.6545,-1.4744,-1.2455,-1.0699,-0.9881,-0.9133,-0.8604,-0.8374,-0.8367,-0.8367,-0.8367,-0.8438,-0.8547,-0.8693,-0.8621,-0.8587,-0.8581,-0.8367,-0.8347,-0.8469,-0.8245,-0.8194,-0.8269,-0.8252,-0.8204,-0.8157,-0.8296,-0.8397,-0.8482,-0.8666,-0.8587,-0.8468,0.0,0.0,0.0,0.0,0.0,0.0,0.0,0.0,0.0,0.0,0.0,0.0,0.0,0.0,0.0,0.0,0.0,0.0,0.0,0.0,-0.8174,-0.8506,-0.8623,-0.8672,-0.8672,-0.8887,-0.9188,-0.959,-0.9529,-0.9459,-0.9328,-0.8303,-0.7802,-0.7772,-0.7398,-0.7447,-0.787,-0.7405,-0.7196,-0.7189,0.0,0.0,0.0,0.0,0.0,0.0,0.0,0.0,0.0,0.0,0.0,0.0,0.0,0.0,0.0,-0.8804,-0.8804,-0.8824,-0.8891,-0.9499,-1.01,-1.0033,0.0,0.0,0.0,0.0,0.0,0.0,0.0,0.0,0.0,-1.4524,0.0,-2.1065,-2.2938,-2.4424,-2.584,-2.5654,-2.582,-2.7021,-2.4718,-2.3034,-2.2731,-1.9368,-1.6751,-1.5364,-1.3291,-1.1684,-1.0809,-0.9652,-0.8797,-0.8225,-0.8218,-0.8218,-0.8218,-0.8218,-0.8306,-0.8482,-0.8482,-0.8465,-0.8428,-0.8319,-0.8309,-0.8364,-0.814,-0.8106,-0.8208,-0.8089,-0.8038,-0.8041,-0.8079,-0.8167,-0.8282,-0.8391,-0.8219,-0.8102,0.0,0.0,0.0,0.0,0.0,0.0,0.0,0.0,0.0,0.0,0.0,0.0,0.0,0.0,0.0,0.0,0.0,0.0,0.0,0.0,-0.8926,-0.8955,-0.9301,-0.9505,-0.9505,-0.9189,-0.9154,-0.9512,-0.95,-0.9291,-0.892,-0.7986,-0.752,-0.7555,-0.7751,-0.787,-0.7912,-0.7836,-0.7829,-0.7787,-0.7231,0.0,0.0,0.0,0.0,0.0,0.0,0.0,0.0,0.0,0.0,0.0,0.0,0.0,-0.8804,-0.8804,-0.8804,-0.8864,-0.9084,-0.9653,-1.0053,-0.978,-1.0388,0.0,-1.2031,-1.1997,0.0,-1.2879,0.0,0.0,0.0,-1.6696,-1.9489,-2.1244,-2.3085,-2.4971,-2.668,-2.6562,-2.6621,-2.751,-2.5955,-2.42,-2.2495,-2.0883,-1.8604,-1.5309,-1.4856,-1.3392,-1.042,-1.0099,-0.9415,-0.8062,-0.8055,-0.8055,-0.8055,-0.8055,-0.8197,-0.8482,-0.8482,-0.8414,-0.8286,-0.8275,-0.8197,-0.8069,-0.8048,-0.8045,-0.8055,-0.8045,-0.8038,-0.8055,-0.8197,-0.8258,-0.8272,-0.8282,-0.818,-0.8054,0.0,0.0,0.0,0.0,0.0,0.0,0.0,0.0,0.0,0.0,0.0,0.0,0.0,0.0,0.0,0.0,0.0,0.0,0.0,-0.9238,-0.9121,-0.9349,-0.9515,-0.9571,-0.9523,-0.9384,-0.9373,-0.9518,-0.8981,-0.8392,-0.7699,-0.7562,-0.7757,-0.8204,-0.7623,-0.7731,-0.8357,-0.7648,-0.7321,-0.7321,-0.7105,-0.7268,0.0,0.0,0.0,0.0,0.0,0.0,0.0,0.0,-0.8657,-0.8804,-0.8804,-0.8804,-0.8804,-0.8804,-0.8804,-0.8831,-0.8938,-0.9532,-1.0094,-0.998,-1.0474,0.0,0.0,-1.2378,-1.2852,-1.3373,-1.4001,0.0,0.0,0.0,-2.0158,-2.198,-2.3102,-2.4447,-2.6705,-2.665,-2.629,-2.6003,-2.4535,-2.2917,-2.1199,-1.9626,-1.7975,-1.6433,-1.5312,-1.3824,-1.1687,-1.0668,-0.9481,-0.8041,-0.8038,-0.8038,-0.8038,-0.8038,-0.8096,-0.8208,-0.8208,-0.818,-0.8126,-0.8126,-0.8096,-0.8038,-0.8038,-0.8038,-0.8038,-0.8038,-0.8038,-0.8045,-0.8102,-0.8126,-0.8126,-0.8126,-0.8026,-0.8016,0.0,0.0,0.0,0.0,0.0,0.0,0.0,0.0,0.0,0.0,0.0,0.0,0.0,0.0,0.0,0.0,0.0,0.0,-0.9834,-0.957,-0.9541,-0.9824,-0.9834,-0.9782,-0.9755,-0.9439,-0.9159,-0.8999,-0.825,-0.7566,-0.7027,-0.7228,-0.7645,-0.8136,-0.7565,-0.7731,-0.8398,-0.7607,-0.728,-0.7286,-0.7213,-0.7341,0.0,0.0,0.0,0.0,0.0,0.0,0.0,0.0,-0.8644,-0.8804,-0.8804,-0.8804,-0.8804,-0.8804,-0.8804,-0.8804,-0.8804,-0.9245,-0.9746,-0.9933,0.0,0.0,-1.2091,-1.2839,-1.3561,-1.4322,-1.4987,-1.5974,-1.7478,0.0,-2.0515,-2.2362,-2.3342,-2.4579,-2.655,-2.6019,-2.5248,-2.4827,-2.279,-2.1083,-2.003,-1.8393,-1.7188,-1.6894,-1.5764,-1.4319,-1.2386,-1.1274,-0.9925,-0.8041,-0.8038,-0.8038,-0.8038,-0.8038,-0.8038,-0.8038,-0.8038,-0.8038,-0.8038,-0.8038,-0.8038,-0.8038,-0.8038,-0.8038,-0.8038,-0.8038,-0.8038,-0.8038,-0.8038,-0.8038,-0.8038,-0.8038,-0.8038,-0.8038,0.0,0.0,0.0,0.0,0.0,0.0,0.0,0.0,0.0,0.0,0.0,0.0,0.0,0.0,0.0,0.0,0.0,0.0,-1.0283,-1.0283,-1.0283,-1.0283,-1.0283,-1.0283,-1.0283,-0.9239,-0.8439,-0.787,-0.728,-0.6979,-0.6979,-0.6979,-0.7021,-0.7021,-0.7621,-0.7912,-0.7919,-0.787,-0.7878,-0.7866,-0.7612,-0.7655,-0.7922,0.0,0.0,0.0,0.0,0.0,0.0,0.0,-0.8804,-0.8804,-0.8804,-0.8804,-0.8804,-0.8804,-0.8804,-0.8804,-0.8804,-0.8811,-0.8958,0.0,0.0,0.0,-1.2879,-1.3447,-1.4148,-1.5912,-1.648,-1.7247,-1.9364,-2.014,-2.0793,-2.2017,-2.3841,-2.5371,-2.626,-2.4622,-2.3501,-2.417,-2.0931,-1.8783,-1.9112,-1.7659,-1.6587,-1.6293,-1.6273,-1.5045,-1.2058,-1.1945,-1.0779,-0.8137,-0.8038,-0.8038,-0.8041,-0.8041,-0.8038,-0.8038,-0.8038,-0.8038,-0.8038,-0.8038,-0.8038,-0.8038,-0.8038,-0.8038,-0.8038,-0.8038,-0.8038,-0.8038,-0.8038,-0.8038,-0.8038,-0.8038,-0.8038,-0.8038,0.0,0.0,0.0,0.0,0.0,0.0,0.0,0.0,0.0,0.0,0.0,0.0,0.0,0.0,0.0,0.0,0.0,0.0,-1.0283,-1.0283,-1.0283,-1.0283,-0.9922,-0.9716,-0.9716,-0.8683,-0.7863,-0.728,-0.7105,-0.6979,-0.6979,-0.6979,-0.7231,-0.7614,-0.7363,-0.7489,-0.787,-0.7447,-0.7404,-0.7605,-0.7517,-0.7822,-0.825,0.0,0.0,0.0,0.0,0.0,0.0,0.0,0.0,0.0,-0.8804,-0.8804,-0.8804,-0.8804,-0.8804,-0.8804,-0.8804,-0.8799,0.0,-0.8998,0.0,0.0,0.0,-1.3762,0.0,0.0,-1.9051,-2.0239,-2.013,-2.1112,-2.2108,-2.2564,-2.3257,-2.4284,-2.5742,-2.4581,-2.3188,-2.2235,-2.0261,-1.8647,-1.7538,-1.6864,-1.6366,-1.6279,-1.6079,-1.514,-1.3397,-1.3295,-1.2522,-1.0774,-1.0779,-1.0288,-0.941,-0.941,-0.8924,-0.8038,-0.8038,-0.8038,-0.8038,-0.8038,-0.8038,-0.8038,-0.8038,-0.8038,-0.8038,-0.8038,-0.8038,-0.8038,-0.8038,-0.8038,-0.8038,-0.8038,-0.8038,-0.8038,0.0,0.0,0.0,0.0,0.0,0.0,0.0,0.0,0.0,0.0,0.0,0.0,0.0,0.0,0.0,0.0,0.0,0.0,0.0,-1.0283,-1.0283,-1.0283,-1.0,-0.9716,-0.9518,-0.8878,-0.8267,-0.7682,-0.7231,-0.6979,-0.6979,-0.6979,-0.7257,-0.7717,-0.7201,-0.7257,-0.7724,-0.7373,-0.7301,-0.7533,-0.7775,-0.8098,-0.8434,0.0,0.0,0.0,0.0,0.0,0.0,0.0,0.0,0.0,-0.8804,-0.8804,-0.8804,-0.8804,-0.8804,-0.8804,-0.8804,-0.8799,0.0,-0.8779,-1.0405,-1.235,-1.388,0.0,0.0,0.0,-1.9486,-2.1027,-2.1181,-2.1698,-2.2464,-2.3533,-2.3927,-2.4373,-2.5333,-2.3809,-2.2132,-2.1112,-1.9094,-1.7471,-1.6639,-1.6273,-1.6092,-1.6092,-1.5925,-1.5242,-1.3974,-1.3878,-1.3295,-1.1945,-1.1945,-1.1263,-0.9998,-0.9998,-0.9316,-0.8038,-0.8038,-0.8038,-0.8038,-0.8038,-0.8038,-0.8038,-0.8038,-0.8038,-0.8038,-0.8038,-0.8038,-0.8038,-0.8038,-0.8038,-0.8038,-0.8038,-0.8038,-0.8038,0.0,0.0,0.0,0.0,0.0,0.0,0.0,0.0,0.0,0.0,-0.6979,0.0,0.0,0.0,0.0,0.0,0.0,0.0,0.0,0.0,-1.0283,-1.0283,-1.0283,-1.004,-0.9518,-0.9518,-0.9279,-0.8756,-0.7712,-0.7174,-0.707,-0.7159,-0.7278,-0.75,-0.7214,-0.7255,-0.7553,-0.7553,-0.7567,-0.7641,-0.8199,-0.844,-0.8444,-0.8704,0.0,0.0,0.0,0.0,0.0,0.0,0.0,0.0,-0.8804,-0.8804,-0.8804,-0.8804,-0.8798,-0.8798,-0.8778,0.0,0.0,-0.9086,-1.0439,0.0,-1.5221,-1.5419,-1.5369,-1.6619,-1.8155,-1.9964,-2.2232,-2.1998,-2.2226,-2.4617,-2.5039,-2.5059,-2.501,-2.2649,-2.0787,-2.0624,-1.7787,-1.5965,-1.6213,-1.5985,-1.5832,-1.5832,-1.5832,-1.5337,-1.4166,-1.407,-1.3488,-1.2334,-1.2237,-1.1653,-1.0386,-1.0194,-0.9509,-0.8134,-0.8038,-0.8038,-0.8038,-0.8038,-0.8038,-0.8038,-0.8038,-0.8038,-0.8038,-0.8038,-0.8038,-0.8038,-0.8038,-0.8038,-0.8038,-0.8038,-0.8038,-0.8038,0.0,0.0,0.0,0.0,0.0,0.0,0.0,0.0,0.0,0.0,0.0,0.0,0.0,0.0,0.0,0.0,0.0,0.0,0.0,0.0,-1.0283,-1.0283,-1.0283,-1.004,-0.9518,-0.9518,-0.9439,-0.9319,-0.8989,-0.8442,-0.7712,-0.8253,-0.8122,-0.752,-0.7655,-0.7722,-0.7829,-0.7829,-0.7963,-0.8239,-0.8373,-0.851,-0.8717,-0.8784,-0.8804,0.0,0.0,0.0,0.0,0.0,0.0,0.0,-0.8804,-0.8804,-0.8804,-0.8804,-0.8797,-0.8797,-0.8815,-0.8776,0.0,0.0,-1.3193,-1.4994,-1.5671,-1.5724,-1.5662,-1.5611,-1.6184,-1.7882,-2.1854,-2.246,-2.2806,-2.4316,-2.4844,-2.4951,-2.4609,-2.2607,-2.0873,-2.0301,-1.7853,-1.6112,-1.5939,-1.5865,-1.5832,-1.5832,-1.5832,-1.5635,-1.5439,-1.5439,-1.5248,-1.4956,-1.4956,-1.437,-1.3097,-1.2042,-1.0877,-0.9509,-0.8528,-0.8038,-0.8038,-0.8038,-0.8038,-0.8038,-0.8038,-0.8038,-0.8038,-0.8038,-0.8038,-0.8038,-0.8038,-0.8038,-0.8038,-0.8038,-0.8038,-0.8038,0.0,0.0,0.0,0.0,0.0,0.0,0.0,0.0,0.0,0.0,0.0,0.0,0.0,0.0,0.0,0.0,0.0,0.0,0.0,0.0,-1.0283,-1.0283,-1.0283,-1.0253,-1.0165,-1.0174,-1.0268,-1.0507,-1.0303,-0.9495,-0.811,-0.8178,-0.8133,-0.795,-0.7923,-0.8009,-0.8143,-0.8143,-0.8237,-0.8434,-0.8524,-0.8671,-0.8804,-0.8804,-0.8804,-0.8804,-0.8804,0.0,0.0,0.0,0.0,0.0,0.0,0.0,-0.8804,-0.8804,-0.8823,-0.9099,-1.0394,0.0,0.0,-1.2608,0.0,-1.581,-1.5833,-1.5832,-1.5697,-1.5577,-1.5688,-1.6725,-1.9979,-2.1181,-2.2057,-2.3317,-2.4054,-2.4375,-2.415,-2.2102,-2.0475,-1.9928,-1.7545,-1.5999,-1.5845,-1.5832,-1.5832,-1.5832,-1.5832,-1.5832,-1.5832,-1.5832,-1.5832,-1.5832,-1.5832,-1.5146,-1.3878,-1.2512,-1.1168,-0.9998,-0.8547,-0.797,-0.8038,-0.8038,-0.8038,-0.8038,-0.8038,-0.8038,-0.8038,-0.8038,-0.8038,-0.8038,-0.8038,-0.8038,-0.8038,-0.8038,-0.8038,-0.8038,0.0,0.0,0.0,0.0,0.0,0.0,0.0,0.0,0.0,0.0,0.0,0.0,0.0,0.0,0.0,0.0,0.0,0.0,0.0,0.0,0.0,-1.0391,-1.0459,-1.0624,-1.0839,-1.0974,-1.1159,-1.1421,-1.1205,-1.0283,-0.861,-0.8127,-0.8078,-0.8363,-0.8023,-0.8069,-0.845,-0.8342,-0.8342,-0.847,-0.8711,-0.8804,-0.8804,-0.8804,-0.8804,-0.8804,-0.8804,-0.8804,-0.8804,-0.8804,0.0,0.0,0.0,0.0,-0.8804,-0.8804,-0.8791,-0.9313,-1.1582,0.0,-1.1438,-1.3593,-1.4911,0.0,-1.5705,-1.5718,-1.5758,-1.5651,-1.5697,-1.6265,-1.7618,-1.9127,-2.0666,-2.2119,-2.2833,-2.329,-2.3602,-2.1393,-1.9706,-1.9538,-1.7296,-1.5812,-1.5758,-1.5798,-1.5805,-1.5758,-1.5798,-1.5832,-1.5832,-1.5832,-1.5832,-1.5832,-1.5785,-1.5266,-1.4195,-1.2514,-1.1172,-1.0188,-0.8601,-0.7841,-0.7963,-0.7963,-0.7977,-0.8001,-0.8028,-0.8024,-0.8001,-0.8028,-0.8038,-0.8038,-0.8038,-0.8038,-0.8038,-0.8038,-0.8038,-0.8038,0.0,0.0,0.0,0.0,0.0,0.0,0.0,0.0,0.0,0.0,0.0,0.0,0.0,0.0,0.0,0.0,0.0,0.0,-1.0244,0.0,0.0,-1.082,-1.1191,-1.119,-1.0667,-1.1204,-1.1233,-1.0749,-1.0795,-1.053,0.0,-0.9635,-0.9127,-0.8383,-0.7905,-0.8122,-0.8698,-0.8047,-0.8159,-0.8751,-0.8791,-0.8804,-0.8804,-0.8804,-0.8804,-0.8804,-0.8804,-0.8804,-0.8804,-0.8804,-0.8804,0.0,0.0,0.0,-0.8804,-0.8804,-0.879,-0.8901,0.0,0.0,-1.2367,0.0,-1.4614,-1.5095,0.0,0.0,-1.5663,-1.5239,-1.5444,-1.5893,-1.6053,-1.7245,-1.8827,-2.1086,-2.0959,-2.1213,-2.2909,-2.0491,-1.8785,-1.9446,-1.7296,-1.5732,-1.5478,-1.5678,-1.5725,-1.5471,-1.5691,-1.5832,-1.5832,-1.5832,-1.5832,-1.5832,-1.5585,-1.5358,-1.5166,-1.2646,-1.1246,-1.1091,-0.8753,-0.7638,-0.7658,-0.7658,-0.7726,-0.7848,-0.798,-0.7963,-0.7851,-0.7984,-0.8038,-0.8038,-0.8038,-0.8038,-0.8038,-0.8038,-0.8038,-0.8038,0.0,0.0,0.0,0.0,0.0,0.0,0.0,0.0,0.0,0.0,0.0,0.0,0.0,0.0,0.0,-0.8635,-0.9199,-0.9725,-1.0244,-1.0459,-1.0557,-1.0557,-1.0742,-1.0981,-1.1148,-1.1465,-1.1708,-1.1865,-1.1508,0.0,0.0,-1.0046,-0.9393,-0.8624,-0.7994,-0.8103,-0.8699,-0.7557,-0.7723,-0.8752,-0.8374,-0.8427,-0.8804,-0.8804,-0.8804,-0.8804,-0.8804,-0.8804,-0.8804,-0.8804,-0.8804,-0.8804,-0.8804,0.0,0.0,0.0,-0.8778,0.0,-0.8783,-0.9554,-1.0751,0.0,-1.3768,-1.4538,-1.4536,-1.4641,-1.4851,-1.4949,-1.5279,-1.5504,-1.5792,-1.7008,-1.828,-1.9139,-1.9537,-2.0037,-2.097,-1.9269,-1.8123,-1.8427,-1.6936,-1.5712,-1.5424,-1.5511,-1.5464,-1.5177,-1.5277,-1.5344,-1.5344,-1.5344,-1.5344,-1.5344,-1.5217,-1.5157,-1.5157,-1.2479,-1.0462,-0.9105,-0.8018,-0.7516,-0.7597,-0.7509,-0.7553,-0.7695,-0.7763,-0.7753,-0.7699,-0.7767,-0.7794,-0.7794,-0.7794,-0.7794,-0.7801,-0.7882,-0.7862,-0.7818,0.0,0.0,0.0,0.0,0.0,0.0,0.0,0.0,0.0,0.0,0.0,0.0,0.0,0.0,0.0,0.0,-0.892,-0.9643,-1.039,-1.0547,-1.0695,-1.0771,-1.0771,-1.1081,-1.1631,-1.1733,-1.2054,-1.2608,0.0,0.0,-1.0762,-1.0269,-0.9614,0.0,-0.783,-0.783,-0.8427,-0.6961,-0.7069,-0.8209,-0.7616,-0.7723,-0.8268,-0.8427,-0.8533,-0.8533,-0.8752,-0.8804,-0.8804,-0.8804,-0.8804,-0.8804,-0.8804,-0.8804,0.0,0.0,0.0,0.0,0.0,0.0,-0.9553,-1.143,-1.2673,-1.3416,0.0,-1.3821,-1.4145,-1.4628,-1.4933,-1.5245,-1.5465,-1.6685,-1.765,-1.7699,-1.8157,-1.8661,-1.9389,-1.808,-1.7191,-1.7542,-1.6385,-1.5491,-1.5204,-1.5244,-1.5164,-1.4877,-1.4917,-1.4963,-1.4963,-1.4963,-1.4963,-1.4963,-1.489,-1.485,-1.485,-1.2314,-0.9887,-0.7761,-0.7493,-0.7373,-0.7478,-0.7366,-0.7373,-0.7485,-0.7567,-0.7577,-0.7546,-0.7584,-0.76,-0.76,-0.76,-0.76,-0.7611,-0.7719,-0.7692,-0.7631,0.0,0.0,0.0,0.0,0.0,0.0,0.0,0.0,0.0,0.0,0.0,0.0,-0.4751,-0.5753,-0.6654,-0.723,-0.8181,-0.9348,-1.0767,-1.1312,-1.1689,-1.2064,-1.2083,0.0,-1.1791,-1.2044,-1.2063,-1.1864,0.0,0.0,-1.0813,-1.0762,-1.0064,-0.8752,-0.7289,-0.7074,-0.767,0.0,0.0,0.0,-0.6696,-0.6696,-0.6804,-0.7509,-0.7777,-0.783,-0.8533,-0.8804,-0.8804,-0.8804,-0.8804,-0.8804,-0.8804,-0.8804,-0.8804,0.0,0.0,0.0,0.0,-0.9334,0.0,-1.0553,-1.1104,-1.1683,0.0,-1.3008,-1.3705,-1.4075,-1.4589,-1.4983,-1.4797,-1.5444,-1.6298,-1.7505,-1.6515,-1.6501,-1.9174,-1.6958,-1.5632,-1.7056,-1.5958,-1.489,-1.4596,-1.4816,-1.4863,-1.4563,-1.4803,-1.4963,-1.4963,-1.4963,-1.4963,-1.4963,-1.4689,-1.4543,-1.4543,-1.1961,-1.0024,-0.8819,-0.768,-0.7156,-0.7163,-0.7156,-0.7156,-0.718,-0.7472,-0.7516,-0.7394,-0.7539,-0.76,-0.76,-0.76,-0.76,-0.76,-0.7607,-0.7607,-0.76,0.0,0.0,0.0,0.0,0.0,0.0,0.0,0.0,0.0,0.0,0.0,0.0,0.0,-0.5084,-0.5809,-0.7077,-0.844,-0.9453,-0.9969,-1.0733,-1.1211,-1.1377,-1.1377,-1.1576,-1.2035,-1.1875,-1.2047,-1.2501,0.0,-1.2157,-1.0813,-1.0813,-1.0064,-0.8752,-0.7777,-0.7456,-0.761,-0.614,0.0,0.0,-0.6091,-0.647,-0.7343,-0.7616,-0.8099,-0.8696,-0.8976,-0.903,-0.903,-0.903,-0.8965,-0.8804,-0.8804,-0.8804,-0.8804,0.0,0.0,0.0,0.0,0.0,0.0,-0.9914,-1.043,-1.0975,-1.1369,-1.2291,-1.3046,-1.2959,-1.3567,-1.4175,-1.4269,-1.487,-1.5454,-1.5903,-1.554,-1.5513,-1.6501,-1.5715,-1.5176,-1.5715,-1.5286,-1.4843,-1.4549,-1.4616,-1.4556,-1.4262,-1.4342,-1.4402,-1.4402,-1.4222,-1.4202,-1.4396,-1.4115,-1.3607,-1.2825,-1.1876,-1.0406,-0.8447,-0.8056,-0.7598,-0.7007,-0.7099,-0.7139,-0.7146,-0.7258,-0.7272,-0.7227,-0.7282,-0.7305,-0.7305,-0.7305,-0.7305,-0.7316,-0.7417,-0.739,-0.7333,0.0,0.0,0.0,0.0,0.0,0.0,0.0,0.0,0.0,-0.3588,0.0,0.0,0.0,0.0,-0.5462,-0.7045,-0.8645,-0.9659,-0.9917,-1.0675,-1.1191,-1.1348,-1.1074,-1.1318,-1.2161,-1.1787,-1.2037,-1.2881,-1.2881,-1.2157,-1.0813,-1.0813,-1.0064,-0.8758,-0.8262,-0.7943,0.0,0.0,0.0,-0.6534,-0.5814,-0.6292,-0.7526,-0.7798,-0.8349,-0.9028,-0.9161,-0.925,-0.9372,-0.9216,-0.9178,-0.9085,-0.8985,-0.8884,0.0,0.0,0.0,0.0,-0.8804,0.0,0.0,0.0,-0.9753,-1.0194,-1.0488,-1.1309,-1.211,-1.2138,-1.2705,-1.3313,-1.3721,-1.4115,-1.4502,-1.4897,-1.4877,-1.485,-1.495,-1.479,-1.4703,-1.4803,-1.473,-1.4556,-1.4255,-1.4315,-1.4255,-1.3961,-1.4035,-1.4041,-1.3941,-1.3748,-1.3687,-1.3788,-1.3601,-1.3076,-1.2319,-1.1986,-1.0914,-0.9304,-0.8949,-0.835,-0.7355,-0.7457,-0.7277,-0.7068,-0.7068,-0.7095,-0.7139,-0.7577,-0.7665,-0.7665,-0.7665,-0.7665,-0.768,-0.7434,-0.7227,-0.717,0.0,0.0,0.0,0.0,0.0,0.0,0.0,0.0,-0.3748,-0.3605,0.0,0.0,0.0,0.0,0.0,-0.705,-0.8671,-0.9967,-1.0705,-1.129,-1.1758,-1.2141,-1.1387,-1.1338,-1.2161,-1.1797,-1.2057,-1.2881,-1.2881,-1.2157,-1.0813,-1.0813,-1.0064,-0.8804,-0.8752,-0.8374,-0.761,0.0,-0.5987,-0.6544,-0.5823,-0.6161,-0.7203,-0.7937,-0.8384,-0.8691,-0.9071,-0.9446,-0.9653,-0.9359,-0.9452,-0.9633,-0.9332,0.0,0.0,0.0,0.0,0.0,0.0,0.0,0.0,0.0,-0.9025,-0.9256,-0.9593,-1.0181,-1.0853,-1.163,-1.2044,-1.2438,-1.3046,-1.316,-1.354,-1.471,-1.4663,-1.4583,-1.487,-1.4422,-1.4168,-1.4449,-1.4229,-1.3948,-1.3661,-1.3895,-1.3941,-1.3654,-1.3901,-1.3935,-1.3647,-1.3627,-1.3494,-1.3206,-1.3206,-1.3206,-1.32,-1.2129,-1.1552,-1.1461,-1.0337,-0.9213,-0.8237,-0.8246,-0.7772,-0.7008,-0.7008,-0.7083,-0.7302,-0.8448,-0.889,-0.8882,-0.889,-0.889,-0.8707,-0.7577,-0.7139,-0.7139,0.0,0.0,0.0,0.0,0.0,0.0,-0.3754,-0.386,-0.39,0.0,0.0,0.0,-0.4123,-0.4729,-0.5477,-0.641,-0.75,-0.8704,-0.9922,-1.0561,-1.116,-1.1738,-1.1547,-1.165,-1.2171,-1.2109,-1.2324,-1.2881,-1.2881,-1.2157,-1.0813,-1.0813,-1.0064,-0.8752,-0.8262,-0.7883,-0.767,-0.7283,-0.7062,-0.6941,-0.6768,-0.714,-0.7942,-0.8111,-0.8675,-0.9434,-0.9528,-0.9753,-0.998,-0.99,-0.9793,-0.9633,-0.9332,0.0,0.0,0.0,0.0,0.0,-0.8804,0.0,0.0,0.0,0.0,0.0,-0.9078,-0.9666,-1.0247,-1.0281,-1.0688,-1.1223,-1.181,-1.1924,-1.2238,-1.32,-1.348,-1.3601,-1.3687,-1.3554,-1.3487,-1.3561,-1.35,-1.342,-1.334,-1.34,-1.342,-1.334,-1.3407,-1.342,-1.3333,-1.3327,-1.3193,-1.2886,-1.3093,-1.3106,-1.2879,-1.2628,-1.1972,-1.1,-1.0723,-1.01,-0.9156,-0.9233,-0.9169,-0.8899,-0.8899,-0.8926,-0.8998,-0.8949,-0.8727,-0.8533,-0.8839,-0.8719,-0.8447,-0.745,-0.7139,-0.7139,0.0,0.0,0.0,0.0,0.0,-0.3926,-0.3724,-0.3932,-0.402,0.0,0.0,0.0,-0.4321,-0.4911,-0.5505,-0.6145,-0.7354,-0.847,-0.951,-1.0111,-1.0711,-1.1403,-1.1287,-1.149,-1.218,-1.218,-1.2441,-1.2881,-1.2881,-1.2304,-1.1216,-1.0914,-1.021,-0.9159,-0.815,0.0,0.0,-0.7723,-0.7652,-0.7531,-0.7099,-0.7739,-0.9009,-0.889,-0.933,-1.0033,-0.9907,-1.0053,-1.0281,-1.016,-1.0007,-0.9833,-0.9659,-0.9406,0.0,-0.9025,0.0,0.0,0.0,0.0,0.0,-0.8838,0.0,0.0,-0.8844,-0.9205,-0.9593,-0.9666,-0.996,-1.0408,-1.1116,-1.1149,-1.1316,-1.2071,-1.2245,-1.2505,-1.3126,-1.3213,-1.3213,-1.3213,-1.3213,-1.316,-1.3026,-1.3133,-1.316,-1.3026,-1.3133,-1.3153,-1.3026,-1.2899,-1.2746,-1.2565,-1.2739,-1.2746,-1.2559,-1.2559,-1.2166,-1.1391,-1.1483,-1.1012,-1.0017,-1.0156,-0.9958,-0.9652,-0.9652,-0.9621,-0.9725,-0.9898,-0.9843,-0.9751,-1.0049,-1.0059,-0.9719,-0.8384,-0.7841,-0.7753,0.0,0.0,0.0,-0.3629,-0.3832,-0.383,-0.3489,-0.3742,-0.3974,0.0,-0.414,-0.4324,-0.4505,-0.5058,-0.5582,-0.6085,-0.7547,-0.8734,-0.9296,-0.9784,-1.0381,-1.1048,-1.0766,-1.1031,-1.2078,-1.2126,-1.2386,-1.2881,-1.2881,-1.251,-1.1765,-1.1116,-1.0415,-0.9762,-0.8243,0.0,0.0,-0.7396,-0.7663,-0.8072,-0.7209,-0.8148,-1.0087,-0.9793,-1.0027,-1.0537,-1.0214,-1.0307,-1.0521,-1.0254,-1.014,-1.0114,-1.0114,-0.992,-0.9633,-0.9365,-0.9479,0.0,0.0,0.0,0.0,-0.8878,-0.8831,0.0,-0.8818,-0.8831,-0.8991,-0.9486,-0.9586,-0.9833,-1.0648,-1.0615,-1.0655,-1.1236,-1.1142,-1.1463,-1.2819,-1.3013,-1.3013,-1.3013,-1.3013,-1.2906,-1.2701,-1.2852,-1.2899,-1.2694,-1.2859,-1.2906,-1.2735,-1.2365,-1.2218,-1.2251,-1.2225,-1.2238,-1.2305,-1.2271,-1.2258,-1.2258,-1.2258,-1.1797,-1.0891,-1.0891,-1.0506,-0.9808,-0.9808,-0.9848,-1.0033,-1.1158,-1.1494,-1.1467,-1.1723,-1.1805,-1.1558,-0.9695,-0.8913,-0.8657,0.0,0.0,-0.3847,-0.3847,-0.414,-0.3959,-0.267,-0.2533,-0.2954,-0.3878,-0.4244,-0.445,-0.4487,-0.4636,-0.4937,-0.5599,-0.6494,-0.7511,-0.8761,-0.9213,-0.9712,-1.0381,-1.0314,-1.0638,-1.1387,-1.1698,-1.2211,-1.2881,-1.2881,-1.251,-1.1765,-1.1116,-1.0415,-0.971,-0.7706,-0.6804,0.0,-0.5605,-0.6084,-0.7688,-0.8415,-0.9246,-1.0087,-0.9793,-0.99,-1.0194,-1.014,-1.0307,-1.0618,-1.0494,-1.0314,-1.0114,-1.0114,-0.992,-0.9673,-0.9613,-0.9639,-0.9606,-0.9252,-0.9143,-0.9117,-0.8878,-0.8985,0.0,-0.8858,-0.8985,-0.9118,-0.9005,-0.8978,-0.9105,-0.9506,-0.9733,-1.0047,-1.0635,-1.0875,-1.1176,-1.1697,-1.1777,-1.1777,-1.1777,-1.1777,-1.175,-1.169,-1.1737,-1.175,-1.169,-1.1737,-1.185,-1.2031,-1.1757,-1.171,-1.1944,-1.1724,-1.1824,-1.2298,-1.2071,-1.1951,-1.1951,-1.1951,-1.1879,-1.1657,-1.1657,-1.1741,-1.1776,-1.1776,-1.1733,-1.1784,-1.2016,-1.1764,-1.112,-1.1455,-1.1432,-1.1038,-0.9912,-0.9013,-0.8459,0.0,0.0,-0.386,-0.3785,-0.3433,-0.3094,-0.2941,-0.186,-0.161,-0.2909,-0.2603,-0.2847,-0.4317,-0.4477,-0.4794,-0.5433,-0.5814,-0.6519,-0.7581,-0.8157,-0.8748,-0.9429,-0.9803,-1.0302,-1.0991,-1.1518,-1.1972,-1.2344,-1.2725,-1.251,-1.1765,-1.1116,-1.0415,-0.971,-0.754,-0.6588,-0.6539,-0.5541,-0.5793,-0.6923,-0.7806,-0.9026,-1.0307,-1.0007,-1.008,-1.0341,-1.0341,-1.0434,-1.0624,-1.0624,-1.0461,-1.0341,-1.0341,-1.0241,-1.0094,-0.9947,-1.0007,-1.0027,-0.9586,-0.9566,-0.9606,-0.9319,-0.9245,0.0,0.0,-0.9025,-0.9025,-0.9025,-0.8911,-0.8945,-0.9379,-0.9459,-0.9653,-1.0241,-1.0461,-1.0608,-1.0755,-1.1149,-1.1369,-1.1229,-1.1336,-1.1423,-1.1423,-1.1423,-1.1423,-1.1423,-1.1423,-1.149,-1.1637,-1.151,-1.149,-1.1643,-1.1503,-1.157,-1.1864,-1.1717,-1.165,-1.165,-1.165,-1.165,-1.165,-1.165,-1.181,-1.2084,-1.2084,-1.2171,-1.2305,-1.2305,-1.2006,-1.1702,-1.1983,-1.2085,-1.176,-1.0908,-1.0272,-0.9882,-0.3278,0.0,-0.3839,-0.3626,-0.2622,-0.2095,-0.2808,-0.1266,-0.0448,-0.1628,-0.0727,-0.1059,-0.3744,-0.4311,-0.4705,-0.5321,-0.5454,-0.5778,-0.6425,-0.7101,-0.7812,-0.8482,-0.9072,-0.9755,-1.061,-1.1166,-1.1566,-1.1814,-1.2393,-1.2393,-1.1765,-1.1116,-1.0415,-0.971,-0.7706,-0.6771,0.0,-0.6049,-0.6069,-0.656,-0.6993,-0.8477,-1.0332,-0.9975,-1.017,-1.0624,-1.0624,-1.0624,-1.0624,-1.0624,-1.0624,-1.0624,-1.0624,-1.0624,-1.0577,-1.0274,-1.0374,-1.0504,-0.9913,-0.994,-1.0033,-0.9686,-0.9459,-0.9243,0.0,0.0,0.0,-0.9064,-0.8971,-0.8951,-0.9426,-0.9365,-0.9342,-0.9873,-0.9993,-1.0013,-0.9953,-1.0608,-1.1022,-1.0848,-1.1082,-1.1263,-1.1263,-1.1209,-1.1223,-1.1336,-1.1236,-1.1223,-1.1336,-1.1289,-1.1283,-1.1336,-1.1289,-1.1316,-1.1423,-1.1369,-1.1343,-1.1343,-1.1343,-1.1343,-1.1343,-1.1343,-1.1503,-1.179,-1.1844,-1.2004,-1.2225,-1.2278,-1.2305,-1.2325,-1.2565,-1.2735,-1.2609,-1.1895,-1.1496,-1.1259,-0.2203,-0.3085,0.0,-0.3653,-0.2823,-0.1777,-0.0613,-0.0168,-0.0056,-0.0224,-0.0112,-0.0614,-0.2287,-0.3688,-0.4584,0.0,-0.5198,-0.5614,-0.5901,-0.6418,-0.7074,-0.7771,-0.7877,-0.856,-0.9858,-0.9969,-1.0618,-1.1814,-1.1864,-1.1864,-1.1765,-1.1116,-1.0415,-0.9762,-0.8243,-0.7296,-0.6813,-0.6103,-0.6497,-0.7516,-0.7614,-0.8346,-0.9436,-0.9086,-0.9656,-1.0624,-1.0624,-1.0624,-1.0624,-1.0624,-1.0624,-1.0624,-1.0624,-1.0624,-1.0618,-1.0521,-1.0598,-1.0551,-1.016,-1.0094,-0.9987,-0.9376,-0.9459,-0.9499,-0.8971,0.0,-0.907,-0.8898,0.0,-0.8831,-0.8898,0.0,0.0,-0.9269,-0.9559,-0.9639,-0.9316,-0.9653,-0.9967,-1.0187,-1.0474,-1.0719,-1.0719,-1.0421,-1.0481,-1.1002,-1.0555,-1.0494,-1.1015,-1.0795,-1.0775,-1.1035,-1.0788,-1.0909,-1.1423,-1.1169,-1.1042,-1.1042,-1.1042,-1.1042,-1.1042,-1.1042,-1.1202,-1.149,-1.1757,-1.1891,-1.1937,-1.2198,-1.2305,-1.2305,-1.2338,-1.2351,-1.2358,-1.2236,-1.164,-1.1057,-0.2027,-0.1738,0.0,0.0,-0.3575,-0.2747,-0.0336,0.0,0.0,0.0,0.0,-0.0224,-0.0837,0.0,0.0,0.0,0.0,-0.5108,-0.5061,-0.5597,-0.6091,-0.6411,-0.723,-0.7984,-0.856,-0.9399,-1.0064,-1.0669,-1.1416,-1.1616,-1.1216,-1.0914,-1.0415,-0.9762,-0.8349,-0.7561,-0.7345,-0.6874,-0.6963,-0.7512,-0.7772,-0.8132,-0.8603,-0.8949,-0.9421,-0.9849,-0.9849,-1.0174,-1.0624,-1.0624,-1.0675,-1.0782,-1.0678,-1.0739,-1.0775,-1.0672,-1.0624,-1.0598,-1.0408,-1.0494,-1.0488,-0.9893,-0.9846,-0.978,-0.9192,-0.9025,-0.9005,-0.9051,0.0,0.0,0.0,0.0,0.0,0.0,-0.9492,-0.9579,-0.9223,-0.9492,-0.9666,-0.9613,-1.002,-1.0374,-1.0604,-1.0294,-1.0287,-1.0708,-1.0354,-1.0301,-1.0715,-1.0692,-1.0678,-1.0735,-1.0692,-1.0739,-1.0922,-1.0802,-1.0742,-1.0742,-1.0742,-1.0742,-1.0742,-1.0742,-1.0902,-1.1189,-1.1483,-1.171,-1.1891,-1.2184,-1.2305,-1.2305,-1.2305,-1.2305,-1.2305,-1.2305,-1.1996,-1.1787,-0.1459,0.0,0.0,0.0,-0.422,-0.3487,-0.0449,0.0,0.0,0.0,0.0,0.0,0.0,-0.1945,0.0,0.0,-0.4163,-0.4369,-0.4545,-0.4982,-0.5328,-0.5487,-0.6524,-0.7283,-0.767,-0.8718,-0.9399,-0.9814,-1.0762,-1.1015,-1.0517,-1.0517,-1.0167,-0.9465,-0.8545,-0.8033,-0.7903,-0.7752,-0.7777,-0.7873,-0.7958,-0.7827,-0.7762,-0.8613,-0.8812,-0.8613,-0.8877,-0.9524,-1.0238,-1.0238,-1.0502,-1.0835,-1.0692,-1.0701,-1.0835,-1.0685,-1.0624,-1.0624,-1.0624,-1.0715,-1.0735,-1.014,-1.0,-0.9866,-0.9303,-0.9024,-0.9011,-0.9299,-0.9132,0.0,0.0,0.0,-0.9157,-0.9077,0.0,-0.9459,-0.9158,-0.9305,-0.9392,-0.9196,-0.9693,-1.008,-1.0301,-1.0047,-1.0033,-1.0408,-1.0167,-1.016,-1.0604,-1.0624,-1.0624,-1.0624,-1.0624,-1.0624,-1.0624,-1.0624,-1.0624,-1.0624,-1.0624,-1.0624,-1.0624,-1.0624,-1.0739,-1.0895,-1.1263,-1.155,-1.1777,-1.2151,-1.2305,-1.2305,-1.2305,-1.2305,-1.2305,-1.2305,-1.2305,-1.2305,-0.0056,-0.0,0.0,0.0,0.0,-0.3487,-0.0449,0.0,0.0,0.0,0.0,0.0,0.0,0.0,0.0,0.0,0.0,-0.3569,-0.4701,-0.4608,-0.4842,-0.5487,-0.5542,-0.6249,-0.767,-0.7723,-0.8455,-0.9814,-0.9865,-0.9865,-0.9814,-0.9814,-0.9458,-0.8818,-0.9044,-0.8858,-0.841,-0.8673,-0.8935,-0.918,-0.8345,-0.7502,-0.685,-0.7702,-0.7502,-0.6915,-0.7762,-0.8613,-0.9338,-0.9338,-0.9919,-1.0631,-1.0624,-1.0631,-1.0631,-1.0624,-1.0624,-1.0624,-1.0624,-1.0631,-1.0497,-0.9846,-0.9699,-0.9619,-0.9256,-0.9176,-0.9256,-0.9613,-0.9432,-0.9176,-0.9183,-0.9183,-0.9097,-0.8871,-0.9065,0.0,0.0,-0.8831,-0.8938,-0.915,-0.9512,-0.9699,-0.9713,-0.9446,-0.9449,-1.0087,-0.986,-0.9953,-1.0598,-1.0624,-1.0624,-1.0624,-1.0624,-1.0624,-1.0624,-1.0624,-1.0624,-1.0624,-1.0624,-1.0624,-1.0624,-1.0624,-1.0624,-1.0672,-1.1176,-1.143,-1.1483,-1.2064,-1.2305,-1.2305,-1.2305,-1.2305,-1.2305,-1.2305,-1.2305,-1.2305,0.0,0.0,0.0,0.0,0.0,-0.1186,-0.0173,0.0,0.0,0.0,0.0,0.0,0.0,0.0,-0.0195,-0.0699,-0.0879,-0.2022,-0.4432,-0.4634,-0.4735,-0.4849,-0.5502,-0.5971,-0.6253,-0.7269,-0.8039,-0.8402,-0.934,-0.9814,-0.9814,-0.9814,-0.9666,-0.9472,-0.9262,-0.9125,-0.8953,-0.9477,-0.9733,-0.9718,-0.8478,-0.7116,-0.5881,-0.6145,-0.6465,-0.6719,-0.7046,-0.7697,-0.8549,-0.9075,-0.9645,-1.0086,-1.0487,-1.0695,-1.0808,-1.0678,-1.0624,-1.0624,-1.0624,-1.0701,-1.0708,-1.012,-0.9967,-0.9893,-0.9599,-0.9379,-0.9269,-0.9619,-0.9599,-0.9472,-0.9223,-0.9399,-0.9372,-0.8884,-0.9051,-0.9084,0.0,-0.8804,-0.8844,-0.8938,-0.9212,-0.9466,-0.9666,-0.9593,-0.9693,-1.0087,-1.0027,-1.014,-1.0604,-1.0624,-1.0624,-1.0624,-1.0624,-1.0624,-1.0624,-1.0624,-1.0624,-1.0624,-1.0624,-1.0624,-1.0624,-1.0624,-1.0624,-1.0658,-1.1176,-1.1423,-1.147,-1.2058,-1.2305,-1.2305,-1.2305,-1.2305,-1.2305,-1.2305,-1.2305,-1.2305,0.0,0.0,0.0,0.0,0.0,0.0,0.0,0.0,0.0,0.0,0.0,0.0,0.0,0.0,0.0,0.0,0.0,-0.0832,-0.2743,-0.4108,-0.476,-0.4618,-0.5195,-0.5521,-0.5492,-0.6769,-0.7548,-0.7723,-0.8883,-0.9465,-0.9465,-0.9465,-0.947,-0.9592,-0.9425,-0.9459,-0.9528,-1.0067,-1.0274,-1.0164,-0.8612,-0.699,-0.5428,-0.5428,-0.5752,-0.6268,-0.6268,-0.6789,-0.7632,-0.8156,-0.8913,-0.9622,-1.0034,-1.0489,-1.0802,-1.0678,-1.0624,-1.0624,-1.0624,-1.0759,-1.0722,-1.0241,-1.0114,-1.0067,-0.988,-0.9693,-0.9633,-0.9933,-0.9913,-0.978,-0.9586,-0.9706,-0.9646,-0.9058,-0.9205,-0.9259,0.0,-0.8804,-0.8804,-0.8804,-0.8971,-0.9205,-0.9499,-0.9432,-0.9579,-1.008,-1.002,-1.014,-1.0604,-1.0624,-1.0624,-1.0624,-1.0624,-1.0624,-1.0624,-1.0624,-1.0624,-1.0624,-1.0624,-1.0678,-1.0715,-1.0715,-1.0715,-1.0748,-1.1329,-1.1523,-1.147,-1.2058,-1.2305,-1.2305,-1.2305,-1.2305,-1.2305,-1.2305,-1.2305,-1.2305,0.0,0.0,0.0,0.0,0.0,0.0,0.0,0.0,0.0,0.0,0.0,0.0,0.0,0.0,0.0,0.0,0.0,0.0,0.0,-0.289,-0.4648,-0.4793,-0.4718,-0.4919,-0.5449,-0.6173,-0.6939,-0.7687,-0.8406,-0.8798,-0.8851,-0.8851,-0.8998,-0.9216,-0.9573,-0.986,-1.0134,-1.0434,-1.0555,-1.0364,-0.8672,-0.699,-0.5428,-0.5428,-0.5428,-0.5428,-0.5428,-0.5947,-0.6654,-0.6654,-0.7832,-0.9268,-0.9274,-0.9919,-1.0624,-1.0624,-1.0624,-1.0624,-1.0624,-1.0561,-1.0488,-1.0207,-1.0066,-1.0053,-1.0134,-1.0127,-1.02,-1.0557,-1.0334,-1.0134,-1.012,-1.0127,-0.994,-0.9283,-0.9466,-0.9446,-0.8884,-0.8804,-0.8811,-0.8824,-0.8831,-0.8931,-0.9137,-0.8998,-0.9198,-1.0033,-0.9853,-0.9953,-1.0598,-1.0611,-1.0611,-1.0624,-1.0624,-1.0624,-1.0624,-1.0624,-1.0624,-1.0624,-1.0624,-1.0715,-1.0995,-1.0995,-1.1002,-1.1049,-1.1623,-1.171,-1.149,-1.2064,-1.2305,-1.2305,-1.2305,-1.2305,-1.2305,-1.2305,-1.2305,-1.2305,0.0,0.0,0.0,0.0,0.0,0.0,0.0,0.0,0.0,0.0,0.0,0.0,0.0,0.0,0.0,0.0,0.0,0.0,0.0,-0.0805,-0.2372,-0.4921,-0.4882,-0.484,-0.4919,-0.5723,-0.6538,-0.7282,-0.808,-0.8808,-0.9459,-0.9459,-0.9499,-0.9586,-0.9873,-1.0047,-1.0134,-1.0434,-0.9843,-0.8608,-0.8156,-0.699,-0.5428,-0.5428,-0.5428,-0.5428,-0.5428,-0.5557,-0.5815,-0.6461,-0.7437,-0.842,-0.9075,-0.9919,-1.0624,-1.0624,-1.0624,-1.0624,-1.0624,-1.011,-0.9767,-1.0335,-0.9829,-0.9352,-1.0263,-1.0274,-1.02,-1.0557,-1.0501,-1.0381,-1.016,-1.0294,-1.018,-0.9316,-0.9125,-0.8978,-0.8831,-0.8804,-0.8884,-0.905,-0.907,-0.9017,-0.8931,-0.9245,-0.9552,-0.978,-0.9927,-1.0167,-1.0604,-1.0347,-1.0327,-1.0618,-1.0624,-1.0624,-1.0624,-1.0624,-1.0624,-1.0624,-1.0624,-1.0715,-1.0995,-1.0995,-1.1109,-1.1336,-1.171,-1.1824,-1.1784,-1.2151,-1.2305,-1.2305,-1.2305,-1.2305,-1.2305,-1.2305,-1.2305,-1.2305,0.0,0.0,0.0,0.0,0.0,0.0,0.0,0.0,0.0,0.0,0.0,0.0,0.0,0.0,0.0,0.0,0.0,0.0,0.0,0.0,-0.0891,-0.2794,-0.4305,-0.4942,-0.4646,-0.5471,-0.611,-0.6516,-0.7318,-0.819,-0.9136,-0.9136,-0.9382,-0.988,-1.0047,-1.0187,-1.0321,-1.0488,-0.9843,-0.8549,-0.8156,-0.7181,0.0,-0.5557,-0.5428,-0.5428,-0.5428,-0.5428,-0.5495,-0.5947,-0.6724,-0.7567,-0.8484,-0.9332,-1.011,-1.0491,-1.0624,-1.0624,-1.0624,-0.9983,-0.9402,-0.9913,-0.9214,-0.8754,-0.9812,-0.9857,-0.9912,-1.0458,-1.0624,-1.0571,-1.0341,-1.0448,-1.0314,-0.9559,-0.9185,-0.8951,-0.8824,-0.8918,-0.9011,-0.9045,-0.911,-0.907,-0.8838,-0.9339,-0.9686,-0.9686,-0.9833,-1.006,-1.0347,-1.0207,-1.0254,-1.0611,-1.0808,-1.0815,-1.0624,-1.1008,-1.1008,-1.0624,-1.0815,-1.1022,-1.1189,-1.1316,-1.147,-1.1637,-1.1931,-1.1991,-1.1891,-1.2184,-1.2305,-1.2305,-1.2305,-1.2305,-1.2305,-1.2305,-1.2305,-1.2305,0.0,0.0,0.0,0.0,0.0,0.0,0.0,0.0,0.0,0.0,0.0,0.0,0.0,0.0,0.0,0.0,0.0,0.0,0.0,0.0,0.0,0.0,-0.3,-0.4626,-0.4565,-0.5296,-0.5694,-0.5863,-0.652,-0.7396,-0.8521,-0.8521,-0.9131,-1.0174,-1.0174,-1.0321,-1.0624,-1.0624,-1.011,-0.921,-0.8355,-0.7502,-0.6588,-0.5752,-0.5491,-0.5557,-0.5428,-0.5428,-0.5428,-0.5428,-0.6009,-0.685,-0.7697,-0.8613,-0.9466,-1.0364,-1.0624,-1.0624,-1.0624,-0.9849,-0.9139,-0.9274,-0.8549,-0.8027,-0.8947,-0.921,-0.953,-1.0301,-1.0491,-1.0624,-1.0624,-1.0591,-1.0334,-0.982,-0.9492,-0.9225,-0.9011,-0.9165,-0.9218,-0.9005,-0.9172,0.0,-0.8891,-0.9325,-0.9626,-0.9626,-0.9626,-0.9766,-1.01,-1.008,-1.0214,-1.0611,-1.1049,-1.1109,-1.0681,-1.139,-1.141,-1.0806,-1.1202,-1.145,-1.149,-1.175,-1.1891,-1.1944,-1.2191,-1.2158,-1.1944,-1.2198,-1.2305,-1.2305,-1.2305,-1.2305,-1.2305,-1.2305,-1.2325,-1.2365,0.0,0.0,0.0,0.0,0.0,0.0,0.0,0.0,0.0,0.0,0.0,0.0,0.0,0.0,0.0,0.0,0.0,0.0,0.0,0.0,0.0,0.0,-0.059,-0.2224,-0.4965,-0.4827,-0.5171,-0.6113,-0.6393,-0.7379,-0.9133,-0.9133,-0.9605,-1.0481,-1.0481,-1.0577,-1.0624,-1.0624,-1.011,-0.921,-0.8355,-0.7502,-0.6588,-0.5752,-0.5815,-0.6396,-0.5686,-0.5428,-0.5428,-0.5428,-0.6009,-0.685,-0.7697,-0.8613,-0.9466,-1.0364,-1.0624,-1.0624,-1.0624,-0.9454,-0.842,-0.9139,-0.8091,-0.7177,-0.8027,-0.8812,-0.9338,-0.9466,-1.011,-1.0624,-1.0624,-1.0361,-1.016,-1.006,-0.9793,-0.9673,-0.986,-0.9726,-0.9673,-0.9866,-0.9719,-0.9486,-0.9137,-0.9203,-0.9263,-0.9263,-0.9263,-0.9552,-1.0087,-0.9886,-1.0007,-1.0604,-1.0719,-1.0895,-1.1269,-1.1189,-1.1309,-1.1637,-1.1496,-1.1557,-1.179,-1.1844,-1.1997,-1.2231,-1.2278,-1.2271,-1.2231,-1.2278,-1.2305,-1.2305,-1.2305,-1.2305,-1.2305,-1.2305,-1.2458,-1.2741,0.0,0.0,0.0,0.0,0.0,0.0,0.0,0.0,0.0,0.0,0.0,0.0,0.0,0.0,0.0,0.0,0.0,0.0,0.0,0.0,0.0,0.0,0.0,-0.1231,-0.3786,-0.4475,-0.5095,-0.5636,-0.5719,-0.6476,-0.7962,-0.842,-0.9069,-0.9913,-1.0428,-1.0624,-1.0624,-1.0624,-1.0364,-0.9849,-0.8544,-0.7767,-0.7246,-0.5885,-0.5943,-0.6654,-0.6203,-0.6075,-0.6009,-0.5557,-0.5686,-0.6207,-0.7046,-0.7632,-0.8091,-0.9,-0.9588,-0.9849,-0.939,-0.8608,-0.7962,-0.7962,-0.6985,-0.6272,-0.7111,-0.7632,-0.8221,-0.9139,-0.9658,-1.004,-1.0498,-1.0441,-1.0294,-1.014,-1.0,-0.996,-1.01,-1.0,-0.996,-1.01,-0.9993,-0.9733,-0.923,-0.9183,-0.9183,-0.9183,-0.9183,-0.9435,-1.0087,-0.984,-0.9953,-1.0604,-1.1302,-1.1645,-1.1602,-1.1949,-1.2105,-1.2069,-1.1778,-1.173,-1.187,-1.2024,-1.2171,-1.2305,-1.2305,-1.2305,-1.2305,-1.2305,-1.2305,-1.2305,-1.2305,-1.2305,-1.2305,-1.2305,-1.2492,-1.2822,0.0,0.0,0.0,0.0,0.0,0.0,0.0,0.0,0.0,0.0,0.0,0.0,0.0,0.0,0.0,0.0,0.0,0.0,0.0,0.0,0.0,0.0,0.0,-0.0662,-0.2123,-0.4118,-0.5148,-0.5071,-0.5068,-0.5649,-0.6719,-0.7372,-0.8285,-0.9338,-1.0238,-1.0624,-1.0624,-1.0624,-1.0624,-1.0428,-0.8672,-0.8027,-0.7832,-0.6079,-0.6079,-0.6915,-0.6527,-0.6654,-0.6785,-0.5752,-0.5428,-0.5557,-0.6396,-0.6719,-0.685,-0.7762,-0.8484,-0.8877,-0.8156,-0.7897,-0.7567,-0.685,-0.6075,-0.5554,-0.6268,-0.6588,-0.7111,-0.8484,-0.9075,-0.9594,-1.0428,-1.0624,-1.0481,-1.0247,-1.0214,-1.0234,-1.0294,-1.0247,-1.0214,-1.0214,-1.01,-0.9846,-0.9379,-0.917,-0.917,-0.9356,-0.9256,-0.9416,-1.0,-0.9866,-1.0013,-1.0604,-1.1659,-1.2189,-1.1989,-1.2497,-1.2618,-1.2447,-1.2144,-1.1964,-1.1971,-1.2198,-1.2305,-1.2305,-1.2305,-1.2305,-1.2305,-1.2305,-1.2305,-1.2305,-1.2305,-1.2305,-1.2311,-1.2371,-1.2585,-1.2852,0.0,0.0,0.0,0.0,0.0,0.0,0.0,0.0,0.0,0.0,0.0,0.0,0.0,0.0,0.0,0.0,0.0,0.0,0.0,0.0,0.0,0.0,0.0,-0.0066,-0.0258,-0.3613,-0.53,-0.5081,-0.5071,-0.5649,-0.6719,-0.6785,-0.7697,-0.9338,-1.0238,-1.0624,-1.0624,-1.0624,-1.0624,-1.0428,-0.8672,-0.8027,-0.7832,-0.6079,-0.6404,-0.7702,-0.6079,-0.6535,-0.7637,-0.5951,-0.5428,-0.5557,-0.6396,-0.6719,-0.685,-0.7762,-0.8027,-0.8091,-0.8027,-0.7437,-0.6785,-0.6719,-0.6075,-0.5428,-0.5491,-0.6137,-0.6719,-0.6915,-0.8221,-0.9594,-1.0428,-1.0624,-1.0618,-1.0584,-1.0521,-1.0608,-1.0875,-1.0688,-1.0521,-1.0521,-1.0047,-0.9699,-0.9646,-0.9158,-0.9178,-0.9973,-0.9482,-0.9379,-0.9706,-0.9947,-1.0227,-1.0611,-1.0742,-1.1388,-1.2617,-1.1901,-1.2186,-1.3395,-1.259,-1.2265,-1.2265,-1.2291,-1.2305,-1.2305,-1.2305,-1.2305,-1.2305,-1.2305,-1.2305,-1.2305,-1.2305,-1.2305,-1.2338,-1.2605,-1.2906,-1.3206,0.0,0.0,0.0,0.0,0.0,0.0,0.0,0.0,0.0,0.0,0.0,0.0,0.0,0.0,0.0,0.0,0.0,0.0,0.0,0.0,0.0,0.0,0.0,0.0,0.0,-0.2505,-0.4292,-0.5287,-0.5274,-0.5494,-0.5947,-0.6461,-0.7632,-0.9338,-1.0238,-1.0624,-1.0624,-1.0624,-1.0624,-1.0491,-0.9262,-0.8484,-0.7897,-0.6658,-0.6593,-0.7111,-0.6396,-0.6658,-0.7111,-0.64,-0.5815,-0.5491,-0.5815,-0.5947,-0.6009,-0.6338,-0.6793,-0.7116,-0.6601,-0.6593,-0.6588,-0.6075,-0.5686,-0.5428,-0.5428,-0.5686,-0.6075,-0.6588,-0.8091,-0.9402,-0.9786,-1.0238,-1.0624,-1.0624,-1.0624,-1.0661,-1.0955,-1.0742,-1.0692,-1.0795,-1.0461,-1.014,-0.996,-0.9573,-0.9479,-0.9833,-0.9312,-0.9339,-1.0167,-0.9987,-1.0074,-1.0611,-1.1045,-1.1592,-1.2168,-1.1783,-1.2108,-1.3031,-1.2193,-1.2244,-1.3171,-1.3171,-1.3171,-1.3091,-1.2519,-1.2305,-1.2305,-1.2305,-1.2305,-1.2305,-1.2305,-1.2412,-1.2559,-1.2498,-1.2899,-1.346,0.0,0.0,0.0,0.0,0.0,0.0,0.0,0.0,0.0,0.0,0.0,0.0,0.0,0.0,0.0,0.0,0.0,0.0,0.0,0.0,0.0,0.0,0.0,0.0,0.0,-0.1808,-0.3618,-0.5382,-0.5369,-0.5428,-0.5428,-0.6527,-0.7762,-0.8941,-1.011,-1.0624,-1.0624,-1.0624,-1.0624,-1.0491,-0.9658,-0.8947,-0.8285,-0.7437,-0.7242,-0.7437,-0.7177,-0.7242,-0.7437,-0.7177,-0.6531,-0.5752,-0.5495,-0.5557,-0.5752,-0.5495,-0.5815,-0.6203,-0.5557,-0.5881,-0.6148,-0.5614,-0.543,-0.544,-0.5481,-0.5491,-0.5755,-0.6621,-0.7976,-0.9054,-0.9314,-1.0034,-1.0624,-1.0624,-1.0624,-1.0698,-1.0835,-1.0688,-1.0698,-1.0842,-1.0608,-1.0381,-1.0261,-0.9907,-0.976,-0.9927,-0.9399,-0.9466,-1.0381,-1.0033,-1.004,-1.0611,-1.1163,-1.1593,-1.1834,-1.1619,-1.1955,-1.2721,-1.1923,-1.2305,-1.3673,-1.3673,-1.3673,-1.3673,-1.2739,-1.2305,-1.2305,-1.2305,-1.2351,-1.2432,-1.2432,-1.2619,-1.2866,-1.2746,-1.31,-1.3627,0.0,0.0,0.0,0.0,0.0,0.0,0.0,0.0,0.0,0.0,0.0,0.0,0.0,0.0,0.0,0.0,0.0,0.0,0.0,0.0,0.0,0.0,0.0,0.0,0.0,-0.1743,-0.3553,-0.5396,-0.5372,-0.5428,-0.5428,-0.7181,-0.8027,-0.8091,-0.9843,-1.0624,-1.0624,-1.0624,-1.0624,-1.0491,-0.9658,-0.9274,-0.921,-0.8291,-0.8549,-0.9139,-0.8285,-0.8549,-0.9139,-0.8291,-0.7372,-0.6527,-0.5686,-0.6009,-0.6527,-0.562,-0.5428,-0.5428,-0.5428,-0.5428,-0.5463,-0.5549,-0.5586,-0.5623,-0.5766,-0.5796,-0.6008,-0.6932,-0.7688,-0.8498,-0.9365,-1.0089,-1.0624,-1.0624,-1.0624,-1.0624,-1.0624,-1.0624,-1.0624,-1.0624,-1.0301,-1.0234,-1.0591,-1.0027,-0.9927,-1.0571,-1.0007,-0.98,-1.0107,-1.0114,-1.0247,-1.0611,-1.0624,-1.0982,-1.1764,-1.1281,-1.1602,-1.2721,-1.2144,-1.2513,-1.3673,-1.3673,-1.3673,-1.3673,-1.2739,-1.2305,-1.2305,-1.2305,-1.2478,-1.2815,-1.2815,-1.2933,-1.324,-1.3527,-1.3552,-1.3687,0.0,0.0,0.0,0.0,0.0,0.0,0.0,0.0,0.0,0.0,0.0,0.0,0.0,0.0,0.0,0.0,0.0,0.0,0.0,0.0,0.0,0.0,0.0,0.0,0.0,-0.2961,-0.4855,-0.5396,-0.5379,-0.5369,-0.5428,-0.6593,-0.7437,-0.8027,-0.9198,-1.004,-1.0624,-1.0624,-1.0624,-1.0561,-1.0301,-0.9849,-0.9274,-0.9011,-0.8683,-0.8355,-0.8091,-0.8156,-0.835,-0.8091,-0.7827,-0.7437,-0.6527,-0.6075,-0.5752,-0.5491,-0.5428,-0.5428,-0.5428,-0.5428,-0.5439,-0.542,-0.5511,-0.5603,-0.5647,-0.5732,-0.5871,-0.6158,-0.7451,-0.8592,-0.8864,-0.9965,-1.0855,-1.0855,-1.0688,-1.0624,-1.0624,-1.0624,-1.0624,-1.0624,-1.0537,-1.0454,-1.0618,-1.0207,-1.0053,-1.0241,-0.99,-0.99,-1.0394,-1.0227,-1.0254,-1.0611,-1.0755,-1.0884,-1.0989,-1.1174,-1.1465,-1.1833,-1.1864,-1.2863,-1.4736,-1.4736,-1.4736,-1.4665,-1.3665,-1.2879,-1.2305,-1.2305,-1.2358,-1.2465,-1.2741,-1.2933,-1.322,-1.3313,-1.3601,-1.3928,0.0,0.0,0.0,0.0,0.0,0.0,0.0,0.0,0.0,0.0,0.0,0.0,0.0,0.0,0.0,0.0,0.0,0.0,0.0,0.0,0.0,0.0,0.0,0.0,0.0,-0.2894,-0.4378,-0.437,-0.504,-0.5369,-0.5428,-0.6268,-0.6981,-0.7567,-0.842,-0.9268,-1.011,-1.011,-1.0301,-1.0624,-1.0624,-1.0301,-0.9786,-0.9786,-0.946,-0.9,-0.9,-0.9,-0.8935,-0.8613,-0.8291,-0.7832,-0.6981,-0.6071,-0.5428,-0.5428,-0.5428,-0.5428,-0.5428,-0.5428,-0.5456,-0.5498,-0.5599,-0.5698,-0.5817,-0.5911,-0.5976,-0.5976,-0.7155,-0.8246,-0.8603,-0.9668,-1.0586,-1.0929,-1.0748,-1.0624,-1.0624,-1.0719,-1.0681,-1.0638,-1.0719,-1.0681,-1.0631,-1.0488,-1.0401,-1.0294,-1.0321,-1.0408,-1.0618,-1.0281,-1.0301,-1.0715,-1.0902,-1.0955,-1.0882,-1.1243,-1.1483,-1.1597,-1.2356,-1.373,-1.5433,-1.5361,-1.566,-1.6139,-1.4848,-1.4091,-1.3792,-1.3245,-1.3194,-1.3418,-1.3162,-1.3273,-1.354,-1.354,-1.3774,-1.4062,0.0,0.0,0.0,0.0,0.0,0.0,0.0,0.0,0.0,0.0,0.0,0.0,0.0,0.0,0.0,0.0,0.0,0.0,0.0,0.0,0.0,0.0,0.0,0.0,0.0,-0.1618,-0.2622,-0.288,-0.4556,-0.5428,-0.5428,-0.6203,-0.6654,-0.6719,-0.7567,-0.842,-0.9204,-0.9274,-0.9786,-1.0498,-1.0561,-1.0624,-1.0624,-1.0624,-1.0624,-1.0624,-1.0624,-1.0624,-1.0498,-0.9594,-0.8742,-0.7832,-0.6981,-0.6071,-0.5428,-0.5428,-0.5428,-0.5428,-0.5428,-0.5428,-0.543,-0.5715,-0.58,-0.5895,-0.6193,-0.6338,-0.6338,-0.6338,-0.6889,-0.7651,-0.8524,-0.9179,-0.9886,-1.0757,-1.0782,-1.0645,-1.0624,-1.0788,-1.0862,-1.0658,-1.0815,-1.0889,-1.0678,-1.0835,-1.0882,-1.0672,-1.1089,-1.1156,-1.0678,-1.0347,-1.0448,-1.0975,-1.1035,-1.1176,-1.1423,-1.1463,-1.1623,-1.1982,-1.3431,-1.468,-1.5765,-1.5716,-1.6442,-1.7814,-1.6114,-1.5763,-1.6271,-1.4917,-1.4712,-1.5188,-1.4082,-1.3877,-1.4055,-1.4055,-1.4055,-1.4055,0.0,0.0,0.0,0.0,0.0,0.0,0.0,0.0,0.0,0.0,0.0,0.0,0.0,0.0,0.0,0.0,0.0,0.0,0.0,0.0,0.0,0.0,0.0,0.0,0.0,-0.0417,-0.1992,-0.4779,-0.5176,-0.5369,-0.5428,-0.5624,-0.6075,-0.6719,-0.6915,-0.7502,-0.8355,-0.9011,-0.9402,-0.9658,-1.0301,-1.0624,-1.0624,-1.0624,-1.0624,-1.0624,-1.0624,-1.0624,-1.0498,-0.9594,-0.8742,-0.7832,-0.6981,-0.6071,-0.5428,-0.5428,-0.5428,-0.5428,-0.5428,-0.5428,-0.5473,-0.5593,-0.581,-0.6023,-0.6217,-0.6338,-0.6338,-0.6338,-0.7065,-0.7787,-0.8014,-0.9202,-1.0161,-1.0167,-1.0597,-1.0815,-1.0658,-1.0678,-1.0698,-1.0631,-1.0815,-1.0969,-1.0895,-1.0955,-1.0962,-1.0895,-1.1015,-1.1035,-1.0902,-1.1035,-1.1076,-1.0995,-1.143,-1.1583,-1.1423,-1.187,-1.2131,-1.2204,-1.2791,-1.4081,-1.5773,-1.5972,-1.6764,-1.785,-1.743,-1.6911,-1.6363,-1.6062,-1.5526,-1.4915,-1.4609,-1.4191,-1.3748,-1.3748,-1.3748,-1.3781,0.0,0.0,0.0,0.0,0.0,0.0,0.0,0.0,0.0,0.0,0.0,0.0,0.0,0.0,0.0,0.0,0.0,0.0,0.0,0.0,0.0,0.0,0.0,0.0,0.0,0.0,-0.1383,-0.4164,-0.4973,-0.5372,-0.5428,-0.5428,-0.562,-0.6141,-0.6141,-0.6593,-0.7437,-0.835,-0.8941,-0.9402,-1.0238,-1.0624,-1.0624,-1.0624,-1.0624,-1.0624,-1.0624,-1.0364,-0.9849,-0.9005,-0.8156,-0.7242,-0.64,-0.5749,-0.5428,-0.5428,-0.5428,-0.5428,-0.5428,-0.5413,-0.5518,-0.5735,-0.5966,-0.6159,-0.624,-0.6338,-0.6338,-0.6338,-0.6718,-0.7253,-0.7706,-0.8807,-0.9735,-0.9846,-1.0491,-1.0942,-1.0782,-1.0755,-1.0808,-1.0942,-1.1216,-1.1396,-1.1396,-1.1516,-1.1536,-1.1403,-1.1516,-1.147,-1.1209,-1.1597,-1.1697,-1.1403,-1.1703,-1.1857,-1.1824,-1.2144,-1.2371,-1.2512,-1.2812,-1.4154,-1.6346,-1.6385,-1.7423,-1.907,-1.8695,-1.8434,-1.8271,-1.755,-1.6738,-1.5881,-1.5405,-1.4646,-1.3848,-1.3848,-1.3761,-1.3667,0.0,0.0,0.0,0.0,0.0,0.0,0.0,0.0,0.0,0.0,0.0,0.0,0.0,0.0,0.0,0.0,0.0,0.0,0.0,0.0,0.0,0.0,0.0,0.0,0.0,0.0,-0.0894,-0.2678,-0.4498,-0.5376,-0.5428,-0.5428,-0.5428,-0.5428,-0.5428,-0.5815,-0.6593,-0.7437,-0.8291,-0.9204,-1.004,-1.0498,-1.0624,-1.0624,-1.0624,-1.0624,-1.0624,-1.004,-0.921,-0.842,-0.7502,-0.6588,-0.5815,-0.5491,-0.5428,-0.5428,-0.5446,-0.5396,-0.5396,-0.5525,-0.5711,-0.5939,-0.6129,-0.6338,-0.6338,-0.6338,-0.6338,-0.6338,-0.6338,-0.6567,-0.7403,-0.8164,-0.8922,-0.9623,-1.0381,-1.0956,-1.1002,-1.1029,-1.1149,-1.1396,-1.173,-1.1951,-1.1997,-1.2225,-1.2285,-1.2084,-1.2258,-1.2171,-1.1724,-1.2171,-1.2325,-1.2078,-1.2024,-1.2118,-1.2365,-1.2418,-1.2518,-1.2761,-1.3086,-1.4532,-1.6846,-1.664,-1.7979,-2.0285,-1.957,-1.9657,-2.0294,-1.914,-1.825,-1.7407,-1.6293,-1.5253,-1.4321,-1.4119,-1.3861,-1.3654,0.0,0.0,0.0,0.0,0.0,0.0,0.0,0.0,0.0,0.0,0.0,0.0,0.0,0.0,0.0,0.0,0.0,0.0,0.0,0.0,0.0,0.0,0.0,0.0,0.0,0.0,-0.0878,-0.2678,-0.4503,-0.5382,-0.5428,-0.5428,-0.5428,-0.5428,-0.5428,-0.5495,-0.5686,-0.6527,-0.7372,-0.8285,-0.9134,-0.9913,-1.0624,-1.0624,-1.0624,-1.0624,-1.0624,-1.004,-0.9268,-0.9139,-0.8027,-0.6654,-0.6527,-0.6009,-0.5428,-0.5428,-0.5454,-0.5555,-0.5555,-0.5752,-0.5942,-0.5857,-0.6051,-0.6338,-0.6338,-0.6338,-0.6338,-0.6338,-0.6338,-0.6338,-0.649,-0.7302,-0.8196,-0.8855,-0.9801,-1.0633,-1.0923,-1.1209,-1.1376,-1.1423,-1.1904,-1.2331,-1.2661,-1.2728,-1.2766,-1.2986,-1.2799,-1.2752,-1.2926,-1.3019,-1.3046,-1.3006,-1.2746,-1.2708,-1.2755,-1.2939,-1.2832,-1.2378,-1.3193,-1.4547,-1.648,-1.6077,-1.7114,-1.9274,-1.9146,-1.9085,-1.9274,-2.0012,-1.9621,-1.8594,-1.7217,-1.6171,-1.535,-1.4125,-1.3599,-1.3681,0.0,0.0,0.0,0.0,0.0,0.0,0.0,0.0,0.0,0.0,0.0,0.0,0.0,0.0,0.0,0.0,0.0,0.0,0.0,0.0,0.0,0.0,0.0,0.0,0.0,0.0,-0.088,-0.2671,-0.4537,-0.5382,-0.5428,-0.5428,-0.5428,-0.5428,-0.5428,-0.5428,-0.5425,-0.633,-0.6915,-0.7372,-0.8221,-0.9134,-0.9919,-0.9919,-1.0174,-1.0624,-1.0624,-0.9716,-0.8683,-0.9139,-0.7837,-0.6075,-0.6527,-0.6071,-0.5428,-0.5428,-0.541,-0.5518,-0.5759,-0.5867,-0.5928,-0.6027,-0.6156,-0.6338,-0.6338,-0.6338,-0.6338,-0.6338,-0.6338,-0.6338,-0.6338,-0.7022,-0.7891,-0.8665,-0.9461,-1.0366,-1.1319,-1.1443,-1.1603,-1.2078,-1.2525,-1.2906,-1.32,-1.3233,-1.3287,-1.3434,-1.3166,-1.306,-1.32,-1.3213,-1.3213,-1.3213,-1.3073,-1.2999,-1.2999,-1.2973,-1.2979,-1.3026,-1.3287,-1.4278,-1.6039,-1.5799,-1.6919,-1.9036,-1.9036,-1.9362,-1.9923,-2.0401,-2.0001,-1.8939,-1.8268,-1.7097,-1.5598,-1.4972,-1.4255,-1.3579,0.0,0.0,0.0,0.0,0.0,0.0,0.0,0.0,0.0,0.0,0.0,0.0,0.0,0.0,0.0,0.0,0.0,0.0,0.0,0.0,0.0,0.0,0.0,0.0,0.0,0.0,-0.0893,-0.272,-0.4498,-0.5382,-0.5428,-0.5428,-0.5428,-0.5428,-0.5428,-0.5428,-0.5428,-0.6141,-0.6527,-0.6785,-0.7437,-0.8221,-0.9005,-0.921,-0.9722,-1.0301,-1.0561,-0.9454,-0.8156,-0.9268,-0.7837,-0.5881,-0.6981,-0.6597,-0.5693,-0.5733,-0.5638,-0.5545,-0.5925,-0.5969,-0.5966,-0.6203,-0.6285,-0.6318,-0.6352,-0.6363,-0.6363,-0.6363,-0.6363,-0.6363,-0.6363,-0.6842,-0.7635,-0.8866,-0.9432,-1.0283,-1.186,-1.1937,-1.2091,-1.2772,-1.3126,-1.3427,-1.3721,-1.3748,-1.3748,-1.3748,-1.354,-1.3414,-1.3414,-1.3414,-1.3414,-1.3414,-1.3347,-1.3313,-1.3313,-1.314,-1.322,-1.354,-1.3688,-1.4553,-1.5993,-1.5831,-1.6756,-1.8638,-1.8638,-1.9036,-1.9835,-2.0401,-2.0079,-1.9362,-1.9116,-1.798,-1.6437,-1.6191,-1.5226,-1.4056,0.0,0.0,0.0,0.0,0.0,0.0,0.0,0.0,0.0,0.0,0.0,0.0,0.0,0.0,0.0,0.0,0.0,0.0,0.0,0.0,0.0,0.0,0.0,0.0,0.0,0.0,-0.0916,-0.272,-0.4498,-0.5382,-0.5428,-0.5428,-0.5428,-0.5428,-0.5428,-0.5428,-0.5428,-0.5491,-0.5947,-0.6719,-0.6785,-0.7307,-0.8156,-0.9011,-0.9338,-0.953,-1.0301,-0.9454,-0.8285,-0.9907,-0.8796,-0.6915,-0.8549,-0.7962,-0.6626,-0.673,-0.6282,-0.5806,-0.5983,-0.6125,-0.6234,-0.6254,-0.6359,-0.6491,-0.6634,-0.6668,-0.6668,-0.6668,-0.6668,-0.6668,-0.6668,-0.6623,-0.7274,-0.9431,-0.9754,-1.039,-1.2444,-1.2913,-1.31,-1.3166,-1.3434,-1.3728,-1.4021,-1.4055,-1.4055,-1.4055,-1.4035,-1.4021,-1.4021,-1.4021,-1.4021,-1.4021,-1.3754,-1.3614,-1.3614,-1.3861,-1.3734,-1.3247,-1.4799,-1.5967,-1.6822,-1.6036,-1.6355,-1.7423,-1.7423,-1.7504,-1.7658,-1.9756,-2.0557,-2.0401,-1.9362,-1.8877,-1.863,-1.7577,-1.6503,-1.5584,0.0,0.0,0.0,0.0,0.0,0.0,0.0,0.0,0.0,0.0,0.0,0.0,0.0,0.0,0.0,0.0,0.0,0.0,0.0,0.0,0.0,0.0,0.0,0.0,0.0,0.0,-0.0892,-0.2717,-0.4544,-0.5406,-0.5428,-0.5428,-0.5428,-0.5428,-0.5428,-0.5428,-0.5428,-0.5428,-0.5624,-0.5881,-0.5881,-0.64,-0.7242,-0.7567,-0.8355,-0.9268,-0.9069,-0.8935,-0.8877,-0.9594,-0.8807,-0.7722,-0.9122,-0.87,-0.7827,-0.8178,-0.7118,-0.6124,-0.6878,-0.6594,-0.6162,-0.6346,-0.643,-0.6512,-0.6664,-0.6702,-0.6702,-0.6702,-0.6702,-0.6702,-0.6702,-0.6576,-0.7236,-0.9499,-0.965,-1.0291,-1.2739,-1.3133,-1.328,-1.3454,-1.3734,-1.3961,-1.4075,-1.4088,-1.4088,-1.4088,-1.4255,-1.4355,-1.4355,-1.4529,-1.4629,-1.4629,-1.4342,-1.4102,-1.3921,-1.3848,-1.3794,-1.3754,-1.4909,-1.536,-1.5204,-1.5561,-1.5944,-1.6273,-1.6273,-1.709,-1.839,-1.9274,-2.0001,-2.0566,-2.0157,-1.9599,-1.8957,-1.847,-1.7658,-1.6601,0.0,0.0,0.0,0.0,0.0,0.0,0.0,0.0,0.0,0.0,0.0,0.0,0.0,0.0,0.0,0.0,0.0,0.0,0.0,0.0,0.0,0.0,0.0,0.0,0.0,0.0,-0.0921,-0.2709,-0.4485,-0.5395,-0.5428,-0.5428,-0.5428,-0.5428,-0.5428,-0.5428,-0.5428,-0.5428,-0.5428,-0.5428,-0.5428,-0.5752,-0.6334,-0.6588,-0.7437,-0.842,-0.8091,-0.8355,-0.8941,-0.9204,-0.8877,-0.8592,-0.9766,-0.9412,-0.8623,-0.9011,-0.7686,-0.6349,-0.752,-0.6935,-0.6173,-0.6471,-0.6546,-0.6597,-0.6793,-0.6841,-0.6922,-0.7344,-0.7091,-0.7091,-0.7754,-0.7533,-0.7959,-1.0275,-1.0402,-1.0931,-1.3166,-1.3487,-1.3561,-1.3761,-1.3961,-1.4122,-1.4215,-1.4142,-1.4122,-1.4215,-1.4409,-1.4563,-1.4656,-1.4856,-1.4963,-1.4963,-1.4763,-1.4516,-1.4222,-1.3928,-1.3881,-1.4088,-1.5003,-1.5167,-1.4657,-1.5379,-1.5696,-1.5696,-1.5696,-1.6828,-1.8735,-1.9057,-1.9795,-2.0781,-2.0781,-2.0282,-1.952,-1.952,-1.8789,-1.7738,0.0,0.0,0.0,0.0,0.0,0.0,0.0,0.0,0.0,0.0,0.0,0.0,0.0,0.0,0.0,0.0,0.0,0.0,0.0,0.0,0.0,0.0,0.0,0.0,0.0,0.0,-0.0849,-0.2685,-0.4514,-0.5395,-0.5428,-0.5428,-0.5428,-0.5428,-0.5428,-0.5428,-0.5428,-0.5428,-0.5428,-0.5428,-0.5428,-0.5428,-0.5491,-0.633,-0.6719,-0.6785,-0.7702,-0.8027,-0.8156,-0.9011,-0.9274,-0.9514,-1.064,-0.999,-0.8797,-0.903,-0.7785,-0.649,-0.7553,-0.7099,-0.6332,-0.6627,-0.6702,-0.6776,-0.7075,-0.7139,-0.7401,-0.8627,-0.7929,-0.7837,-1.0178,-0.9582,-0.9512,-1.194,-1.2206,-1.2563,-1.3873,-1.4088,-1.4088,-1.4088,-1.4088,-1.4202,-1.4489,-1.4262,-1.4215,-1.4496,-1.4522,-1.4656,-1.4957,-1.497,-1.497,-1.497,-1.497,-1.4823,-1.4529,-1.4242,-1.4088,-1.4088,-1.522,-1.5703,-1.5703,-1.5703,-1.5703,-1.5703,-1.5703,-1.6557,-1.8054,-1.9132,-2.0223,-2.116,-2.123,-2.0967,-2.0566,-2.0566,-1.9923,-1.9045,0.0,0.0,0.0,0.0,0.0,0.0,0.0,0.0,0.0,0.0,0.0,0.0,0.0,0.0,0.0,0.0,0.0,0.0,0.0,0.0,0.0,0.0,0.0,0.0,0.0,0.0,-0.0234,-0.0773,-0.4105,-0.556,-0.5428,-0.5471,-0.5464,-0.5428,-0.5428,-0.5428,-0.5428,-0.5428,-0.5428,-0.5428,-0.5428,-0.5428,-0.5428,-0.5686,-0.6137,-0.6654,-0.6272,-0.7381,-0.8905,-0.8739,-0.946,-1.0482,-1.0534,-0.9462,-0.8218,-0.9045,-0.7812,-0.649,-0.7553,-0.7099,-0.6332,-0.6627,-0.6702,-0.6776,-0.7075,-0.7139,-0.7401,-0.8627,-0.7929,-0.7837,-1.0178,-0.9616,-0.9593,-1.1884,-1.2263,-1.2681,-1.3899,-1.4088,-1.4162,-1.4362,-1.4389,-1.4429,-1.4509,-1.4629,-1.4649,-1.4529,-1.4903,-1.5264,-1.5558,-1.5571,-1.5571,-1.5571,-1.5378,-1.5224,-1.5137,-1.485,-1.4496,-1.4088,-1.536,-1.5507,-1.458,-1.5529,-1.5546,-1.4898,-1.5113,-1.5944,-1.7141,-1.825,-1.9361,-2.043,-2.1005,-2.1152,-2.0996,-2.0684,-2.0605,-2.0457,0.0,0.0,0.0,0.0,0.0,0.0,0.0,0.0,0.0,0.0,0.0,0.0,0.0,0.0,0.0,0.0,0.0,0.0,0.0,0.0,0.0,0.0,0.0,0.0,0.0,0.0,0.0,-0.0,-0.2384,-0.422,-0.5537,-0.5535,-0.5518,-0.5542,-0.5416,-0.5463,-0.5447,-0.5456,-0.5428,-0.5432,-0.543,-0.545,-0.545,-0.545,-0.5819,-0.6264,-0.567,-0.676,-0.8384,-0.804,-0.8891,-1.0134,-1.0307,-0.9183,-0.7936,-0.8542,-0.7553,-0.6426,-0.7099,-0.6809,-0.6417,-0.6715,-0.6746,-0.6776,-0.7075,-0.7139,-0.7418,-0.8714,-0.8027,-0.8131,-1.103,-1.0613,-1.0613,-1.2994,-1.3256,-1.349,-1.4329,-1.4335,-1.4369,-1.4663,-1.4696,-1.4743,-1.4856,-1.4923,-1.4937,-1.487,-1.5197,-1.5524,-1.5812,-1.5832,-1.5832,-1.5832,-1.5658,-1.5511,-1.5398,-1.5337,-1.501,-1.4436,-1.528,-1.528,-1.4436,-1.5287,-1.5283,-1.4703,-1.4883,-1.5721,-1.6951,-1.8193,-1.9324,-2.0319,-2.1139,-2.1387,-2.1182,-2.0732,-2.085,-2.115,0.0,0.0,0.0,0.0,0.0,0.0,0.0,0.0,0.0,0.0,0.0,0.0,0.0,0.0,0.0,0.0,0.0,0.0,0.0,0.0,0.0,0.0,0.0,0.0,0.0,0.0,0.0,0.0,0.0,-0.1837,-0.5255,-0.5312,-0.5428,-0.5636,-0.5504,-0.546,-0.5583,-0.544,-0.5456,-0.5413,-0.5552,-0.561,-0.561,-0.561,-0.5688,-0.5783,-0.5654,-0.625,-0.7082,-0.7241,-0.7933,-0.89,-0.9852,-0.905,-0.7629,-0.7629,-0.7034,-0.6308,-0.6437,-0.6481,-0.6563,-0.6854,-0.6834,-0.681,-0.7078,-0.7149,-0.746,-0.8853,-0.8185,-0.8516,-1.2331,-1.2102,-1.2107,-1.4591,-1.4736,-1.4656,-1.493,-1.473,-1.4669,-1.497,-1.5003,-1.511,-1.5371,-1.5157,-1.5124,-1.5418,-1.5438,-1.5551,-1.5812,-1.5832,-1.5832,-1.5832,-1.5832,-1.5705,-1.5438,-1.5698,-1.5538,-1.4963,-1.499,-1.499,-1.4963,-1.499,-1.5003,-1.5003,-1.503,-1.5889,-1.7379,-1.8645,-1.9798,-2.082,-2.1662,-2.1699,-2.1299,-2.085,-2.0967,-2.1357,0.0,0.0,0.0,0.0,0.0,0.0,0.0,0.0,0.0,0.0,0.0,0.0,0.0,0.0,0.0,0.0,0.0,0.0,0.0,0.0,0.0,0.0,0.0,0.0,0.0,0.0,0.0,0.0,0.0,-0.0432,-0.1301,-0.3447,-0.4818,-0.5467,-0.5518,-0.5559,-0.5589,-0.5555,-0.5603,-0.5708,-0.5742,-0.5755,-0.5755,-0.5755,-0.5776,-0.5796,-0.5766,-0.6339,-0.7241,-0.8096,-0.8217,-0.8094,-0.8321,-0.7596,-0.6641,-0.6641,-0.657,-0.6434,-0.6464,-0.6559,-0.6695,-0.6881,-0.6987,-0.7061,-0.7126,-0.7234,-0.7688,-0.8878,-0.828,-0.866,-1.2365,-1.2102,-1.2107,-1.4591,-1.491,-1.489,-1.4957,-1.491,-1.4977,-1.5264,-1.5304,-1.5331,-1.5391,-1.5337,-1.5424,-1.5712,-1.5732,-1.5765,-1.5825,-1.5832,-1.5832,-1.5832,-1.5832,-1.5798,-1.5732,-1.5798,-1.5538,-1.497,-1.5197,-1.5184,-1.497,-1.5197,-1.5304,-1.5311,-1.5545,-1.6413,-1.7665,-1.8926,-2.0095,-2.1219,-2.2093,-2.2314,-2.2187,-2.1758,-2.1865,-2.2285,0.0,0.0,0.0,0.0,0.0,0.0,0.0,0.0,0.0,0.0,0.0,0.0,0.0,0.0,0.0,0.0,0.0,0.0,0.0,0.0,0.0,0.0,0.0,0.0,0.0,0.0,0.0,-0.0,-0.1982,-0.2,-0.0072,-0.3419,-0.5276,-0.5793,-0.5677,-0.5688,-0.5796,-0.5722,-0.5735,-0.581,-0.5881,-0.5911,-0.5911,-0.5911,-0.5956,-0.601,-0.5935,-0.625,-0.6857,-0.8067,-0.7842,-0.7188,-0.7729,-0.7161,-0.6338,-0.6338,-0.6315,-0.6403,-0.6542,-0.6637,-0.6753,-0.6973,-0.7139,-0.7251,-0.7251,-0.737,-0.7681,-0.8299,-0.8015,-0.8661,-1.1859,-1.1974,-1.2449,-1.4995,-1.5257,-1.5217,-1.5357,-1.5257,-1.5277,-1.5571,-1.5605,-1.5605,-1.5605,-1.5605,-1.5665,-1.5818,-1.5832,-1.5832,-1.5832,-1.5832,-1.5832,-1.5832,-1.5832,-1.5832,-1.5832,-1.5832,-1.5678,-1.5378,-1.5531,-1.5524,-1.5384,-1.5531,-1.5605,-1.5611,-1.5765,-1.6204,-1.6943,-1.8764,-1.9852,-2.0541,-2.1958,-2.251,-2.2461,-2.2041,-2.2148,-2.2578,0.0,0.0,0.0,0.0,0.0,0.0,0.0,0.0,0.0,0.0,0.0,0.0,0.0,0.0,0.0,0.0,0.0,0.0,0.0,0.0,0.0,0.0,0.0,0.0,0.0,0.0,0.0,-0.0,-0.4227,-0.4479,-0.1166,-0.441,-0.6003,-0.621,-0.5874,-0.5837,-0.602,-0.5895,-0.5857,-0.5891,-0.6017,-0.6067,-0.6067,-0.6067,-0.6149,-0.6244,-0.6115,-0.6152,-0.6433,-0.7407,-0.7074,-0.6468,-0.7419,-0.707,-0.6298,-0.6298,-0.6315,-0.6393,-0.6664,-0.6776,-0.6875,-0.7119,-0.7316,-0.7448,-0.7448,-0.7546,-0.7668,-0.7787,-0.7831,-0.8657,-1.1424,-1.1945,-1.2721,-1.5343,-1.5625,-1.5558,-1.5798,-1.5625,-1.5558,-1.5798,-1.5832,-1.5832,-1.5832,-1.5832,-1.5832,-1.5832,-1.5832,-1.5832,-1.5832,-1.5832,-1.5832,-1.5832,-1.5832,-1.5832,-1.5832,-1.5832,-1.5832,-1.5832,-1.5832,-1.5832,-1.5832,-1.5832,-1.5832,-1.5832,-1.5832,-1.592,-1.6292,-1.8303,-1.9405,-2.0008,-2.1668,-2.2436,-2.2578,-2.2227,-2.2324,-2.2676,0.0,0.0,0.0,0.0,0.0,0.0,0.0,0.0,0.0,0.0,0.0,0.0,0.0,0.0,0.0,0.0,0.0,0.0,0.0,0.0,0.0,0.0,0.0,0.0,0.0,0.0,0.0,-0.0,-0.4217,-0.6019,-0.5492,-0.5987,-0.6129,-0.6003,-0.5986,-0.5996,-0.6027,-0.6006,-0.6078,-0.62,-0.622,-0.623,-0.623,-0.623,-0.6244,-0.6257,-0.6237,-0.6244,-0.6342,-0.6514,-0.6513,-0.6503,-0.6553,-0.6516,-0.6444,-0.6444,-0.6536,-0.6678,-0.6851,-0.7085,-0.7288,-0.7329,-0.7546,-0.775,-0.775,-0.7767,-0.7787,-0.7807,-0.7916,-0.8795,-1.1453,-1.1945,-1.2721,-1.5343,-1.5798,-1.5785,-1.5818,-1.5798,-1.5785,-1.5825,-1.5832,-1.5832,-1.5832,-1.5832,-1.5832,-1.5832,-1.5832,-1.5832,-1.5832,-1.5832,-1.5832,-1.5832,-1.5832,-1.5832,-1.5832,-1.5832,-1.5832,-1.5832,-1.5832,-1.5832,-1.5832,-1.5832,-1.5832,-1.5832,-1.5832,-1.6386,-1.7505,-1.7777,-1.9131,-2.1105,-2.1328,-2.2133,-2.3047,-2.2988,-2.3008,-2.3066,0.0,0.0,0.0,0.0,0.0,0.0,0.0,0.0,0.0,0.0,0.0,0.0,0.0,0.0,0.0,0.0,0.0,0.0,0.0,0.0,0.0,0.0,0.0,0.0,0.0,0.0,0.0,-0.0,-0.3022,-0.5142,-0.6294,-0.63,-0.629,-0.6204,-0.6149,-0.6159,-0.6159,-0.6159,-0.62,-0.6338,-0.6338,-0.6338,-0.6338,-0.6338,-0.6338,-0.6338,-0.6338,-0.6312,-0.6548,-0.7263,-0.75,-0.7562,-0.7589,-0.7581,-0.7396,-0.676,-0.6647,-0.6732,-0.6888,-0.7082,-0.7261,-0.735,-0.7594,-0.7811,-0.7811,-0.7879,-0.794,-0.794,-0.8576,-0.9702,-1.1556,-1.2528,-1.359,-1.5534,-1.5832,-1.5832,-1.5832,-1.5832,-1.5832,-1.5832,-1.5832,-1.5832,-1.5832,-1.5832,-1.5832,-1.5832,-1.5832,-1.5832,-1.5832,-1.5832,-1.5832,-1.5832,-1.5832,-1.5832,-1.5832,-1.5832,-1.5832,-1.5832,-1.5832,-1.5832,-1.5832,-1.5832,-1.5832,-1.5832,-1.5832,-1.6109,-1.6662,-1.7412,-1.8326,-1.9405,-2.0755,-2.2031,-2.3135,-2.3135,-2.3135,-2.3135]}]]